Time,TemperatureF,DewpointF,PressureIn,WindDirection,WindDirectionDegrees,WindSpeedMPH,WindSpeedGustMPH,Humidity,HourlyPrecipIn,Conditions,Clouds,dailyrainin,SolarRadiationWatts/m^2,SoftwareType,DateUTC
2013-03-08 00:00:00,73.7,69.9,29.92,North,-999,0.0,0.0,88,0.07,,,-99.99,0,WeatherLink 5.4,2013-03-08 04:00:00,
2013-03-08 00:01:00,73.7,69.9,29.92,North,-999,0.0,0.0,88,0.07,,,-99.99,0,WeatherLink 5.4,2013-03-08 04:01:00,
2013-03-08 00:02:00,73.7,70.3,29.92,North,-999,0.0,0.0,89,0.07,,,-99.99,0,WeatherLink 5.4,2013-03-08 04:02:00,
2013-03-08 00:03:00,73.7,69.9,29.92,North,-999,0.0,0.0,88,0.07,,,-99.99,0,WeatherLink 5.4,2013-03-08 04:03:00,
2013-03-08 00:04:00,73.7,70.3,29.92,North,-999,0.0,0.0,89,0.07,,,-99.99,0,WeatherLink 5.4,2013-03-08 04:04:00,
2013-03-08 00:05:00,73.7,70.3,29.92,North,-999,0.0,0.0,89,0.07,,,-99.99,0,WeatherLink 5.4,2013-03-08 04:05:00,
2013-03-08 00:06:00,73.7,70.3,29.92,North,-999,0.0,0.0,89,0.07,,,-99.99,0,WeatherLink 5.4,2013-03-08 04:06:00,
2013-03-08 00:07:00,73.7,70.3,29.92,North,-999,0.0,0.0,89,0.07,,,-99.99,0,WeatherLink 5.4,2013-03-08 04:07:00,
2013-03-08 00:08:00,73.7,70.3,29.92,North,-999,0.0,0.0,89,0.07,,,-99.99,0,WeatherLink 5.4,2013-03-08 04:08:00,
2013-03-08 00:09:00,73.7,69.9,29.92,North,-999,0.0,0.0,88,0.07,,,-99.99,0,WeatherLink 5.4,2013-03-08 04:09:00,
2013-03-08 00:10:00,73.6,69.8,29.92,North,-999,0.0,0.0,88,0.07,,,-99.99,0,WeatherLink 5.4,2013-03-08 04:10:00,
2013-03-08 00:11:00,73.5,69.7,29.92,North,-999,0.0,0.0,88,0.07,,,-99.99,0,WeatherLink 5.4,2013-03-08 04:11:00,
2013-03-08 00:12:00,73.5,69.7,29.92,North,-999,0.0,0.0,88,0.07,,,-99.99,0,WeatherLink 5.4,2013-03-08 04:12:00,
2013-03-08 00:13:00,73.5,70.1,29.92,North,-999,0.0,0.0,89,0.07,,,-99.99,0,WeatherLink 5.4,2013-03-08 04:13:00,
2013-03-08 00:14:00,73.5,70.1,29.92,North,-999,0.0,0.0,89,0.07,,,-99.99,0,WeatherLink 5.4,2013-03-08 04:14:00,
2013-03-08 00:15:00,73.5,69.7,29.91,North,-999,0.0,0.0,88,0.07,,,-99.99,0,WeatherLink 5.4,2013-03-08 04:15:00,
2013-03-08 00:16:00,73.5,69.7,29.91,North,-999,0.0,0.0,88,0.07,,,-99.99,0,WeatherLink 5.4,2013-03-08 04:16:00,
2013-03-08 00:17:00,73.3,69.5,29.91,North,-999,0.0,0.0,88,0.07,,,-99.99,0,WeatherLink 5.4,2013-03-08 04:17:00,
2013-03-08 00:18:00,73.3,69.5,29.91,North,-999,0.0,0.0,88,0.07,,,-99.99,0,WeatherLink 5.4,2013-03-08 04:18:00,
2013-03-08 00:19:00,73.3,69.5,29.91,North,-999,0.0,0.0,88,0.07,,,-99.99,0,WeatherLink 5.4,2013-03-08 04:19:00,
2013-03-08 00:20:00,73.3,69.5,29.91,North,-999,0.0,0.0,88,0.07,,,-99.99,0,WeatherLink 5.4,2013-03-08 04:20:00,
2013-03-08 00:21:00,73.2,69.4,29.91,North,-999,0.0,0.0,88,0.07,,,-99.99,0,WeatherLink 5.4,2013-03-08 04:21:00,
2013-03-08 00:22:00,73.2,69.4,29.91,North,-999,0.0,0.0,88,0.07,,,-99.99,0,WeatherLink 5.4,2013-03-08 04:22:00,
2013-03-08 00:23:00,73.2,69.4,29.91,North,-999,0.0,0.0,88,0.07,,,-99.99,0,WeatherLink 5.4,2013-03-08 04:23:00,
2013-03-08 00:24:00,73.2,69.4,29.91,North,-999,0.0,0.0,88,0.06,,,-99.99,0,WeatherLink 5.4,2013-03-08 04:24:00,
2013-03-08 00:25:00,73.2,69.4,29.91,North,-999,0.0,0.0,88,0.06,,,-99.99,0,WeatherLink 5.4,2013-03-08 04:25:00,
2013-03-08 00:26:00,73.2,69.4,29.91,North,-999,0.0,0.0,88,0.06,,,-99.99,0,WeatherLink 5.4,2013-03-08 04:26:00,
2013-03-08 00:27:00,73.2,69.4,29.91,North,-999,0.0,0.0,88,0.06,,,-99.99,0,WeatherLink 5.4,2013-03-08 04:27:00,
2013-03-08 00:28:00,73.2,69.4,29.91,North,-999,0.0,0.0,88,0.05,,,-99.99,0,WeatherLink 5.4,2013-03-08 04:28:00,
2013-03-08 00:29:00,73.2,69.4,29.91,North,-999,0.0,0.0,88,0.05,,,-99.99,0,WeatherLink 5.4,2013-03-08 04:29:00,
2013-03-08 00:30:00,73.2,69.4,29.91,North,-999,0.0,0.0,88,0.05,,,-99.99,0,WeatherLink 5.4,2013-03-08 04:30:00,
2013-03-08 00:31:00,73.2,69.4,29.91,North,-999,0.0,0.0,88,0.05,,,-99.99,0,WeatherLink 5.4,2013-03-08 04:31:00,
2013-03-08 00:32:00,73.2,69.4,29.91,North,-999,0.0,0.0,88,0.05,,,-99.99,0,WeatherLink 5.4,2013-03-08 04:32:00,
2013-03-08 00:33:00,73.2,69.4,29.91,North,-999,0.0,0.0,88,0.05,,,-99.99,0,WeatherLink 5.4,2013-03-08 04:33:00,
2013-03-08 00:34:00,73.2,69.4,29.91,North,-999,0.0,0.0,88,0.05,,,-99.99,0,WeatherLink 5.4,2013-03-08 04:34:00,
2013-03-08 00:35:00,73.2,69.4,29.91,North,-999,0.0,0.0,88,0.04,,,-99.99,0,WeatherLink 5.4,2013-03-08 04:35:00,
2013-03-08 00:36:00,73.2,69.4,29.91,North,-999,0.0,0.0,88,0.04,,,-99.99,0,WeatherLink 5.4,2013-03-08 04:36:00,
2013-03-08 00:37:00,73.2,69.4,29.91,North,-999,0.0,0.0,88,0.04,,,-99.99,0,WeatherLink 5.4,2013-03-08 04:37:00,
2013-03-08 00:38:00,73.2,69.4,29.91,North,-999,0.0,0.0,88,0.04,,,-99.99,0,WeatherLink 5.4,2013-03-08 04:38:00,
2013-03-08 00:39:00,73.2,69.4,29.91,North,-999,0.0,0.0,88,0.04,,,-99.99,0,WeatherLink 5.4,2013-03-08 04:39:00,
2013-03-08 00:40:00,73.2,69.4,29.91,North,-999,0.0,0.0,88,0.04,,,-99.99,0,WeatherLink 5.4,2013-03-08 04:40:00,
2013-03-08 00:41:00,73.2,69.4,29.91,North,-999,0.0,0.0,88,0.03,,,-99.99,0,WeatherLink 5.4,2013-03-08 04:41:00,
2013-03-08 00:42:00,73.2,69.4,29.91,North,-999,0.0,0.0,88,0.03,,,-99.99,0,WeatherLink 5.4,2013-03-08 04:42:00,
2013-03-08 00:43:00,73.2,69.4,29.91,North,-999,0.0,0.0,88,0.03,,,-99.99,0,WeatherLink 5.4,2013-03-08 04:43:00,
2013-03-08 00:44:00,73.2,69.4,29.91,North,-999,0.0,0.0,88,0.03,,,-99.99,0,WeatherLink 5.4,2013-03-08 04:44:00,
2013-03-08 00:45:00,73.2,69.4,29.90,North,-999,0.0,0.0,88,0.03,,,-99.99,0,WeatherLink 5.4,2013-03-08 04:45:00,
2013-03-08 00:46:00,73.3,69.5,29.90,North,-999,0.0,0.0,88,0.03,,,-99.99,0,WeatherLink 5.4,2013-03-08 04:46:00,
2013-03-08 00:47:00,73.3,69.5,29.90,North,-999,0.0,0.0,88,0.03,,,-99.99,0,WeatherLink 5.4,2013-03-08 04:47:00,
2013-03-08 00:48:00,73.3,69.5,29.90,North,-999,0.0,0.0,88,0.03,,,-99.99,0,WeatherLink 5.4,2013-03-08 04:48:00,
2013-03-08 00:49:00,73.3,69.5,29.90,North,-999,0.0,0.0,88,0.03,,,-99.99,0,WeatherLink 5.4,2013-03-08 04:49:00,
2013-03-08 00:50:00,73.3,69.5,29.90,North,-999,0.0,0.0,88,0.03,,,-99.99,0,WeatherLink 5.4,2013-03-08 04:50:00,
2013-03-08 00:51:00,73.3,69.5,29.90,North,-999,0.0,0.0,88,0.02,,,-99.99,0,WeatherLink 5.4,2013-03-08 04:51:00,
2013-03-08 00:52:00,73.3,69.5,29.90,North,-999,0.0,0.0,88,0.02,,,-99.99,0,WeatherLink 5.4,2013-03-08 04:52:00,
2013-03-08 00:53:00,73.3,69.9,29.90,North,-999,0.0,0.0,89,0.02,,,-99.99,0,WeatherLink 5.4,2013-03-08 04:53:00,
2013-03-08 00:54:00,73.4,70.0,29.90,North,-999,0.0,0.0,89,0.01,,,-99.99,0,WeatherLink 5.4,2013-03-08 04:54:00,
2013-03-08 00:55:00,73.5,70.1,29.90,North,-999,0.0,0.0,89,0.01,,,-99.99,0,WeatherLink 5.4,2013-03-08 04:55:00,
2013-03-08 00:56:00,73.5,70.1,29.90,North,-999,0.0,0.0,89,0.01,,,-99.99,0,WeatherLink 5.4,2013-03-08 04:56:00,
2013-03-08 00:57:00,73.5,70.1,29.90,North,-999,0.0,0.0,89,0.00,,,-99.99,0,WeatherLink 5.4,2013-03-08 04:57:00,
2013-03-08 00:58:00,73.5,70.1,29.90,North,-999,0.0,0.0,89,0.00,,,-99.99,0,WeatherLink 5.4,2013-03-08 04:58:00,
2013-03-08 00:59:00,73.5,70.1,29.90,North,-999,0.0,0.0,89,0.00,,,-99.99,0,WeatherLink 5.4,2013-03-08 04:59:00,
2013-03-08 01:00:00,73.5,70.1,29.90,North,-999,0.0,0.0,89,0.00,,,-99.99,0,WeatherLink 5.4,2013-03-08 05:00:00,
2013-03-08 01:01:00,73.5,70.1,29.90,North,-999,0.0,0.0,89,0.00,,,-99.99,0,WeatherLink 5.4,2013-03-08 05:01:00,
2013-03-08 01:02:00,73.5,70.1,29.90,North,-999,0.0,0.0,89,0.00,,,-99.99,0,WeatherLink 5.4,2013-03-08 05:02:00,
2013-03-08 01:03:00,73.3,69.9,29.90,North,-999,0.0,0.0,89,0.00,,,-99.99,0,WeatherLink 5.4,2013-03-08 05:03:00,
2013-03-08 01:04:00,73.3,69.9,29.90,North,-999,0.0,0.0,89,0.00,,,-99.99,0,WeatherLink 5.4,2013-03-08 05:04:00,
2013-03-08 01:05:00,73.3,69.9,29.90,North,-999,0.0,0.0,89,0.00,,,-99.99,0,WeatherLink 5.4,2013-03-08 05:05:00,
2013-03-08 01:06:00,73.3,69.9,29.90,North,-999,0.0,0.0,89,0.00,,,-99.99,0,WeatherLink 5.4,2013-03-08 05:06:00,
2013-03-08 01:07:00,73.3,69.9,29.90,North,-999,0.0,0.0,89,0.00,,,-99.99,0,WeatherLink 5.4,2013-03-08 05:07:00,
2013-03-08 01:08:00,73.3,69.9,29.90,North,-999,0.0,0.0,89,0.00,,,-99.99,0,WeatherLink 5.4,2013-03-08 05:08:00,
2013-03-08 01:09:00,73.3,69.9,29.90,North,-999,0.0,0.0,89,0.00,,,-99.99,0,WeatherLink 5.4,2013-03-08 05:09:00,
2013-03-08 01:10:00,73.3,69.9,29.90,North,-999,0.0,0.0,89,0.00,,,-99.99,0,WeatherLink 5.4,2013-03-08 05:10:00,
2013-03-08 01:11:00,73.3,69.9,29.90,North,-999,0.0,0.0,89,0.00,,,-99.99,0,WeatherLink 5.4,2013-03-08 05:11:00,
2013-03-08 01:12:00,73.3,69.9,29.90,North,-999,0.0,0.0,89,0.00,,,-99.99,0,WeatherLink 5.4,2013-03-08 05:12:00,
2013-03-08 01:13:00,73.2,69.8,29.90,North,-999,0.0,0.0,89,0.00,,,-99.99,0,WeatherLink 5.4,2013-03-08 05:13:00,
2013-03-08 01:14:00,73.2,69.8,29.90,North,-999,0.0,0.0,89,0.00,,,-99.99,0,WeatherLink 5.4,2013-03-08 05:14:00,
2013-03-08 01:15:00,73.2,69.8,29.89,North,-999,0.0,0.0,89,0.00,,,-99.99,0,WeatherLink 5.4,2013-03-08 05:15:00,
2013-03-08 01:16:00,73.2,69.8,29.89,North,-999,0.0,0.0,89,0.00,,,-99.99,0,WeatherLink 5.4,2013-03-08 05:16:00,
2013-03-08 01:17:00,73.2,69.8,29.89,North,-999,0.0,0.0,89,0.00,,,-99.99,0,WeatherLink 5.4,2013-03-08 05:17:00,
2013-03-08 01:18:00,73.2,69.8,29.89,North,-999,0.0,0.0,89,0.00,,,-99.99,0,WeatherLink 5.4,2013-03-08 05:18:00,
2013-03-08 01:19:00,73.2,69.8,29.89,North,-999,0.0,0.0,89,0.00,,,-99.99,0,WeatherLink 5.4,2013-03-08 05:19:00,
2013-03-08 01:20:00,73.2,69.8,29.89,North,-999,0.0,0.0,89,0.00,,,-99.99,0,WeatherLink 5.4,2013-03-08 05:20:00,
2013-03-08 01:21:00,73.2,69.8,29.89,North,-999,0.0,0.0,89,0.00,,,-99.99,0,WeatherLink 5.4,2013-03-08 05:21:00,
2013-03-08 01:22:00,73.1,69.7,29.89,North,-999,0.0,0.0,89,0.00,,,-99.99,0,WeatherLink 5.4,2013-03-08 05:22:00,
2013-03-08 01:23:00,73.0,69.6,29.89,North,-999,0.0,0.0,89,0.00,,,-99.99,0,WeatherLink 5.4,2013-03-08 05:23:00,
2013-03-08 01:24:00,73.0,69.6,29.89,North,-999,0.0,0.0,89,0.00,,,-99.99,0,WeatherLink 5.4,2013-03-08 05:24:00,
2013-03-08 01:25:00,73.0,69.6,29.89,North,-999,0.0,0.0,89,0.00,,,-99.99,0,WeatherLink 5.4,2013-03-08 05:25:00,
2013-03-08 01:26:00,73.0,69.6,29.89,North,-999,0.0,0.0,89,0.00,,,-99.99,0,WeatherLink 5.4,2013-03-08 05:26:00,
2013-03-08 01:27:00,73.0,69.6,29.89,North,-999,0.0,0.0,89,0.00,,,-99.99,0,WeatherLink 5.4,2013-03-08 05:27:00,
2013-03-08 01:28:00,73.0,69.6,29.89,North,-999,0.0,0.0,89,0.00,,,-99.99,0,WeatherLink 5.4,2013-03-08 05:28:00,
2013-03-08 01:29:00,73.0,69.6,29.89,North,-999,0.0,0.0,89,0.00,,,-99.99,0,WeatherLink 5.4,2013-03-08 05:29:00,
2013-03-08 01:30:00,73.0,69.6,29.88,North,-999,0.0,0.0,89,0.00,,,-99.99,0,WeatherLink 5.4,2013-03-08 05:30:00,
2013-03-08 01:31:00,73.0,69.6,29.88,North,-999,0.0,0.0,89,0.00,,,-99.99,0,WeatherLink 5.4,2013-03-08 05:31:00,
2013-03-08 01:32:00,73.0,69.6,29.88,North,-999,0.0,0.0,89,0.00,,,-99.99,0,WeatherLink 5.4,2013-03-08 05:32:00,
2013-03-08 01:33:00,73.0,69.6,29.88,North,-999,0.0,0.0,89,0.00,,,-99.99,0,WeatherLink 5.4,2013-03-08 05:33:00,
2013-03-08 01:34:00,73.0,69.6,29.88,North,-999,0.0,0.0,89,0.00,,,-99.99,0,WeatherLink 5.4,2013-03-08 05:34:00,
2013-03-08 01:35:00,73.2,69.8,29.88,North,-999,0.0,0.0,89,0.00,,,-99.99,0,WeatherLink 5.4,2013-03-08 05:35:00,
2013-03-08 01:36:00,73.2,69.8,29.88,North,-999,0.0,0.0,89,0.00,,,-99.99,0,WeatherLink 5.4,2013-03-08 05:36:00,
2013-03-08 01:37:00,73.2,69.8,29.88,North,-999,0.0,0.0,89,0.00,,,-99.99,0,WeatherLink 5.4,2013-03-08 05:37:00,
2013-03-08 01:38:00,73.2,69.8,29.88,North,-999,0.0,0.0,89,0.00,,,-99.99,0,WeatherLink 5.4,2013-03-08 05:38:00,
2013-03-08 01:39:00,73.2,69.8,29.88,North,-999,0.0,0.0,89,0.00,,,-99.99,0,WeatherLink 5.4,2013-03-08 05:39:00,
2013-03-08 01:40:00,73.2,69.8,29.88,North,-999,0.0,0.0,89,0.00,,,-99.99,0,WeatherLink 5.4,2013-03-08 05:40:00,
2013-03-08 01:41:00,73.2,69.8,29.88,North,-999,0.0,0.0,89,0.00,,,-99.99,0,WeatherLink 5.4,2013-03-08 05:41:00,
2013-03-08 01:42:00,73.2,69.8,29.88,North,-999,0.0,0.0,89,0.00,,,-99.99,0,WeatherLink 5.4,2013-03-08 05:42:00,
2013-03-08 01:43:00,73.2,69.8,29.88,North,-999,0.0,0.0,89,0.00,,,-99.99,0,WeatherLink 5.4,2013-03-08 05:43:00,
2013-03-08 01:44:00,73.2,69.8,29.88,North,-999,0.0,0.0,89,0.00,,,-99.99,0,WeatherLink 5.4,2013-03-08 05:44:00,
2013-03-08 01:45:00,73.2,69.8,29.88,North,-999,0.0,0.0,89,0.00,,,-99.99,0,WeatherLink 5.4,2013-03-08 05:45:00,
2013-03-08 01:46:00,73.2,69.8,29.88,North,-999,0.0,0.0,89,0.00,,,-99.99,0,WeatherLink 5.4,2013-03-08 05:46:00,
2013-03-08 01:47:00,73.0,69.6,29.88,North,-999,0.0,0.0,89,0.00,,,-99.99,0,WeatherLink 5.4,2013-03-08 05:47:00,
2013-03-08 01:48:00,73.0,69.6,29.88,North,-999,0.0,0.0,89,0.00,,,-99.99,0,WeatherLink 5.4,2013-03-08 05:48:00,
2013-03-08 01:49:00,73.0,69.6,29.88,North,-999,0.0,0.0,89,0.00,,,-99.99,0,WeatherLink 5.4,2013-03-08 05:49:00,
2013-03-08 01:50:00,73.0,69.6,29.88,North,-999,0.0,0.0,89,0.00,,,-99.99,0,WeatherLink 5.4,2013-03-08 05:50:00,
2013-03-08 01:51:00,73.0,69.6,29.88,North,-999,0.0,0.0,89,0.00,,,-99.99,0,WeatherLink 5.4,2013-03-08 05:51:00,
2013-03-08 01:52:00,73.0,69.9,29.88,North,-999,0.0,0.0,90,0.00,,,-99.99,0,WeatherLink 5.4,2013-03-08 05:52:00,
2013-03-08 01:53:00,73.0,69.6,29.88,North,-999,0.0,0.0,89,0.00,,,-99.99,0,WeatherLink 5.4,2013-03-08 05:53:00,
2013-03-08 01:54:00,73.0,69.9,29.88,North,-999,0.0,0.0,90,0.00,,,-99.99,0,WeatherLink 5.4,2013-03-08 05:54:00,
2013-03-08 01:55:00,73.0,69.6,29.88,North,-999,0.0,0.0,89,0.00,,,-99.99,0,WeatherLink 5.4,2013-03-08 05:55:00,
2013-03-08 01:56:00,73.0,69.6,29.88,North,-999,0.0,0.0,89,0.00,,,-99.99,0,WeatherLink 5.4,2013-03-08 05:56:00,
2013-03-08 01:57:00,73.0,69.6,29.88,North,-999,0.0,0.0,89,0.00,,,-99.99,0,WeatherLink 5.4,2013-03-08 05:57:00,
2013-03-08 01:58:00,73.0,69.9,29.88,North,-999,0.0,0.0,90,0.00,,,-99.99,0,WeatherLink 5.4,2013-03-08 05:58:00,
2013-03-08 01:59:00,73.0,69.9,29.88,North,-999,0.0,0.0,90,0.00,,,-99.99,0,WeatherLink 5.4,2013-03-08 05:59:00,
2013-03-08 02:00:00,73.0,69.9,29.87,North,-999,0.0,0.0,90,0.00,,,-99.99,0,WeatherLink 5.4,2013-03-08 06:00:00,
2013-03-08 02:01:00,73.0,69.9,29.87,North,-999,0.0,0.0,90,0.00,,,-99.99,0,WeatherLink 5.4,2013-03-08 06:01:00,
2013-03-08 02:02:00,73.0,69.9,29.87,North,-999,0.0,0.0,90,0.00,,,-99.99,0,WeatherLink 5.4,2013-03-08 06:02:00,
2013-03-08 02:03:00,73.0,69.9,29.87,North,-999,0.0,0.0,90,0.00,,,-99.99,0,WeatherLink 5.4,2013-03-08 06:03:00,
2013-03-08 02:04:00,72.9,69.8,29.87,North,-999,0.0,0.0,90,0.00,,,-99.99,0,WeatherLink 5.4,2013-03-08 06:04:00,
2013-03-08 02:05:00,72.8,69.7,29.87,North,-999,0.0,0.0,90,0.00,,,-99.99,0,WeatherLink 5.4,2013-03-08 06:05:00,
2013-03-08 02:06:00,72.8,69.7,29.87,North,-999,0.0,0.0,90,0.00,,,-99.99,0,WeatherLink 5.4,2013-03-08 06:06:00,
2013-03-08 02:07:00,72.8,69.7,29.87,North,-999,0.0,0.0,90,0.00,,,-99.99,0,WeatherLink 5.4,2013-03-08 06:07:00,
2013-03-08 02:08:00,72.8,69.7,29.87,North,-999,0.0,0.0,90,0.00,,,-99.99,0,WeatherLink 5.4,2013-03-08 06:08:00,
2013-03-08 02:09:00,72.8,69.7,29.87,North,-999,0.0,0.0,90,0.00,,,-99.99,0,WeatherLink 5.4,2013-03-08 06:09:00,
2013-03-08 02:10:00,72.8,69.7,29.87,North,-999,0.0,0.0,90,0.00,,,-99.99,0,WeatherLink 5.4,2013-03-08 06:10:00,
2013-03-08 02:11:00,72.8,69.7,29.87,North,-999,0.0,0.0,90,0.00,,,-99.99,0,WeatherLink 5.4,2013-03-08 06:11:00,
2013-03-08 02:12:00,72.8,69.7,29.87,North,-999,0.0,0.0,90,0.00,,,-99.99,0,WeatherLink 5.4,2013-03-08 06:12:00,
2013-03-08 02:13:00,72.8,69.7,29.87,North,-999,0.0,0.0,90,0.00,,,-99.99,0,WeatherLink 5.4,2013-03-08 06:13:00,
2013-03-08 02:14:00,72.8,69.7,29.87,North,-999,0.0,0.0,90,0.00,,,-99.99,0,WeatherLink 5.4,2013-03-08 06:14:00,
2013-03-08 02:15:00,72.8,69.7,29.87,North,-999,0.0,0.0,90,0.00,,,-99.99,0,WeatherLink 5.4,2013-03-08 06:15:00,
2013-03-08 02:16:00,72.8,69.7,29.87,North,-999,0.0,0.0,90,0.00,,,-99.99,0,WeatherLink 5.4,2013-03-08 06:16:00,
2013-03-08 02:17:00,72.8,69.7,29.87,North,-999,0.0,0.0,90,0.00,,,-99.99,0,WeatherLink 5.4,2013-03-08 06:17:00,
2013-03-08 02:18:00,72.8,69.7,29.87,North,-999,0.0,0.0,90,0.00,,,-99.99,0,WeatherLink 5.4,2013-03-08 06:18:00,
2013-03-08 02:19:00,72.8,69.7,29.87,North,-999,0.0,0.0,90,0.00,,,-99.99,0,WeatherLink 5.4,2013-03-08 06:19:00,
2013-03-08 02:20:00,72.8,69.7,29.87,North,-999,0.0,0.0,90,0.00,,,-99.99,0,WeatherLink 5.4,2013-03-08 06:20:00,
2013-03-08 02:21:00,72.8,69.7,29.87,North,-999,0.0,0.0,90,0.00,,,-99.99,0,WeatherLink 5.4,2013-03-08 06:21:00,
2013-03-08 02:22:00,72.8,69.7,29.87,North,-999,0.0,0.0,90,0.00,,,-99.99,0,WeatherLink 5.4,2013-03-08 06:22:00,
2013-03-08 02:23:00,72.8,69.7,29.87,North,-999,0.0,0.0,90,0.00,,,-99.99,0,WeatherLink 5.4,2013-03-08 06:23:00,
2013-03-08 02:24:00,72.8,69.7,29.87,North,-999,0.0,0.0,90,0.00,,,-99.99,0,WeatherLink 5.4,2013-03-08 06:24:00,
2013-03-08 02:25:00,72.8,69.7,29.87,North,-999,0.0,0.0,90,0.00,,,-99.99,0,WeatherLink 5.4,2013-03-08 06:25:00,
2013-03-08 02:26:00,72.8,69.7,29.87,North,-999,0.0,0.0,90,0.00,,,-99.99,0,WeatherLink 5.4,2013-03-08 06:26:00,
2013-03-08 02:27:00,72.8,69.7,29.87,North,-999,0.0,0.0,90,0.00,,,-99.99,0,WeatherLink 5.4,2013-03-08 06:27:00,
2013-03-08 02:28:00,72.8,69.7,29.87,North,-999,0.0,0.0,90,0.00,,,-99.99,0,WeatherLink 5.4,2013-03-08 06:28:00,
2013-03-08 02:29:00,72.8,69.7,29.87,North,-999,0.0,0.0,90,0.00,,,-99.99,0,WeatherLink 5.4,2013-03-08 06:29:00,
2013-03-08 02:30:00,72.8,69.7,29.86,North,-999,0.0,0.0,90,0.00,,,-99.99,0,WeatherLink 5.4,2013-03-08 06:30:00,
2013-03-08 02:31:00,72.8,69.7,29.86,North,-999,0.0,0.0,90,0.00,,,-99.99,0,WeatherLink 5.4,2013-03-08 06:31:00,
2013-03-08 02:32:00,72.8,69.7,29.86,North,-999,0.0,0.0,90,0.00,,,-99.99,0,WeatherLink 5.4,2013-03-08 06:32:00,
2013-03-08 02:33:00,72.8,69.7,29.86,North,-999,0.0,0.0,90,0.00,,,-99.99,0,WeatherLink 5.4,2013-03-08 06:33:00,
2013-03-08 02:34:00,72.8,69.7,29.86,North,-999,0.0,0.0,90,0.00,,,-99.99,0,WeatherLink 5.4,2013-03-08 06:34:00,
2013-03-08 02:36:00,72.8,69.7,29.86,North,-999,0.0,0.0,90,0.00,,,-99.99,0,WeatherLink 5.4,2013-03-08 06:36:00,
2013-03-08 02:37:00,72.8,69.7,29.86,North,-999,0.0,0.0,90,0.00,,,-99.99,0,WeatherLink 5.4,2013-03-08 06:37:00,
2013-03-08 02:38:00,72.8,69.7,29.86,North,-999,0.0,0.0,90,0.00,,,-99.99,0,WeatherLink 5.4,2013-03-08 06:38:00,
2013-03-08 02:39:00,72.8,69.7,29.86,North,-999,0.0,0.0,90,0.00,,,-99.99,0,WeatherLink 5.4,2013-03-08 06:39:00,
2013-03-08 02:40:00,72.8,69.7,29.86,North,-999,0.0,0.0,90,0.00,,,-99.99,0,WeatherLink 5.4,2013-03-08 06:40:00,
2013-03-08 02:41:00,72.8,69.7,29.86,North,-999,0.0,0.0,90,0.00,,,-99.99,0,WeatherLink 5.4,2013-03-08 06:41:00,
2013-03-08 02:42:00,72.8,69.7,29.86,North,-999,0.0,0.0,90,0.00,,,-99.99,0,WeatherLink 5.4,2013-03-08 06:42:00,
2013-03-08 02:43:00,72.8,69.7,29.86,North,-999,0.0,0.0,90,0.00,,,-99.99,0,WeatherLink 5.4,2013-03-08 06:43:00,
2013-03-08 02:44:00,72.8,69.7,29.86,North,-999,0.0,0.0,90,0.00,,,-99.99,0,WeatherLink 5.4,2013-03-08 06:44:00,
2013-03-08 02:45:00,72.8,69.7,29.86,North,-999,0.0,0.0,90,0.00,,,-99.99,0,WeatherLink 5.4,2013-03-08 06:45:00,
2013-03-08 02:46:00,72.8,69.7,29.86,North,-999,0.0,0.0,90,0.00,,,-99.99,0,WeatherLink 5.4,2013-03-08 06:46:00,
2013-03-08 02:47:00,72.8,70.0,29.86,North,-999,0.0,0.0,91,0.00,,,-99.99,0,WeatherLink 5.4,2013-03-08 06:47:00,
2013-03-08 02:48:00,72.8,70.0,29.86,North,-999,0.0,0.0,91,0.00,,,-99.99,0,WeatherLink 5.4,2013-03-08 06:48:00,
2013-03-08 02:49:00,72.8,70.0,29.86,North,-999,0.0,0.0,91,0.00,,,-99.99,0,WeatherLink 5.4,2013-03-08 06:49:00,
2013-03-08 02:50:00,72.8,70.0,29.86,North,-999,0.0,0.0,91,0.00,,,-99.99,0,WeatherLink 5.4,2013-03-08 06:50:00,
2013-03-08 02:51:00,72.7,69.9,29.86,North,-999,0.0,0.0,91,0.00,,,-99.99,0,WeatherLink 5.4,2013-03-08 06:51:00,
2013-03-08 02:52:00,72.7,69.9,29.86,North,-999,0.0,0.0,91,0.00,,,-99.99,0,WeatherLink 5.4,2013-03-08 06:52:00,
2013-03-08 02:53:00,72.7,69.9,29.86,North,-999,0.0,0.0,91,0.00,,,-99.99,0,WeatherLink 5.4,2013-03-08 06:53:00,
2013-03-08 02:54:00,72.7,69.9,29.86,North,-999,0.0,0.0,91,0.00,,,-99.99,0,WeatherLink 5.4,2013-03-08 06:54:00,
2013-03-08 02:55:00,72.7,69.9,29.86,North,-999,0.0,0.0,91,0.00,,,-99.99,0,WeatherLink 5.4,2013-03-08 06:55:00,
2013-03-08 02:56:00,72.7,69.9,29.86,North,-999,0.0,0.0,91,0.00,,,-99.99,0,WeatherLink 5.4,2013-03-08 06:56:00,
2013-03-08 02:57:00,72.7,69.9,29.86,North,-999,0.0,0.0,91,0.00,,,-99.99,0,WeatherLink 5.4,2013-03-08 06:57:00,
2013-03-08 02:58:00,72.7,69.9,29.86,North,-999,0.0,0.0,91,0.00,,,-99.99,0,WeatherLink 5.4,2013-03-08 06:58:00,
2013-03-08 02:59:00,72.7,69.9,29.86,North,-999,0.0,0.0,91,0.00,,,-99.99,0,WeatherLink 5.4,2013-03-08 06:59:00,
2013-03-08 03:00:00,72.7,69.9,29.86,North,-999,0.0,0.0,91,0.00,,,-99.99,0,WeatherLink 5.4,2013-03-08 07:00:00,
2013-03-08 03:01:00,72.7,69.9,29.86,North,-999,0.0,0.0,91,0.00,,,-99.99,0,WeatherLink 5.4,2013-03-08 07:01:00,
2013-03-08 03:02:00,72.7,69.9,29.86,North,-999,0.0,0.0,91,0.00,,,-99.99,0,WeatherLink 5.4,2013-03-08 07:02:00,
2013-03-08 03:03:00,72.7,69.9,29.86,North,-999,0.0,0.0,91,0.00,,,-99.99,0,WeatherLink 5.4,2013-03-08 07:03:00,
2013-03-08 03:04:00,72.7,69.9,29.86,North,-999,0.0,0.0,91,0.00,,,-99.99,0,WeatherLink 5.4,2013-03-08 07:04:00,
2013-03-08 03:05:00,72.6,69.8,29.86,North,-999,0.0,0.0,91,0.00,,,-99.99,0,WeatherLink 5.4,2013-03-08 07:05:00,
2013-03-08 03:06:00,72.5,69.7,29.86,North,-999,0.0,0.0,91,0.00,,,-99.99,0,WeatherLink 5.4,2013-03-08 07:06:00,
2013-03-08 03:07:00,72.5,69.7,29.86,North,-999,0.0,0.0,91,0.00,,,-99.99,0,WeatherLink 5.4,2013-03-08 07:07:00,
2013-03-08 03:08:00,72.5,69.7,29.86,North,-999,0.0,0.0,91,0.00,,,-99.99,0,WeatherLink 5.4,2013-03-08 07:08:00,
2013-03-08 03:09:00,72.5,69.7,29.86,North,-999,0.0,0.0,91,0.00,,,-99.99,0,WeatherLink 5.4,2013-03-08 07:09:00,
2013-03-08 03:10:00,72.5,69.7,29.86,North,-999,0.0,0.0,91,0.00,,,-99.99,0,WeatherLink 5.4,2013-03-08 07:10:00,
2013-03-08 03:11:00,72.5,69.7,29.86,North,-999,0.0,0.0,91,0.00,,,-99.99,0,WeatherLink 5.4,2013-03-08 07:11:00,
2013-03-08 03:12:00,72.5,69.7,29.86,North,-999,0.0,0.0,91,0.00,,,-99.99,0,WeatherLink 5.4,2013-03-08 07:12:00,
2013-03-08 03:13:00,72.5,69.7,29.86,North,-999,0.0,0.0,91,0.00,,,-99.99,0,WeatherLink 5.4,2013-03-08 07:13:00,
2013-03-08 03:14:00,72.5,69.7,29.86,North,-999,0.0,0.0,91,0.00,,,-99.99,0,WeatherLink 5.4,2013-03-08 07:14:00,
2013-03-08 03:15:00,72.5,69.7,29.86,North,-999,0.0,0.0,91,0.00,,,-99.99,0,WeatherLink 5.4,2013-03-08 07:15:00,
2013-03-08 03:16:00,72.5,69.7,29.86,North,-999,0.0,0.0,91,0.00,,,-99.99,0,WeatherLink 5.4,2013-03-08 07:16:00,
2013-03-08 03:17:00,72.5,69.7,29.86,North,-999,0.0,0.0,91,0.00,,,-99.99,0,WeatherLink 5.4,2013-03-08 07:17:00,
2013-03-08 03:18:00,72.5,69.7,29.86,North,-999,0.0,0.0,91,0.00,,,-99.99,0,WeatherLink 5.4,2013-03-08 07:18:00,
2013-03-08 03:19:00,72.5,69.7,29.86,North,-999,0.0,0.0,91,0.00,,,-99.99,0,WeatherLink 5.4,2013-03-08 07:19:00,
2013-03-08 03:20:00,72.5,69.7,29.86,North,-999,0.0,0.0,91,0.00,,,-99.99,0,WeatherLink 5.4,2013-03-08 07:20:00,
2013-03-08 03:21:00,72.5,69.7,29.86,North,-999,0.0,0.0,91,0.00,,,-99.99,0,WeatherLink 5.4,2013-03-08 07:21:00,
2013-03-08 03:22:00,72.4,69.6,29.86,North,-999,0.0,0.0,91,0.00,,,-99.99,0,WeatherLink 5.4,2013-03-08 07:22:00,
2013-03-08 03:23:00,72.3,69.5,29.86,North,-999,0.0,0.0,91,0.00,,,-99.99,0,WeatherLink 5.4,2013-03-08 07:23:00,
2013-03-08 03:24:00,72.3,69.5,29.86,North,-999,0.0,0.0,91,0.00,,,-99.99,0,WeatherLink 5.4,2013-03-08 07:24:00,
2013-03-08 03:25:00,72.4,69.6,29.86,North,-999,0.0,0.0,91,0.00,,,-99.99,0,WeatherLink 5.4,2013-03-08 07:25:00,
2013-03-08 03:26:00,72.4,69.6,29.86,North,-999,0.0,0.0,91,0.00,,,-99.99,0,WeatherLink 5.4,2013-03-08 07:26:00,
2013-03-08 03:27:00,72.3,69.5,29.86,North,-999,0.0,0.0,91,0.00,,,-99.99,0,WeatherLink 5.4,2013-03-08 07:27:00,
2013-03-08 03:28:00,72.3,69.5,29.86,North,-999,0.0,0.0,91,0.00,,,-99.99,0,WeatherLink 5.4,2013-03-08 07:28:00,
2013-03-08 03:29:00,72.5,69.7,29.86,North,-999,0.0,0.0,91,0.00,,,-99.99,0,WeatherLink 5.4,2013-03-08 07:29:00,
2013-03-08 03:30:00,72.5,69.7,29.86,North,-999,0.0,0.0,91,0.00,,,-99.99,0,WeatherLink 5.4,2013-03-08 07:30:00,
2013-03-08 03:31:00,72.5,69.7,29.86,North,-999,0.0,0.0,91,0.00,,,-99.99,0,WeatherLink 5.4,2013-03-08 07:31:00,
2013-03-08 03:32:00,72.5,69.7,29.86,North,-999,0.0,0.0,91,0.00,,,-99.99,0,WeatherLink 5.4,2013-03-08 07:32:00,
2013-03-08 03:33:00,72.5,69.7,29.86,North,-999,0.0,0.0,91,0.00,,,-99.99,0,WeatherLink 5.4,2013-03-08 07:33:00,
2013-03-08 03:34:00,72.5,69.7,29.86,North,-999,0.0,0.0,91,0.00,,,-99.99,0,WeatherLink 5.4,2013-03-08 07:34:00,
2013-03-08 03:35:00,72.5,69.7,29.86,North,-999,0.0,0.0,91,0.00,,,-99.99,0,WeatherLink 5.4,2013-03-08 07:35:00,
2013-03-08 03:36:00,72.5,69.7,29.86,North,-999,0.0,0.0,91,0.00,,,-99.99,0,WeatherLink 5.4,2013-03-08 07:36:00,
2013-03-08 03:37:00,72.5,69.7,29.86,North,-999,0.0,0.0,91,0.01,,,-99.99,0,WeatherLink 5.4,2013-03-08 07:37:00,
2013-03-08 03:38:00,72.5,69.7,29.86,North,-999,0.0,0.0,91,0.01,,,-99.99,0,WeatherLink 5.4,2013-03-08 07:38:00,
2013-03-08 03:39:00,72.5,69.7,29.86,North,-999,0.0,0.0,91,0.01,,,-99.99,0,WeatherLink 5.4,2013-03-08 07:39:00,
2013-03-08 03:40:00,72.5,69.7,29.86,North,-999,0.0,0.0,91,0.01,,,-99.99,0,WeatherLink 5.4,2013-03-08 07:40:00,
2013-03-08 03:41:00,72.5,69.7,29.86,North,-999,0.0,0.0,91,0.01,,,-99.99,0,WeatherLink 5.4,2013-03-08 07:41:00,
2013-03-08 03:42:00,72.6,70.1,29.86,North,-999,0.0,0.0,92,0.01,,,-99.99,0,WeatherLink 5.4,2013-03-08 07:42:00,
2013-03-08 03:43:00,72.7,70.2,29.86,North,-999,0.0,0.0,92,0.02,,,-99.99,0,WeatherLink 5.4,2013-03-08 07:43:00,
2013-03-08 03:44:00,72.7,70.2,29.86,North,-999,0.0,0.0,92,0.02,,,-99.99,0,WeatherLink 5.4,2013-03-08 07:44:00,
2013-03-08 03:45:00,72.7,70.2,29.86,North,-999,0.0,0.0,92,0.02,,,-99.99,0,WeatherLink 5.4,2013-03-08 07:45:00,
2013-03-08 03:46:00,72.7,70.2,29.86,North,-999,0.0,0.0,92,0.02,,,-99.99,0,WeatherLink 5.4,2013-03-08 07:46:00,
2013-03-08 03:47:00,72.7,70.2,29.86,North,-999,0.0,0.0,92,0.02,,,-99.99,0,WeatherLink 5.4,2013-03-08 07:47:00,
2013-03-08 03:48:00,72.7,70.2,29.86,North,-999,0.0,0.0,92,0.02,,,-99.99,0,WeatherLink 5.4,2013-03-08 07:48:00,
2013-03-08 03:49:00,72.7,70.2,29.86,North,-999,0.0,0.0,92,0.02,,,-99.99,0,WeatherLink 5.4,2013-03-08 07:49:00,
2013-03-08 03:50:00,72.7,70.2,29.86,North,-999,0.0,0.0,92,0.02,,,-99.99,0,WeatherLink 5.4,2013-03-08 07:50:00,
2013-03-08 03:51:00,72.7,70.2,29.86,North,-999,0.0,0.0,92,0.02,,,-99.99,0,WeatherLink 5.4,2013-03-08 07:51:00,
2013-03-08 03:52:00,72.7,70.2,29.86,North,-999,0.0,0.0,92,0.02,,,-99.99,0,WeatherLink 5.4,2013-03-08 07:52:00,
2013-03-08 03:53:00,72.7,70.2,29.86,North,-999,0.0,0.0,92,0.02,,,-99.99,0,WeatherLink 5.4,2013-03-08 07:53:00,
2013-03-08 03:54:00,72.7,70.2,29.86,North,-999,0.0,0.0,92,0.02,,,-99.99,0,WeatherLink 5.4,2013-03-08 07:54:00,
2013-03-08 03:55:00,72.7,70.2,29.86,North,-999,0.0,0.0,92,0.02,,,-99.99,0,WeatherLink 5.4,2013-03-08 07:55:00,
2013-03-08 03:56:00,72.7,70.2,29.86,North,-999,0.0,0.0,92,0.02,,,-99.99,0,WeatherLink 5.4,2013-03-08 07:56:00,
2013-03-08 03:57:00,72.7,70.2,29.86,North,-999,0.0,0.0,92,0.02,,,-99.99,0,WeatherLink 5.4,2013-03-08 07:57:00,
2013-03-08 03:58:00,72.7,70.2,29.86,North,-999,0.0,0.0,92,0.02,,,-99.99,0,WeatherLink 5.4,2013-03-08 07:58:00,
2013-03-08 03:59:00,72.7,70.2,29.86,North,-999,0.0,0.0,92,0.02,,,-99.99,0,WeatherLink 5.4,2013-03-08 07:59:00,
2013-03-08 04:00:00,72.7,70.2,29.86,North,-999,0.0,0.0,92,0.02,,,-99.99,0,WeatherLink 5.4,2013-03-08 08:00:00,
2013-03-08 04:01:00,72.7,70.2,29.86,North,-999,0.0,0.0,92,0.02,,,-99.99,0,WeatherLink 5.4,2013-03-08 08:01:00,
2013-03-08 04:02:00,72.7,70.2,29.86,North,-999,0.0,0.0,92,0.02,,,-99.99,0,WeatherLink 5.4,2013-03-08 08:02:00,
2013-03-08 04:03:00,72.7,70.2,29.86,North,-999,0.0,0.0,92,0.02,,,-99.99,0,WeatherLink 5.4,2013-03-08 08:03:00,
2013-03-08 04:04:00,72.7,70.2,29.86,North,-999,0.0,0.0,92,0.02,,,-99.99,0,WeatherLink 5.4,2013-03-08 08:04:00,
2013-03-08 04:05:00,72.7,70.2,29.86,North,-999,0.0,0.0,92,0.02,,,-99.99,0,WeatherLink 5.4,2013-03-08 08:05:00,
2013-03-08 04:06:00,72.7,70.2,29.86,North,-999,0.0,0.0,92,0.02,,,-99.99,0,WeatherLink 5.4,2013-03-08 08:06:00,
2013-03-08 04:07:00,72.7,70.2,29.86,North,-999,0.0,0.0,92,0.02,,,-99.99,0,WeatherLink 5.4,2013-03-08 08:07:00,
2013-03-08 04:08:00,72.7,70.2,29.86,North,-999,0.0,0.0,92,0.02,,,-99.99,0,WeatherLink 5.4,2013-03-08 08:08:00,
2013-03-08 04:09:00,72.7,70.2,29.86,North,-999,0.0,0.0,92,0.02,,,-99.99,0,WeatherLink 5.4,2013-03-08 08:09:00,
2013-03-08 04:10:00,72.7,70.2,29.86,North,-999,0.0,0.0,92,0.02,,,-99.99,0,WeatherLink 5.4,2013-03-08 08:10:00,
2013-03-08 04:11:00,72.7,70.2,29.86,North,-999,0.0,0.0,92,0.02,,,-99.99,0,WeatherLink 5.4,2013-03-08 08:11:00,
2013-03-08 04:12:00,72.7,70.2,29.86,North,-999,0.0,0.0,92,0.02,,,-99.99,0,WeatherLink 5.4,2013-03-08 08:12:00,
2013-03-08 04:13:00,72.7,70.2,29.86,North,-999,0.0,0.0,92,0.02,,,-99.99,0,WeatherLink 5.4,2013-03-08 08:13:00,
2013-03-08 04:14:00,72.7,70.2,29.86,North,-999,0.0,0.0,92,0.02,,,-99.99,0,WeatherLink 5.4,2013-03-08 08:14:00,
2013-03-08 04:15:00,72.7,70.2,29.86,North,-999,0.0,0.0,92,0.02,,,-99.99,0,WeatherLink 5.4,2013-03-08 08:15:00,
2013-03-08 04:16:00,72.7,70.2,29.86,North,-999,0.0,0.0,92,0.02,,,-99.99,0,WeatherLink 5.4,2013-03-08 08:16:00,
2013-03-08 04:17:00,72.7,70.2,29.86,North,-999,0.0,0.0,92,0.02,,,-99.99,0,WeatherLink 5.4,2013-03-08 08:17:00,
2013-03-08 04:18:00,72.7,70.2,29.86,North,-999,0.0,0.0,92,0.02,,,-99.99,0,WeatherLink 5.4,2013-03-08 08:18:00,
2013-03-08 04:19:00,72.7,70.2,29.86,North,-999,0.0,0.0,92,0.02,,,-99.99,0,WeatherLink 5.4,2013-03-08 08:19:00,
2013-03-08 04:20:00,72.7,70.2,29.86,North,-999,0.0,0.0,92,0.02,,,-99.99,0,WeatherLink 5.4,2013-03-08 08:20:00,
2013-03-08 04:21:00,72.7,70.2,29.86,North,-999,0.0,0.0,92,0.02,,,-99.99,0,WeatherLink 5.4,2013-03-08 08:21:00,
2013-03-08 04:22:00,72.7,70.2,29.86,North,-999,0.0,0.0,92,0.02,,,-99.99,0,WeatherLink 5.4,2013-03-08 08:22:00,
2013-03-08 04:23:00,72.7,70.2,29.86,North,-999,0.0,0.0,92,0.02,,,-99.99,0,WeatherLink 5.4,2013-03-08 08:23:00,
2013-03-08 04:24:00,72.7,70.2,29.86,North,-999,0.0,0.0,92,0.02,,,-99.99,0,WeatherLink 5.4,2013-03-08 08:24:00,
2013-03-08 04:25:00,72.7,70.2,29.86,North,-999,0.0,0.0,92,0.02,,,-99.99,0,WeatherLink 5.4,2013-03-08 08:25:00,
2013-03-08 04:26:00,72.6,70.1,29.86,North,-999,0.0,0.0,92,0.02,,,-99.99,0,WeatherLink 5.4,2013-03-08 08:26:00,
2013-03-08 04:27:00,72.5,70.0,29.86,North,-999,0.0,0.0,92,0.02,,,-99.99,0,WeatherLink 5.4,2013-03-08 08:27:00,
2013-03-08 04:28:00,72.5,70.0,29.86,North,-999,0.0,0.0,92,0.02,,,-99.99,0,WeatherLink 5.4,2013-03-08 08:28:00,
2013-03-08 04:29:00,72.5,70.0,29.86,North,-999,0.0,0.0,92,0.02,,,-99.99,0,WeatherLink 5.4,2013-03-08 08:29:00,
2013-03-08 04:30:00,72.5,70.0,29.86,North,-999,0.0,0.0,92,0.02,,,-99.99,0,WeatherLink 5.4,2013-03-08 08:30:00,
2013-03-08 04:31:00,72.5,70.0,29.86,North,-999,0.0,0.0,92,0.02,,,-99.99,0,WeatherLink 5.4,2013-03-08 08:31:00,
2013-03-08 04:32:00,72.5,70.0,29.86,North,-999,0.0,0.0,92,0.02,,,-99.99,0,WeatherLink 5.4,2013-03-08 08:32:00,
2013-03-08 04:33:00,72.5,70.0,29.86,North,-999,0.0,0.0,92,0.02,,,-99.99,0,WeatherLink 5.4,2013-03-08 08:33:00,
2013-03-08 04:34:00,72.5,70.0,29.86,North,-999,0.0,0.0,92,0.02,,,-99.99,0,WeatherLink 5.4,2013-03-08 08:34:00,
2013-03-08 04:35:00,72.5,70.0,29.86,North,-999,0.0,0.0,92,0.02,,,-99.99,0,WeatherLink 5.4,2013-03-08 08:35:00,
2013-03-08 04:36:00,72.5,70.0,29.86,North,-999,0.0,0.0,92,0.02,,,-99.99,0,WeatherLink 5.4,2013-03-08 08:36:00,
2013-03-08 04:37:00,72.5,70.0,29.86,North,-999,0.0,0.0,92,0.01,,,-99.99,0,WeatherLink 5.4,2013-03-08 08:37:00,
2013-03-08 04:38:00,72.5,70.0,29.86,North,-999,0.0,0.0,92,0.01,,,-99.99,0,WeatherLink 5.4,2013-03-08 08:38:00,
2013-03-08 04:39:00,72.5,70.0,29.86,North,-999,0.0,0.0,92,0.01,,,-99.99,0,WeatherLink 5.4,2013-03-08 08:39:00,
2013-03-08 04:40:00,72.5,70.0,29.86,North,-999,0.0,0.0,92,0.01,,,-99.99,0,WeatherLink 5.4,2013-03-08 08:40:00,
2013-03-08 04:41:00,72.5,70.0,29.86,North,-999,0.0,0.0,92,0.01,,,-99.99,0,WeatherLink 5.4,2013-03-08 08:41:00,
2013-03-08 04:42:00,72.5,70.0,29.86,North,-999,0.0,0.0,92,0.01,,,-99.99,0,WeatherLink 5.4,2013-03-08 08:42:00,
2013-03-08 04:43:00,72.5,70.0,29.86,North,-999,0.0,0.0,92,0.00,,,-99.99,0,WeatherLink 5.4,2013-03-08 08:43:00,
2013-03-08 04:44:00,72.5,70.0,29.86,North,-999,0.0,0.0,92,0.00,,,-99.99,0,WeatherLink 5.4,2013-03-08 08:44:00,
2013-03-08 04:45:00,72.5,70.0,29.86,North,-999,0.0,0.0,92,0.00,,,-99.99,0,WeatherLink 5.4,2013-03-08 08:45:00,
2013-03-08 04:46:00,72.5,70.0,29.86,North,-999,0.0,0.0,92,0.00,,,-99.99,0,WeatherLink 5.4,2013-03-08 08:46:00,
2013-03-08 04:47:00,72.5,70.0,29.86,North,-999,0.0,0.0,92,0.00,,,-99.99,0,WeatherLink 5.4,2013-03-08 08:47:00,
2013-03-08 04:48:00,72.5,70.0,29.86,North,-999,0.0,0.0,92,0.00,,,-99.99,0,WeatherLink 5.4,2013-03-08 08:48:00,
2013-03-08 04:49:00,72.5,70.0,29.86,North,-999,0.0,0.0,92,0.00,,,-99.99,0,WeatherLink 5.4,2013-03-08 08:49:00,
2013-03-08 04:50:00,72.5,70.0,29.86,North,-999,0.0,0.0,92,0.00,,,-99.99,0,WeatherLink 5.4,2013-03-08 08:50:00,
2013-03-08 04:51:00,72.5,70.0,29.86,North,-999,0.0,0.0,92,0.00,,,-99.99,0,WeatherLink 5.4,2013-03-08 08:51:00,
2013-03-08 04:52:00,72.5,70.0,29.86,North,-999,0.0,0.0,92,0.00,,,-99.99,0,WeatherLink 5.4,2013-03-08 08:52:00,
2013-03-08 04:53:00,72.5,70.0,29.86,North,-999,0.0,0.0,92,0.00,,,-99.99,0,WeatherLink 5.4,2013-03-08 08:53:00,
2013-03-08 04:54:00,72.5,70.0,29.86,North,-999,0.0,0.0,92,0.00,,,-99.99,0,WeatherLink 5.4,2013-03-08 08:54:00,
2013-03-08 04:55:00,72.5,70.0,29.86,North,-999,0.0,0.0,92,0.00,,,-99.99,0,WeatherLink 5.4,2013-03-08 08:55:00,
2013-03-08 04:56:00,72.5,70.0,29.86,North,-999,0.0,0.0,92,0.00,,,-99.99,0,WeatherLink 5.4,2013-03-08 08:56:00,
2013-03-08 04:57:00,72.5,70.0,29.86,North,-999,0.0,0.0,92,0.00,,,-99.99,0,WeatherLink 5.4,2013-03-08 08:57:00,
2013-03-08 04:58:00,72.5,70.0,29.86,North,-999,0.0,0.0,92,0.00,,,-99.99,0,WeatherLink 5.4,2013-03-08 08:58:00,
2013-03-08 04:59:00,72.5,70.0,29.86,North,-999,0.0,0.0,92,0.00,,,-99.99,0,WeatherLink 5.4,2013-03-08 08:59:00,
2013-03-08 05:00:00,72.5,70.0,29.86,North,-999,0.0,0.0,92,0.00,,,-99.99,0,WeatherLink 5.4,2013-03-08 09:00:00,
2013-03-08 05:01:00,72.5,70.0,29.86,North,-999,0.0,0.0,92,0.00,,,-99.99,0,WeatherLink 5.4,2013-03-08 09:01:00,
2013-03-08 05:02:00,72.5,70.0,29.86,North,-999,0.0,0.0,92,0.00,,,-99.99,0,WeatherLink 5.4,2013-03-08 09:02:00,
2013-03-08 05:03:00,72.5,70.0,29.86,North,-999,0.0,0.0,92,0.00,,,-99.99,0,WeatherLink 5.4,2013-03-08 09:03:00,
2013-03-08 05:04:00,72.5,70.0,29.86,North,-999,0.0,0.0,92,0.00,,,-99.99,0,WeatherLink 5.4,2013-03-08 09:04:00,
2013-03-08 05:05:00,72.5,70.0,29.86,North,-999,0.0,0.0,92,0.00,,,-99.99,0,WeatherLink 5.4,2013-03-08 09:05:00,
2013-03-08 05:06:00,72.5,70.0,29.86,North,-999,0.0,0.0,92,0.00,,,-99.99,0,WeatherLink 5.4,2013-03-08 09:06:00,
2013-03-08 05:07:00,72.5,70.0,29.86,North,-999,0.0,0.0,92,0.00,,,-99.99,0,WeatherLink 5.4,2013-03-08 09:07:00,
2013-03-08 05:08:00,72.5,70.0,29.86,North,-999,0.0,0.0,92,0.00,,,-99.99,0,WeatherLink 5.4,2013-03-08 09:08:00,
2013-03-08 05:09:00,72.5,70.0,29.86,North,-999,0.0,0.0,92,0.00,,,-99.99,0,WeatherLink 5.4,2013-03-08 09:09:00,
2013-03-08 05:10:00,72.5,70.0,29.86,North,-999,0.0,0.0,92,0.00,,,-99.99,0,WeatherLink 5.4,2013-03-08 09:10:00,
2013-03-08 05:11:00,72.5,70.0,29.86,North,-999,0.0,0.0,92,0.00,,,-99.99,0,WeatherLink 5.4,2013-03-08 09:11:00,
2013-03-08 05:12:00,72.5,70.0,29.86,North,-999,0.0,0.0,92,0.00,,,-99.99,0,WeatherLink 5.4,2013-03-08 09:12:00,
2013-03-08 05:13:00,72.5,70.0,29.86,North,-999,0.0,0.0,92,0.00,,,-99.99,0,WeatherLink 5.4,2013-03-08 09:13:00,
2013-03-08 05:14:00,72.5,70.0,29.86,North,-999,0.0,0.0,92,0.00,,,-99.99,0,WeatherLink 5.4,2013-03-08 09:14:00,
2013-03-08 05:15:00,72.5,70.0,29.86,North,-999,0.0,0.0,92,0.00,,,-99.99,0,WeatherLink 5.4,2013-03-08 09:15:00,
2013-03-08 05:16:00,72.5,70.0,29.86,North,-999,0.0,0.0,92,0.00,,,-99.99,0,WeatherLink 5.4,2013-03-08 09:16:00,
2013-03-08 05:17:00,72.5,70.0,29.86,North,-999,0.0,0.0,92,0.00,,,-99.99,0,WeatherLink 5.4,2013-03-08 09:17:00,
2013-03-08 05:18:00,72.5,70.0,29.86,North,-999,0.0,0.0,92,0.00,,,-99.99,0,WeatherLink 5.4,2013-03-08 09:18:00,
2013-03-08 05:19:00,72.5,70.0,29.86,North,-999,0.0,0.0,92,0.00,,,-99.99,0,WeatherLink 5.4,2013-03-08 09:19:00,
2013-03-08 05:20:00,72.5,70.0,29.86,North,-999,0.0,0.0,92,0.00,,,-99.99,0,WeatherLink 5.4,2013-03-08 09:20:00,
2013-03-08 05:21:00,72.5,70.0,29.86,North,-999,0.0,0.0,92,0.00,,,-99.99,0,WeatherLink 5.4,2013-03-08 09:21:00,
2013-03-08 05:22:00,72.5,70.0,29.86,North,-999,0.0,0.0,92,0.00,,,-99.99,0,WeatherLink 5.4,2013-03-08 09:22:00,
2013-03-08 05:23:00,72.5,70.0,29.86,North,-999,0.0,0.0,92,0.00,,,-99.99,0,WeatherLink 5.4,2013-03-08 09:23:00,
2013-03-08 05:24:00,72.5,70.0,29.86,North,-999,0.0,0.0,92,0.00,,,-99.99,0,WeatherLink 5.4,2013-03-08 09:24:00,
2013-03-08 05:25:00,72.5,70.0,29.86,North,-999,0.0,0.0,92,0.00,,,-99.99,0,WeatherLink 5.4,2013-03-08 09:25:00,
2013-03-08 05:26:00,72.5,70.0,29.86,North,-999,0.0,0.0,92,0.00,,,-99.99,0,WeatherLink 5.4,2013-03-08 09:26:00,
2013-03-08 05:27:00,72.5,70.0,29.86,North,-999,0.0,0.0,92,0.00,,,-99.99,0,WeatherLink 5.4,2013-03-08 09:27:00,
2013-03-08 05:28:00,72.5,70.0,29.86,North,-999,0.0,0.0,92,0.00,,,-99.99,0,WeatherLink 5.4,2013-03-08 09:28:00,
2013-03-08 05:29:00,72.5,70.0,29.86,North,-999,0.0,0.0,92,0.00,,,-99.99,0,WeatherLink 5.4,2013-03-08 09:29:00,
2013-03-08 05:30:00,72.3,69.8,29.86,North,-999,0.0,0.0,92,0.00,,,-99.99,0,WeatherLink 5.4,2013-03-08 09:30:00,
2013-03-08 05:31:00,72.3,69.8,29.86,North,-999,0.0,0.0,92,0.00,,,-99.99,0,WeatherLink 5.4,2013-03-08 09:31:00,
2013-03-08 05:32:00,72.3,69.8,29.86,North,-999,0.0,0.0,92,0.00,,,-99.99,0,WeatherLink 5.4,2013-03-08 09:32:00,
2013-03-08 05:33:00,72.3,69.8,29.86,North,-999,0.0,0.0,92,0.00,,,-99.99,0,WeatherLink 5.4,2013-03-08 09:33:00,
2013-03-08 05:34:00,72.3,69.8,29.86,North,-999,0.0,0.0,92,0.00,,,-99.99,0,WeatherLink 5.4,2013-03-08 09:34:00,
2013-03-08 05:35:00,72.3,69.8,29.86,North,-999,0.0,0.0,92,0.00,,,-99.99,0,WeatherLink 5.4,2013-03-08 09:35:00,
2013-03-08 05:36:00,72.3,69.8,29.86,North,-999,0.0,0.0,92,0.00,,,-99.99,0,WeatherLink 5.4,2013-03-08 09:36:00,
2013-03-08 05:37:00,72.3,69.8,29.86,North,-999,0.0,0.0,92,0.00,,,-99.99,0,WeatherLink 5.4,2013-03-08 09:37:00,
2013-03-08 05:38:00,72.3,69.8,29.86,North,-999,0.0,0.0,92,0.00,,,-99.99,0,WeatherLink 5.4,2013-03-08 09:38:00,
2013-03-08 05:39:00,72.3,69.8,29.86,North,-999,0.0,0.0,92,0.00,,,-99.99,0,WeatherLink 5.4,2013-03-08 09:39:00,
2013-03-08 05:40:00,72.3,69.8,29.86,North,-999,0.0,0.0,92,0.00,,,-99.99,0,WeatherLink 5.4,2013-03-08 09:40:00,
2013-03-08 05:41:00,72.3,69.8,29.86,North,-999,0.0,0.0,92,0.00,,,-99.99,0,WeatherLink 5.4,2013-03-08 09:41:00,
2013-03-08 05:42:00,72.3,69.8,29.86,North,-999,0.0,0.0,92,0.00,,,-99.99,0,WeatherLink 5.4,2013-03-08 09:42:00,
2013-03-08 05:43:00,72.3,69.8,29.86,North,-999,0.0,0.0,92,0.00,,,-99.99,0,WeatherLink 5.4,2013-03-08 09:43:00,
2013-03-08 05:44:00,72.3,69.8,29.86,North,-999,0.0,0.0,92,0.00,,,-99.99,0,WeatherLink 5.4,2013-03-08 09:44:00,
2013-03-08 05:45:00,72.3,69.8,29.87,North,-999,0.0,0.0,92,0.00,,,-99.99,0,WeatherLink 5.4,2013-03-08 09:45:00,
2013-03-08 05:46:00,72.3,69.8,29.87,North,-999,0.0,0.0,92,0.00,,,-99.99,0,WeatherLink 5.4,2013-03-08 09:46:00,
2013-03-08 05:47:00,72.3,69.8,29.87,North,-999,0.0,0.0,92,0.00,,,-99.99,0,WeatherLink 5.4,2013-03-08 09:47:00,
2013-03-08 05:48:00,72.3,69.8,29.87,North,-999,0.0,0.0,92,0.00,,,-99.99,0,WeatherLink 5.4,2013-03-08 09:48:00,
2013-03-08 05:49:00,72.3,69.8,29.87,North,-999,0.0,0.0,92,0.00,,,-99.99,0,WeatherLink 5.4,2013-03-08 09:49:00,
2013-03-08 05:50:00,72.3,69.8,29.87,North,-999,0.0,0.0,92,0.00,,,-99.99,0,WeatherLink 5.4,2013-03-08 09:50:00,
2013-03-08 05:51:00,72.3,69.8,29.87,North,-999,0.0,0.0,92,0.00,,,-99.99,0,WeatherLink 5.4,2013-03-08 09:51:00,
2013-03-08 05:52:00,72.3,69.8,29.87,North,-999,0.0,0.0,92,0.00,,,-99.99,0,WeatherLink 5.4,2013-03-08 09:52:00,
2013-03-08 05:53:00,72.3,69.8,29.87,North,-999,0.0,0.0,92,0.00,,,-99.99,0,WeatherLink 5.4,2013-03-08 09:53:00,
2013-03-08 05:54:00,72.3,69.8,29.87,North,-999,0.0,0.0,92,0.00,,,-99.99,0,WeatherLink 5.4,2013-03-08 09:54:00,
2013-03-08 05:55:00,72.3,69.8,29.87,North,-999,0.0,0.0,92,0.00,,,-99.99,0,WeatherLink 5.4,2013-03-08 09:55:00,
2013-03-08 05:56:00,72.3,69.8,29.87,North,-999,0.0,0.0,92,0.00,,,-99.99,0,WeatherLink 5.4,2013-03-08 09:56:00,
2013-03-08 05:57:00,72.3,69.8,29.87,North,-999,0.0,0.0,92,0.00,,,-99.99,0,WeatherLink 5.4,2013-03-08 09:57:00,
2013-03-08 05:58:00,72.3,69.8,29.87,North,-999,0.0,0.0,92,0.00,,,-99.99,0,WeatherLink 5.4,2013-03-08 09:58:00,
2013-03-08 05:59:00,72.3,69.8,29.87,North,-999,0.0,0.0,92,0.00,,,-99.99,0,WeatherLink 5.4,2013-03-08 09:59:00,
2013-03-08 06:00:00,72.3,69.8,29.87,North,-999,0.0,0.0,92,0.00,,,-99.99,0,WeatherLink 5.4,2013-03-08 10:00:00,
2013-03-08 06:01:00,72.3,69.8,29.87,North,-999,0.0,0.0,92,0.00,,,-99.99,0,WeatherLink 5.4,2013-03-08 10:01:00,
2013-03-08 06:02:00,72.3,69.8,29.87,North,-999,0.0,0.0,92,0.00,,,-99.99,0,WeatherLink 5.4,2013-03-08 10:02:00,
2013-03-08 06:03:00,72.3,69.8,29.87,North,-999,0.0,0.0,92,0.00,,,-99.99,0,WeatherLink 5.4,2013-03-08 10:03:00,
2013-03-08 06:04:00,72.3,69.8,29.87,North,-999,0.0,0.0,92,0.00,,,-99.99,0,WeatherLink 5.4,2013-03-08 10:04:00,
2013-03-08 06:05:00,72.3,69.8,29.87,North,-999,0.0,0.0,92,0.00,,,-99.99,0,WeatherLink 5.4,2013-03-08 10:05:00,
2013-03-08 06:06:00,72.3,69.8,29.87,North,-999,0.0,0.0,92,0.00,,,-99.99,0,WeatherLink 5.4,2013-03-08 10:06:00,
2013-03-08 06:07:00,72.3,69.8,29.87,North,-999,0.0,0.0,92,0.00,,,-99.99,0,WeatherLink 5.4,2013-03-08 10:07:00,
2013-03-08 06:08:00,72.3,69.8,29.87,North,-999,0.0,0.0,92,0.00,,,-99.99,0,WeatherLink 5.4,2013-03-08 10:08:00,
2013-03-08 06:09:00,72.3,69.8,29.87,North,-999,0.0,0.0,92,0.00,,,-99.99,0,WeatherLink 5.4,2013-03-08 10:09:00,
2013-03-08 06:10:00,72.3,69.8,29.87,North,-999,0.0,0.0,92,0.00,,,-99.99,0,WeatherLink 5.4,2013-03-08 10:10:00,
2013-03-08 06:11:00,72.3,69.8,29.87,North,-999,0.0,0.0,92,0.00,,,-99.99,0,WeatherLink 5.4,2013-03-08 10:11:00,
2013-03-08 06:12:00,72.3,69.8,29.87,North,-999,0.0,0.0,92,0.00,,,-99.99,0,WeatherLink 5.4,2013-03-08 10:12:00,
2013-03-08 06:13:00,72.3,69.8,29.87,North,-999,0.0,0.0,92,0.00,,,-99.99,0,WeatherLink 5.4,2013-03-08 10:13:00,
2013-03-08 06:14:00,72.3,69.8,29.87,North,-999,0.0,0.0,92,0.00,,,-99.99,0,WeatherLink 5.4,2013-03-08 10:14:00,
2013-03-08 06:15:00,72.3,69.8,29.88,North,-999,0.0,0.0,92,0.00,,,-99.99,0,WeatherLink 5.4,2013-03-08 10:15:00,
2013-03-08 06:16:00,72.3,69.8,29.88,North,-999,0.0,0.0,92,0.00,,,-99.99,0,WeatherLink 5.4,2013-03-08 10:16:00,
2013-03-08 06:17:00,72.3,69.8,29.88,North,-999,0.0,0.0,92,0.00,,,-99.99,0,WeatherLink 5.4,2013-03-08 10:17:00,
2013-03-08 06:18:00,72.3,69.8,29.88,North,-999,0.0,0.0,92,0.00,,,-99.99,0,WeatherLink 5.4,2013-03-08 10:18:00,
2013-03-08 06:19:00,72.3,69.8,29.88,North,-999,0.0,0.0,92,0.00,,,-99.99,0,WeatherLink 5.4,2013-03-08 10:19:00,
2013-03-08 06:20:00,72.3,69.8,29.88,North,-999,0.0,0.0,92,0.00,,,-99.99,0,WeatherLink 5.4,2013-03-08 10:20:00,
2013-03-08 06:21:00,72.3,70.2,29.88,North,-999,0.0,0.0,93,0.00,,,-99.99,0,WeatherLink 5.4,2013-03-08 10:21:00,
2013-03-08 06:22:00,72.3,70.2,29.88,North,-999,0.0,0.0,93,0.00,,,-99.99,0,WeatherLink 5.4,2013-03-08 10:22:00,
2013-03-08 06:23:00,72.3,70.2,29.88,North,-999,0.0,0.0,93,0.00,,,-99.99,0,WeatherLink 5.4,2013-03-08 10:23:00,
2013-03-08 06:24:00,72.3,70.2,29.88,North,-999,0.0,0.0,93,0.00,,,-99.99,0,WeatherLink 5.4,2013-03-08 10:24:00,
2013-03-08 06:25:00,72.3,70.2,29.88,North,-999,0.0,0.0,93,0.00,,,-99.99,0,WeatherLink 5.4,2013-03-08 10:25:00,
2013-03-08 06:26:00,72.3,70.2,29.88,North,-999,0.0,0.0,93,0.00,,,-99.99,0,WeatherLink 5.4,2013-03-08 10:26:00,
2013-03-08 06:27:00,72.3,70.2,29.88,North,-999,0.0,0.0,93,0.00,,,-99.99,0,WeatherLink 5.4,2013-03-08 10:27:00,
2013-03-08 06:28:00,72.3,70.2,29.88,North,-999,0.0,0.0,93,0.00,,,-99.99,0,WeatherLink 5.4,2013-03-08 10:28:00,
2013-03-08 06:29:00,72.3,70.2,29.88,North,-999,0.0,0.0,93,0.00,,,-99.99,0,WeatherLink 5.4,2013-03-08 10:29:00,
2013-03-08 06:30:00,72.3,70.2,29.88,North,-999,0.0,0.0,93,0.00,,,-99.99,0,WeatherLink 5.4,2013-03-08 10:30:00,
2013-03-08 06:31:00,72.3,70.2,29.88,North,-999,0.0,0.0,93,0.00,,,-99.99,0,WeatherLink 5.4,2013-03-08 10:31:00,
2013-03-08 06:32:00,72.3,70.2,29.88,North,-999,0.0,0.0,93,0.00,,,-99.99,0,WeatherLink 5.4,2013-03-08 10:32:00,
2013-03-08 06:33:00,72.3,70.2,29.88,North,-999,0.0,0.0,93,0.00,,,-99.99,0,WeatherLink 5.4,2013-03-08 10:33:00,
2013-03-08 06:34:00,72.3,70.2,29.88,North,-999,0.0,0.0,93,0.00,,,-99.99,0,WeatherLink 5.4,2013-03-08 10:34:00,
2013-03-08 06:35:00,72.3,70.2,29.88,North,-999,0.0,0.0,93,0.00,,,-99.99,0,WeatherLink 5.4,2013-03-08 10:35:00,
2013-03-08 06:36:00,72.3,70.2,29.88,North,-999,0.0,0.0,93,0.00,,,-99.99,0,WeatherLink 5.4,2013-03-08 10:36:00,
2013-03-08 06:37:00,72.3,70.2,29.88,North,-999,0.0,0.0,93,0.00,,,-99.99,0,WeatherLink 5.4,2013-03-08 10:37:00,
2013-03-08 06:38:00,72.3,70.2,29.88,North,-999,0.0,0.0,93,0.00,,,-99.99,0,WeatherLink 5.4,2013-03-08 10:38:00,
2013-03-08 06:39:00,72.3,70.2,29.88,North,-999,0.0,0.0,93,0.00,,,-99.99,0,WeatherLink 5.4,2013-03-08 10:39:00,
2013-03-08 06:40:00,72.3,70.2,29.88,North,-999,0.0,0.0,93,0.00,,,-99.99,0,WeatherLink 5.4,2013-03-08 10:40:00,
2013-03-08 06:41:00,72.3,70.2,29.88,North,-999,0.0,0.0,93,0.00,,,-99.99,0,WeatherLink 5.4,2013-03-08 10:41:00,
2013-03-08 06:42:00,72.3,70.2,29.88,North,-999,0.0,0.0,93,0.00,,,-99.99,0,WeatherLink 5.4,2013-03-08 10:42:00,
2013-03-08 06:43:00,72.3,70.2,29.88,North,-999,0.0,0.0,93,0.00,,,-99.99,0,WeatherLink 5.4,2013-03-08 10:43:00,
2013-03-08 06:44:00,72.3,70.2,29.88,North,-999,0.0,0.0,93,0.00,,,-99.99,3,WeatherLink 5.4,2013-03-08 10:44:00,
2013-03-08 06:45:00,72.3,70.2,29.89,North,-999,0.0,0.0,93,0.00,,,-99.99,5,WeatherLink 5.4,2013-03-08 10:45:00,
2013-03-08 06:46:00,72.3,70.2,29.89,North,-999,0.0,0.0,93,0.00,,,-99.99,5,WeatherLink 5.4,2013-03-08 10:46:00,
2013-03-08 06:47:00,72.3,70.2,29.89,North,-999,0.0,0.0,93,0.00,,,-99.99,5,WeatherLink 5.4,2013-03-08 10:47:00,
2013-03-08 06:48:00,72.3,70.2,29.89,North,-999,0.0,0.0,93,0.00,,,-99.99,5,WeatherLink 5.4,2013-03-08 10:48:00,
2013-03-08 06:49:00,72.3,70.2,29.89,North,-999,0.0,0.0,93,0.00,,,-99.99,7,WeatherLink 5.4,2013-03-08 10:49:00,
2013-03-08 06:50:00,72.3,70.2,29.89,North,-999,0.0,0.0,93,0.00,,,-99.99,7,WeatherLink 5.4,2013-03-08 10:50:00,
2013-03-08 06:51:00,72.3,70.2,29.89,North,-999,0.0,0.0,93,0.00,,,-99.99,9,WeatherLink 5.4,2013-03-08 10:51:00,
2013-03-08 06:52:00,72.3,70.2,29.89,North,-999,0.0,0.0,93,0.00,,,-99.99,9,WeatherLink 5.4,2013-03-08 10:52:00,
2013-03-08 06:53:00,72.3,70.2,29.89,North,-999,0.0,0.0,93,0.00,,,-99.99,9,WeatherLink 5.4,2013-03-08 10:53:00,
2013-03-08 06:54:00,72.3,70.2,29.89,North,-999,0.0,0.0,93,0.00,,,-99.99,11,WeatherLink 5.4,2013-03-08 10:54:00,
2013-03-08 06:55:00,72.3,70.2,29.89,North,-999,0.0,0.0,93,0.00,,,-99.99,11,WeatherLink 5.4,2013-03-08 10:55:00,
2013-03-08 06:56:00,72.3,70.2,29.89,North,-999,0.0,0.0,93,0.00,,,-99.99,12,WeatherLink 5.4,2013-03-08 10:56:00,
2013-03-08 06:57:00,72.3,70.2,29.89,North,-999,0.0,0.0,93,0.00,,,-99.99,12,WeatherLink 5.4,2013-03-08 10:57:00,
2013-03-08 06:58:00,72.3,70.2,29.89,North,-999,0.0,0.0,93,0.00,,,-99.99,14,WeatherLink 5.4,2013-03-08 10:58:00,
2013-03-08 06:59:00,72.3,70.2,29.89,North,-999,0.0,0.0,93,0.00,,,-99.99,15,WeatherLink 5.4,2013-03-08 10:59:00,
2013-03-08 07:00:00,72.3,70.2,29.89,North,-999,0.0,0.0,93,0.00,,,-99.99,16,WeatherLink 5.4,2013-03-08 11:00:00,
2013-03-08 07:01:00,72.4,70.3,29.89,North,-999,0.0,0.0,93,0.00,,,-99.99,18,WeatherLink 5.4,2013-03-08 11:01:00,
2013-03-08 07:02:00,72.5,70.4,29.89,North,-999,0.0,0.0,93,0.00,,,-99.99,19,WeatherLink 5.4,2013-03-08 11:02:00,
2013-03-08 07:03:00,72.5,70.4,29.89,North,-999,0.0,0.0,93,0.00,,,-99.99,19,WeatherLink 5.4,2013-03-08 11:03:00,
2013-03-08 07:04:00,72.5,70.4,29.89,North,-999,0.0,0.0,93,0.00,,,-99.99,22,WeatherLink 5.4,2013-03-08 11:04:00,
2013-03-08 07:05:00,72.5,70.4,29.89,North,-999,0.0,0.0,93,0.00,,,-99.99,26,WeatherLink 5.4,2013-03-08 11:05:00,
2013-03-08 07:06:00,72.5,70.4,29.89,North,-999,0.0,0.0,93,0.00,,,-99.99,28,WeatherLink 5.4,2013-03-08 11:06:00,
2013-03-08 07:07:00,72.5,70.4,29.89,North,-999,0.0,0.0,93,0.00,,,-99.99,32,WeatherLink 5.4,2013-03-08 11:07:00,
2013-03-08 07:08:00,72.5,70.4,29.89,North,-999,0.0,0.0,93,0.00,,,-99.99,33,WeatherLink 5.4,2013-03-08 11:08:00,
2013-03-08 07:09:00,72.5,70.4,29.89,North,-999,0.0,0.0,93,0.00,,,-99.99,38,WeatherLink 5.4,2013-03-08 11:09:00,
2013-03-08 07:10:00,72.5,70.4,29.89,North,-999,0.0,0.0,93,0.00,,,-99.99,42,WeatherLink 5.4,2013-03-08 11:10:00,
2013-03-08 07:11:00,72.5,70.4,29.89,North,-999,0.0,0.0,93,0.00,,,-99.99,44,WeatherLink 5.4,2013-03-08 11:11:00,
2013-03-08 07:12:00,72.5,70.4,29.89,North,-999,0.0,0.0,93,0.00,,,-99.99,46,WeatherLink 5.4,2013-03-08 11:12:00,
2013-03-08 07:13:00,72.5,70.4,29.89,North,-999,0.0,0.0,93,0.00,,,-99.99,48,WeatherLink 5.4,2013-03-08 11:13:00,
2013-03-08 07:14:00,72.5,70.4,29.89,North,-999,0.0,0.0,93,0.00,,,-99.99,50,WeatherLink 5.4,2013-03-08 11:14:00,
2013-03-08 07:15:00,72.5,70.4,29.90,North,-999,0.0,0.0,93,0.00,,,-99.99,53,WeatherLink 5.4,2013-03-08 11:15:00,
2013-03-08 07:16:00,72.5,70.4,29.90,North,-999,0.0,0.0,93,0.00,,,-99.99,53,WeatherLink 5.4,2013-03-08 11:16:00,
2013-03-08 07:17:00,72.5,70.4,29.90,North,-999,0.0,0.0,93,0.00,,,-99.99,53,WeatherLink 5.4,2013-03-08 11:17:00,
2013-03-08 07:18:00,72.5,70.4,29.90,North,-999,0.0,0.0,93,0.00,,,-99.99,55,WeatherLink 5.4,2013-03-08 11:18:00,
2013-03-08 07:19:00,72.5,70.4,29.90,North,-999,0.0,0.0,93,0.00,,,-99.99,56,WeatherLink 5.4,2013-03-08 11:19:00,
2013-03-08 07:20:00,72.5,70.4,29.90,West,270,0.0,1.0,93,0.00,,,-99.99,55,WeatherLink 5.4,2013-03-08 11:20:00,
2013-03-08 07:21:00,72.5,70.4,29.90,North,-999,0.0,0.0,93,0.00,,,-99.99,56,WeatherLink 5.4,2013-03-08 11:21:00,
2013-03-08 07:22:00,72.5,70.4,29.90,North,-999,0.0,0.0,93,0.00,,,-99.99,60,WeatherLink 5.4,2013-03-08 11:22:00,
2013-03-08 07:23:00,72.5,70.4,29.90,North,-999,0.0,0.0,93,0.00,,,-99.99,65,WeatherLink 5.4,2013-03-08 11:23:00,
2013-03-08 07:24:00,72.5,70.4,29.90,North,-999,0.0,0.0,93,0.00,,,-99.99,73,WeatherLink 5.4,2013-03-08 11:24:00,
2013-03-08 07:25:00,72.5,70.4,29.90,North,-999,0.0,0.0,93,0.00,,,-99.99,79,WeatherLink 5.4,2013-03-08 11:25:00,
2013-03-08 07:26:00,72.5,70.4,29.90,North,-999,0.0,0.0,93,0.00,,,-99.99,81,WeatherLink 5.4,2013-03-08 11:26:00,
2013-03-08 07:27:00,72.5,70.4,29.90,North,-999,0.0,0.0,93,0.00,,,-99.99,81,WeatherLink 5.4,2013-03-08 11:27:00,
2013-03-08 07:28:00,72.5,70.4,29.90,North,-999,0.0,0.0,93,0.00,,,-99.99,79,WeatherLink 5.4,2013-03-08 11:28:00,
2013-03-08 07:29:00,72.5,70.4,29.90,North,-999,0.0,0.0,93,0.00,,,-99.99,106,WeatherLink 5.4,2013-03-08 11:29:00,
2013-03-08 07:30:00,72.5,70.4,29.91,North,-999,0.0,0.0,93,0.00,,,-99.99,102,WeatherLink 5.4,2013-03-08 11:30:00,
2013-03-08 07:31:00,72.5,70.4,29.91,North,-999,0.0,0.0,93,0.00,,,-99.99,60,WeatherLink 5.4,2013-03-08 11:31:00,
2013-03-08 07:32:00,72.5,70.4,29.91,North,-999,0.0,0.0,93,0.00,,,-99.99,65,WeatherLink 5.4,2013-03-08 11:32:00,
2013-03-08 07:33:00,72.5,70.4,29.91,North,-999,0.0,0.0,93,0.00,,,-99.99,93,WeatherLink 5.4,2013-03-08 11:33:00,
2013-03-08 07:34:00,72.5,70.4,29.91,North,-999,0.0,0.0,93,0.00,,,-99.99,58,WeatherLink 5.4,2013-03-08 11:34:00,
2013-03-08 07:35:00,72.6,70.5,29.91,North,-999,0.0,0.0,93,0.00,,,-99.99,51,WeatherLink 5.4,2013-03-08 11:35:00,
2013-03-08 07:36:00,72.7,70.6,29.91,North,-999,0.0,0.0,93,0.00,,,-99.99,53,WeatherLink 5.4,2013-03-08 11:36:00,
2013-03-08 07:37:00,72.7,70.6,29.91,North,-999,0.0,0.0,93,0.00,,,-99.99,55,WeatherLink 5.4,2013-03-08 11:37:00,
2013-03-08 07:38:00,72.7,70.6,29.91,North,-999,0.0,0.0,93,0.00,,,-99.99,56,WeatherLink 5.4,2013-03-08 11:38:00,
2013-03-08 07:39:00,72.7,70.6,29.91,North,-999,0.0,0.0,93,0.00,,,-99.99,82,WeatherLink 5.4,2013-03-08 11:39:00,
2013-03-08 07:40:00,72.7,70.6,29.91,North,-999,0.0,0.0,93,0.00,,,-99.99,60,WeatherLink 5.4,2013-03-08 11:40:00,
2013-03-08 07:41:00,72.7,70.6,29.91,North,-999,0.0,0.0,93,0.00,,,-99.99,67,WeatherLink 5.4,2013-03-08 11:41:00,
2013-03-08 07:42:00,72.7,70.6,29.91,North,-999,0.0,0.0,93,0.00,,,-99.99,55,WeatherLink 5.4,2013-03-08 11:42:00,
2013-03-08 07:43:00,72.7,70.6,29.91,North,-999,0.0,0.0,93,0.00,,,-99.99,56,WeatherLink 5.4,2013-03-08 11:43:00,
2013-03-08 07:44:00,72.7,70.6,29.91,North,-999,0.0,0.0,93,0.00,,,-99.99,51,WeatherLink 5.4,2013-03-08 11:44:00,
2013-03-08 07:45:00,72.7,70.6,29.91,North,-999,0.0,0.0,93,0.00,,,-99.99,55,WeatherLink 5.4,2013-03-08 11:45:00,
2013-03-08 07:46:00,72.7,70.6,29.91,North,-999,0.0,0.0,93,0.00,,,-99.99,60,WeatherLink 5.4,2013-03-08 11:46:00,
2013-03-08 07:47:00,72.8,70.7,29.91,North,-999,0.0,0.0,93,0.00,,,-99.99,56,WeatherLink 5.4,2013-03-08 11:47:00,
2013-03-08 07:48:00,72.8,70.7,29.91,North,-999,0.0,0.0,93,0.00,,,-99.99,56,WeatherLink 5.4,2013-03-08 11:48:00,
2013-03-08 07:49:00,72.8,70.7,29.91,North,-999,0.0,0.0,93,0.00,,,-99.99,59,WeatherLink 5.4,2013-03-08 11:49:00,
2013-03-08 07:50:00,72.8,70.7,29.91,North,-999,0.0,0.0,93,0.00,,,-99.99,63,WeatherLink 5.4,2013-03-08 11:50:00,
2013-03-08 07:51:00,72.8,70.7,29.91,North,-999,0.0,0.0,93,0.00,,,-99.99,69,WeatherLink 5.4,2013-03-08 11:51:00,
2013-03-08 07:52:00,72.8,70.7,29.91,North,-999,0.0,0.0,93,0.00,,,-99.99,74,WeatherLink 5.4,2013-03-08 11:52:00,
2013-03-08 07:53:00,72.8,70.7,29.91,North,-999,0.0,0.0,93,0.00,,,-99.99,83,WeatherLink 5.4,2013-03-08 11:53:00,
2013-03-08 07:54:00,72.8,70.7,29.91,North,-999,0.0,0.0,93,0.00,,,-99.99,102,WeatherLink 5.4,2013-03-08 11:54:00,
2013-03-08 07:55:00,72.8,70.7,29.91,North,-999,0.0,0.0,93,0.00,,,-99.99,121,WeatherLink 5.4,2013-03-08 11:55:00,
2013-03-08 07:56:00,72.8,70.7,29.91,North,-999,0.0,0.0,93,0.00,,,-99.99,134,WeatherLink 5.4,2013-03-08 11:56:00,
2013-03-08 07:57:00,72.8,70.7,29.91,North,-999,0.0,0.0,93,0.00,,,-99.99,143,WeatherLink 5.4,2013-03-08 11:57:00,
2013-03-08 07:58:00,72.8,70.7,29.91,North,-999,0.0,0.0,93,0.00,,,-99.99,153,WeatherLink 5.4,2013-03-08 11:58:00,
2013-03-08 07:59:00,72.8,70.7,29.91,North,-999,0.0,0.0,93,0.00,,,-99.99,153,WeatherLink 5.4,2013-03-08 11:59:00,
2013-03-08 08:00:00,72.8,70.7,29.92,North,-999,0.0,0.0,93,0.00,,,-99.99,289,WeatherLink 5.4,2013-03-08 12:00:00,
2013-03-08 08:01:00,72.8,70.7,29.92,North,-999,0.0,0.0,93,0.00,,,-99.99,301,WeatherLink 5.4,2013-03-08 12:01:00,
2013-03-08 08:02:00,72.9,70.8,29.92,North,-999,0.0,0.0,93,0.00,,,-99.99,278,WeatherLink 5.4,2013-03-08 12:02:00,
2013-03-08 08:03:00,73.0,70.9,29.92,North,-999,0.0,0.0,93,0.00,,,-99.99,299,WeatherLink 5.4,2013-03-08 12:03:00,
2013-03-08 08:04:00,73.0,70.9,29.92,North,-999,0.0,0.0,93,0.00,,,-99.99,315,WeatherLink 5.4,2013-03-08 12:04:00,
2013-03-08 08:05:00,73.0,70.9,29.92,North,-999,0.0,0.0,93,0.00,,,-99.99,313,WeatherLink 5.4,2013-03-08 12:05:00,
2013-03-08 08:06:00,73.0,70.9,29.92,North,-999,0.0,0.0,93,0.00,,,-99.99,331,WeatherLink 5.4,2013-03-08 12:06:00,
2013-03-08 08:07:00,73.2,71.1,29.92,North,-999,0.0,0.0,93,0.00,,,-99.99,333,WeatherLink 5.4,2013-03-08 12:07:00,
2013-03-08 08:08:00,73.2,71.1,29.92,North,-999,0.0,0.0,93,0.00,,,-99.99,348,WeatherLink 5.4,2013-03-08 12:08:00,
2013-03-08 08:09:00,73.2,71.1,29.92,North,-999,0.0,0.0,93,0.00,,,-99.99,289,WeatherLink 5.4,2013-03-08 12:09:00,
2013-03-08 08:10:00,73.2,71.1,29.92,North,-999,0.0,0.0,93,0.00,,,-99.99,264,WeatherLink 5.4,2013-03-08 12:10:00,
2013-03-08 08:11:00,73.3,71.2,29.92,North,-999,0.0,0.0,93,0.00,,,-99.99,287,WeatherLink 5.4,2013-03-08 12:11:00,
2013-03-08 08:12:00,73.3,71.2,29.92,North,-999,0.0,0.0,93,0.00,,,-99.99,264,WeatherLink 5.4,2013-03-08 12:12:00,
2013-03-08 08:13:00,73.3,71.2,29.92,North,-999,0.0,0.0,93,0.00,,,-99.99,255,WeatherLink 5.4,2013-03-08 12:13:00,
2013-03-08 08:14:00,73.3,71.2,29.92,North,-999,0.0,0.0,93,0.00,,,-99.99,255,WeatherLink 5.4,2013-03-08 12:14:00,
2013-03-08 08:15:00,73.3,71.2,29.92,North,-999,0.0,0.0,93,0.00,,,-99.99,410,WeatherLink 5.4,2013-03-08 12:15:00,
2013-03-08 08:16:00,73.3,71.2,29.92,North,-999,0.0,0.0,93,0.00,,,-99.99,433,WeatherLink 5.4,2013-03-08 12:16:00,
2013-03-08 08:17:00,73.3,71.2,29.92,North,-999,0.0,0.0,93,0.00,,,-99.99,433,WeatherLink 5.4,2013-03-08 12:17:00,
2013-03-08 08:18:00,73.3,71.2,29.92,North,-999,0.0,0.0,93,0.00,,,-99.99,340,WeatherLink 5.4,2013-03-08 12:18:00,
2013-03-08 08:19:00,73.3,71.2,29.92,North,-999,0.0,0.0,93,0.00,,,-99.99,279,WeatherLink 5.4,2013-03-08 12:19:00,
2013-03-08 08:20:00,73.3,71.2,29.92,North,-999,0.0,0.0,93,0.00,,,-99.99,253,WeatherLink 5.4,2013-03-08 12:20:00,
2013-03-08 08:21:00,73.3,71.2,29.92,North,-999,0.0,0.0,93,0.00,,,-99.99,253,WeatherLink 5.4,2013-03-08 12:21:00,
2013-03-08 08:22:00,73.5,71.4,29.92,North,-999,0.0,0.0,93,0.00,,,-99.99,253,WeatherLink 5.4,2013-03-08 12:22:00,
2013-03-08 08:23:00,73.5,71.4,29.92,North,-999,0.0,0.0,93,0.00,,,-99.99,253,WeatherLink 5.4,2013-03-08 12:23:00,
2013-03-08 08:24:00,73.5,71.4,29.92,North,-999,0.0,0.0,93,0.00,,,-99.99,253,WeatherLink 5.4,2013-03-08 12:24:00,
2013-03-08 08:25:00,73.7,71.5,29.92,North,-999,0.0,0.0,93,0.00,,,-99.99,253,WeatherLink 5.4,2013-03-08 12:25:00,
2013-03-08 08:26:00,73.8,71.6,29.92,North,-999,0.0,0.0,93,0.00,,,-99.99,417,WeatherLink 5.4,2013-03-08 12:26:00,
2013-03-08 08:27:00,73.9,71.7,29.92,North,-999,0.0,0.0,93,0.00,,,-99.99,417,WeatherLink 5.4,2013-03-08 12:27:00,
2013-03-08 08:28:00,73.9,71.7,29.92,North,-999,0.0,0.0,93,0.00,,,-99.99,417,WeatherLink 5.4,2013-03-08 12:28:00,
2013-03-08 08:29:00,74.0,71.8,29.92,North,-999,0.0,0.0,93,0.00,,,-99.99,179,WeatherLink 5.4,2013-03-08 12:29:00,
2013-03-08 08:30:00,74.0,71.8,29.92,North,-999,0.0,0.0,93,0.00,,,-99.99,172,WeatherLink 5.4,2013-03-08 12:30:00,
2013-03-08 08:31:00,74.0,71.5,29.92,North,-999,0.0,0.0,92,0.00,,,-99.99,171,WeatherLink 5.4,2013-03-08 12:31:00,
2013-03-08 08:32:00,74.0,71.5,29.92,North,-999,0.0,0.0,92,0.00,,,-99.99,172,WeatherLink 5.4,2013-03-08 12:32:00,
2013-03-08 08:33:00,73.9,71.4,29.92,North,-999,0.0,0.0,92,0.00,,,-99.99,172,WeatherLink 5.4,2013-03-08 12:33:00,
2013-03-08 08:34:00,74.0,71.5,29.92,North,-999,0.0,0.0,92,0.00,,,-99.99,421,WeatherLink 5.4,2013-03-08 12:34:00,
2013-03-08 08:35:00,74.0,71.5,29.92,North,-999,0.0,0.0,92,0.00,,,-99.99,144,WeatherLink 5.4,2013-03-08 12:35:00,
2013-03-08 08:36:00,74.0,-99.9,29.92,North,-999,0.0,0.0,-999,0.00,,,-99.99,139,WeatherLink 5.4,2013-03-08 12:36:00,
2013-03-08 08:37:00,74.0,-99.9,29.92,North,-999,0.0,0.0,-999,0.00,,,-99.99,137,WeatherLink 5.4,2013-03-08 12:37:00,
2013-03-08 08:38:00,74.0,71.5,29.92,North,-999,0.0,0.0,92,0.00,,,-99.99,135,WeatherLink 5.4,2013-03-08 12:38:00,
2013-03-08 08:39:00,74.0,71.5,29.92,North,-999,0.0,0.0,92,0.00,,,-99.99,136,WeatherLink 5.4,2013-03-08 12:39:00,
2013-03-08 08:40:00,74.1,71.6,29.92,North,-999,0.0,0.0,92,0.00,,,-99.99,139,WeatherLink 5.4,2013-03-08 12:40:00,
2013-03-08 08:41:00,74.2,-99.9,29.92,North,-999,0.0,0.0,-999,0.00,,,-99.99,141,WeatherLink 5.4,2013-03-08 12:41:00,
2013-03-08 08:42:00,74.2,-99.9,29.92,West,270,0.0,1.0,-999,0.00,,,-99.99,144,WeatherLink 5.4,2013-03-08 12:42:00,
2013-03-08 08:43:00,74.0,-99.9,29.92,North,-999,0.0,0.0,-999,0.00,,,-99.99,144,WeatherLink 5.4,2013-03-08 12:43:00,
2013-03-08 08:44:00,74.0,71.5,29.92,North,-999,0.0,0.0,92,0.00,,,-99.99,137,WeatherLink 5.4,2013-03-08 12:44:00,
2013-03-08 08:45:00,74.0,71.5,29.93,North,-999,0.0,0.0,92,0.00,,,-99.99,130,WeatherLink 5.4,2013-03-08 12:45:00,
2013-03-08 08:46:00,74.0,71.5,29.93,North,-999,0.0,0.0,92,0.00,,,-99.99,132,WeatherLink 5.4,2013-03-08 12:46:00,
2013-03-08 08:47:00,74.0,71.2,29.93,North,-999,0.0,0.0,91,0.00,,,-99.99,132,WeatherLink 5.4,2013-03-08 12:47:00,
2013-03-08 08:48:00,74.0,-99.9,29.93,North,-999,0.0,0.0,-999,0.00,,,-99.99,132,WeatherLink 5.4,2013-03-08 12:48:00,
2013-03-08 08:49:00,74.0,71.2,29.93,North,-999,0.0,0.0,91,0.00,,,-99.99,144,WeatherLink 5.4,2013-03-08 12:49:00,
2013-03-08 08:50:00,74.0,71.5,29.93,North,-999,0.0,0.0,92,0.00,,,-99.99,153,WeatherLink 5.4,2013-03-08 12:50:00,
2013-03-08 08:51:00,74.0,-99.9,29.93,North,-999,0.0,0.0,-999,0.00,,,-99.99,157,WeatherLink 5.4,2013-03-08 12:51:00,
2013-03-08 08:52:00,74.0,-99.9,29.93,North,-999,0.0,0.0,-999,0.00,,,-99.99,151,WeatherLink 5.4,2013-03-08 12:52:00,
2013-03-08 08:53:00,74.2,-99.9,29.93,North,-999,0.0,0.0,-999,0.00,,,-99.99,144,WeatherLink 5.4,2013-03-08 12:53:00,
2013-03-08 08:54:00,74.2,62.5,29.93,North,-999,0.0,0.0,67,0.00,,,-99.99,137,WeatherLink 5.4,2013-03-08 12:54:00,
2013-03-08 08:55:00,74.2,-99.9,29.93,West,270,0.0,1.0,-999,0.00,,,-99.99,146,WeatherLink 5.4,2013-03-08 12:55:00,
2013-03-08 08:56:00,74.2,-99.9,29.93,North,-999,0.0,0.0,-999,0.00,,,-99.99,150,WeatherLink 5.4,2013-03-08 12:56:00,
2013-03-08 08:57:00,74.2,-99.9,29.93,North,-999,0.0,0.0,-999,0.00,,,-99.99,144,WeatherLink 5.4,2013-03-08 12:57:00,
2013-03-08 08:58:00,74.2,-99.9,29.93,North,-999,0.0,0.0,-999,0.00,,,-99.99,139,WeatherLink 5.4,2013-03-08 12:58:00,
2013-03-08 08:59:00,74.2,61.2,29.93,North,-999,0.0,0.0,64,0.00,,,-99.99,137,WeatherLink 5.4,2013-03-08 12:59:00,
2013-03-08 09:00:00,74.2,-99.9,29.94,North,-999,0.0,0.0,-999,0.00,,,-99.99,139,WeatherLink 5.4,2013-03-08 13:00:00,
2013-03-08 09:01:00,74.2,-99.9,29.94,North,-999,0.0,0.0,-999,0.00,,,-99.99,143,WeatherLink 5.4,2013-03-08 13:01:00,
2013-03-08 09:02:00,74.2,-99.9,29.94,North,-999,0.0,0.0,-999,0.00,,,-99.99,146,WeatherLink 5.4,2013-03-08 13:02:00,
2013-03-08 09:03:00,74.2,71.4,29.94,North,-999,0.0,0.0,91,0.00,,,-99.99,158,WeatherLink 5.4,2013-03-08 13:03:00,
2013-03-08 09:04:00,74.2,-99.9,29.94,North,-999,0.0,0.0,-999,0.00,,,-99.99,147,WeatherLink 5.4,2013-03-08 13:04:00,
2013-03-08 09:05:00,74.4,-99.9,29.94,North,-999,0.0,0.0,-999,0.00,,,-99.99,137,WeatherLink 5.4,2013-03-08 13:05:00,
2013-03-08 09:06:00,74.4,71.3,29.94,North,-999,0.0,0.0,90,0.00,,,-99.99,132,WeatherLink 5.4,2013-03-08 13:06:00,
2013-03-08 09:07:00,74.4,71.3,29.94,North,-999,0.0,0.0,90,0.00,,,-99.99,127,WeatherLink 5.4,2013-03-08 13:07:00,
2013-03-08 09:08:00,74.4,71.3,29.94,North,-999,0.0,0.0,90,0.00,,,-99.99,121,WeatherLink 5.4,2013-03-08 13:08:00,
2013-03-08 09:09:00,74.4,-99.9,29.94,North,-999,0.0,0.0,-999,0.00,,,-99.99,124,WeatherLink 5.4,2013-03-08 13:09:00,
2013-03-08 09:10:00,74.4,61.0,29.94,North,-999,0.0,0.0,63,0.00,,,-99.99,116,WeatherLink 5.4,2013-03-08 13:10:00,
2013-03-08 09:11:00,74.4,61.0,29.94,North,-999,0.0,0.0,63,0.00,,,-99.99,114,WeatherLink 5.4,2013-03-08 13:11:00,
2013-03-08 09:12:00,74.4,61.0,29.94,North,-999,0.0,0.0,63,0.00,,,-99.99,109,WeatherLink 5.4,2013-03-08 13:12:00,
2013-03-08 09:13:00,74.4,-99.9,29.94,North,-999,0.0,0.0,-999,0.00,,,-99.99,106,WeatherLink 5.4,2013-03-08 13:13:00,
2013-03-08 09:14:00,74.4,71.3,29.94,North,-999,0.0,0.0,90,0.00,,,-99.99,103,WeatherLink 5.4,2013-03-08 13:14:00,
2013-03-08 09:15:00,74.4,71.3,29.94,North,-999,0.0,0.0,90,0.00,,,-99.99,100,WeatherLink 5.4,2013-03-08 13:15:00,
2013-03-08 09:16:00,74.5,-99.9,29.94,North,-999,0.0,0.0,-999,0.00,,,-99.99,102,WeatherLink 5.4,2013-03-08 13:16:00,
2013-03-08 09:17:00,74.6,61.2,29.94,North,-999,0.0,0.0,63,0.00,,,-99.99,104,WeatherLink 5.4,2013-03-08 13:17:00,
2013-03-08 09:18:00,74.6,61.2,29.94,North,-999,0.0,0.0,63,0.00,,,-99.99,102,WeatherLink 5.4,2013-03-08 13:18:00,
2013-03-08 09:19:00,74.6,61.2,29.94,North,-999,0.0,0.0,63,0.00,,,-99.99,99,WeatherLink 5.4,2013-03-08 13:19:00,
2013-03-08 09:20:00,74.6,61.2,29.94,North,-999,0.0,0.0,63,0.00,,,-99.99,104,WeatherLink 5.4,2013-03-08 13:20:00,
2013-03-08 09:21:00,74.6,-99.9,29.94,West,270,2.0,3.0,-999,0.00,,,-99.99,113,WeatherLink 5.4,2013-03-08 13:21:00,
2013-03-08 09:22:00,74.6,71.5,29.94,West,270,1.0,3.0,90,0.00,,,-99.99,121,WeatherLink 5.4,2013-03-08 13:22:00,
2013-03-08 09:23:00,74.6,-99.9,29.94,North,-999,0.0,0.0,-999,0.00,,,-99.99,127,WeatherLink 5.4,2013-03-08 13:23:00,
2013-03-08 09:24:00,74.6,-99.9,29.94,West,270,0.0,2.0,-999,0.00,,,-99.99,133,WeatherLink 5.4,2013-03-08 13:24:00,
2013-03-08 09:25:00,74.6,-99.9,29.94,North,-999,0.0,0.0,-999,0.00,,,-99.99,135,WeatherLink 5.4,2013-03-08 13:25:00,
2013-03-08 09:26:00,74.6,71.5,29.94,West,270,0.0,1.0,90,0.00,,,-99.99,137,WeatherLink 5.4,2013-03-08 13:26:00,
2013-03-08 09:27:00,74.6,-99.9,29.94,North,-999,0.0,0.0,-999,0.00,,,-99.99,139,WeatherLink 5.4,2013-03-08 13:27:00,
2013-03-08 09:28:00,74.6,-99.9,29.94,North,-999,0.0,0.0,-999,0.00,,,-99.99,143,WeatherLink 5.4,2013-03-08 13:28:00,
2013-03-08 09:29:00,74.6,59.8,29.94,North,-999,0.0,0.0,60,0.00,,,-99.99,148,WeatherLink 5.4,2013-03-08 13:29:00,
2013-03-08 09:30:00,74.6,59.8,29.94,North,-999,0.0,0.0,60,0.00,,,-99.99,151,WeatherLink 5.4,2013-03-08 13:30:00,
2013-03-08 09:31:00,74.6,-99.9,29.94,North,-999,0.0,0.0,-999,0.00,,,-99.99,157,WeatherLink 5.4,2013-03-08 13:31:00,
2013-03-08 09:32:00,74.6,-99.9,29.94,North,-999,0.0,0.0,-999,0.00,,,-99.99,164,WeatherLink 5.4,2013-03-08 13:32:00,
2013-03-08 09:33:00,74.6,71.1,29.94,North,-999,0.0,0.0,89,0.00,,,-99.99,167,WeatherLink 5.4,2013-03-08 13:33:00,
2013-03-08 09:34:00,74.5,71.0,29.94,North,-999,0.0,0.0,89,0.00,,,-99.99,169,WeatherLink 5.4,2013-03-08 13:34:00,
2013-03-08 09:35:00,74.4,70.9,29.94,West,270,1.0,3.0,89,0.00,,,-99.99,167,WeatherLink 5.4,2013-03-08 13:35:00,
2013-03-08 09:36:00,74.4,70.9,29.94,West,270,2.0,3.0,89,0.00,,,-99.99,169,WeatherLink 5.4,2013-03-08 13:36:00,
2013-03-08 09:37:00,74.4,70.9,29.94,West,270,0.0,1.0,89,0.00,,,-99.99,174,WeatherLink 5.4,2013-03-08 13:37:00,
2013-03-08 09:38:00,74.3,-99.9,29.94,West,270,0.0,1.0,-999,0.00,,,-99.99,181,WeatherLink 5.4,2013-03-08 13:38:00,
2013-03-08 09:39:00,74.2,71.7,29.94,North,-999,0.0,0.0,92,0.00,,,-99.99,198,WeatherLink 5.4,2013-03-08 13:39:00,
2013-03-08 09:40:00,74.2,-99.9,29.94,North,-999,0.0,0.0,-999,0.00,,,-99.99,250,WeatherLink 5.4,2013-03-08 13:40:00,
2013-03-08 09:41:00,74.2,70.7,29.94,North,-999,0.0,0.0,89,0.00,,,-99.99,250,WeatherLink 5.4,2013-03-08 13:41:00,
2013-03-08 09:42:00,74.4,-99.9,29.94,North,-999,0.0,0.0,-999,0.00,,,-99.99,250,WeatherLink 5.4,2013-03-08 13:42:00,
2013-03-08 09:43:00,74.4,-99.9,29.94,North,-999,0.0,0.0,-999,0.00,,,-99.99,250,WeatherLink 5.4,2013-03-08 13:43:00,
2013-03-08 09:44:00,74.4,-99.9,29.94,North,-999,0.0,0.0,-999,0.00,,,-99.99,358,WeatherLink 5.4,2013-03-08 13:44:00,
2013-03-08 09:45:00,74.4,71.9,29.94,North,-999,0.0,0.0,92,0.00,,,-99.99,385,WeatherLink 5.4,2013-03-08 13:45:00,
2013-03-08 09:46:00,74.4,-99.9,29.94,North,-999,0.0,0.0,-999,0.00,,,-99.99,377,WeatherLink 5.4,2013-03-08 13:46:00,
2013-03-08 09:47:00,74.4,56.7,29.94,North,-999,0.0,0.0,54,0.00,,,-99.99,357,WeatherLink 5.4,2013-03-08 13:47:00,
2013-03-08 09:48:00,74.5,-99.9,29.94,North,-999,0.0,0.0,-999,0.00,,,-99.99,338,WeatherLink 5.4,2013-03-08 13:48:00,
2013-03-08 09:49:00,74.6,-99.9,29.94,North,-999,0.0,0.0,-999,0.00,,,-99.99,318,WeatherLink 5.4,2013-03-08 13:49:00,
2013-03-08 09:50:00,74.6,-99.9,29.94,North,-999,0.0,0.0,-999,0.00,,,-99.99,294,WeatherLink 5.4,2013-03-08 13:50:00,
2013-03-08 09:51:00,74.6,-99.9,29.94,North,-999,0.0,0.0,-999,0.00,,,-99.99,297,WeatherLink 5.4,2013-03-08 13:51:00,
2013-03-08 09:52:00,74.6,-99.9,29.94,North,-999,0.0,0.0,-999,0.00,,,-99.99,322,WeatherLink 5.4,2013-03-08 13:52:00,
2013-03-08 09:53:00,74.6,71.8,29.94,North,-999,0.0,0.0,91,0.00,,,-99.99,322,WeatherLink 5.4,2013-03-08 13:53:00,
2013-03-08 09:54:00,74.6,-99.9,29.94,West,270,0.0,1.0,-999,0.00,,,-99.99,860,WeatherLink 5.4,2013-03-08 13:54:00,
2013-03-08 09:55:00,74.6,55.8,29.94,North,-999,0.0,0.0,52,0.00,,,-99.99,846,WeatherLink 5.4,2013-03-08 13:55:00,
2013-03-08 09:56:00,74.6,-99.9,29.94,North,-999,0.0,0.0,-999,0.00,,,-99.99,864,WeatherLink 5.4,2013-03-08 13:56:00,
2013-03-08 09:57:00,74.7,-99.9,29.94,North,-999,0.0,0.0,-999,0.00,,,-99.99,899,WeatherLink 5.4,2013-03-08 13:57:00,
2013-03-08 09:58:00,74.9,-99.9,29.94,North,-999,0.0,0.0,-999,0.00,,,-99.99,899,WeatherLink 5.4,2013-03-08 13:58:00,
2013-03-08 09:59:00,74.9,-99.9,29.94,North,-999,0.0,0.0,-999,0.00,,,-99.99,429,WeatherLink 5.4,2013-03-08 13:59:00,
2013-03-08 10:00:00,74.9,-99.9,29.94,North,-999,0.0,0.0,-999,0.00,,,-99.99,429,WeatherLink 5.4,2013-03-08 14:00:00,
2013-03-08 10:01:00,74.9,27.1,29.94,North,-999,0.0,0.0,17,0.00,,,-99.99,429,WeatherLink 5.4,2013-03-08 14:01:00,
2013-03-08 10:02:00,75.1,25.8,29.94,North,-999,0.0,0.0,16,0.00,,,-99.99,271,WeatherLink 5.4,2013-03-08 14:02:00,
2013-03-08 10:03:00,75.1,-99.9,29.94,North,-999,0.0,0.0,-999,0.00,,,-99.99,262,WeatherLink 5.4,2013-03-08 14:03:00,
2013-03-08 10:04:00,75.2,-99.9,29.94,North,-999,0.0,0.0,-999,0.00,,,-99.99,269,WeatherLink 5.4,2013-03-08 14:04:00,
2013-03-08 10:05:00,75.3,75.3,29.94,North,-999,0.0,0.0,100,0.00,,,-99.99,285,WeatherLink 5.4,2013-03-08 14:05:00,
2013-03-08 10:06:00,75.4,75.4,29.94,North,-999,0.0,0.0,100,0.00,,,-99.99,292,WeatherLink 5.4,2013-03-08 14:06:00,
2013-03-08 10:07:00,75.4,75.4,29.94,North,-999,0.0,0.0,100,0.00,,,-99.99,294,WeatherLink 5.4,2013-03-08 14:07:00,
2013-03-08 10:08:00,75.5,-99.9,29.94,North,-999,0.0,0.0,-999,0.00,,,-99.99,301,WeatherLink 5.4,2013-03-08 14:08:00,
2013-03-08 10:09:00,75.6,-99.9,29.94,North,-999,0.0,0.0,-999,0.00,,,-99.99,295,WeatherLink 5.4,2013-03-08 14:09:00,
2013-03-08 10:10:00,75.6,48.2,29.94,North,-999,0.0,0.0,38,0.00,,,-99.99,273,WeatherLink 5.4,2013-03-08 14:10:00,
2013-03-08 10:11:00,75.7,48.3,29.94,West,270,1.0,5.0,38,0.00,,,-99.99,266,WeatherLink 5.4,2013-03-08 14:11:00,
2013-03-08 10:12:00,75.6,75.6,29.94,West,270,1.0,2.0,100,0.00,,,-99.99,262,WeatherLink 5.4,2013-03-08 14:12:00,
2013-03-08 10:13:00,75.6,-99.9,29.94,North,-999,0.0,0.0,-999,0.00,,,-99.99,260,WeatherLink 5.4,2013-03-08 14:13:00,
2013-03-08 10:14:00,75.7,-99.9,29.94,North,-999,0.0,0.0,-999,0.00,,,-99.99,259,WeatherLink 5.4,2013-03-08 14:14:00,
2013-03-08 10:15:00,75.8,-99.9,29.95,North,-999,0.0,0.0,-999,0.00,,,-99.99,255,WeatherLink 5.4,2013-03-08 14:15:00,
2013-03-08 10:16:00,75.8,-99.9,29.95,North,-999,0.0,0.0,-999,0.00,,,-99.99,259,WeatherLink 5.4,2013-03-08 14:16:00,
2013-03-08 10:17:00,76.0,76.0,29.95,North,-999,0.0,0.0,100,0.00,,,-99.99,271,WeatherLink 5.4,2013-03-08 14:17:00,
2013-03-08 10:18:00,76.0,-99.9,29.95,North,-999,0.0,0.0,-999,0.00,,,-99.99,292,WeatherLink 5.4,2013-03-08 14:18:00,
2013-03-08 10:19:00,76.0,76.0,29.95,West,270,1.0,3.0,100,0.00,,,-99.99,321,WeatherLink 5.4,2013-03-08 14:19:00,
2013-03-08 10:20:00,76.0,76.0,29.95,West,270,2.0,3.0,100,0.01,,,-99.99,322,WeatherLink 5.4,2013-03-08 14:20:00,
2013-03-08 10:21:00,76.0,76.0,29.95,West,270,3.0,5.0,100,0.01,,,-99.99,322,WeatherLink 5.4,2013-03-08 14:21:00,
2013-03-08 10:22:00,76.1,76.1,29.95,West,270,0.0,2.0,100,0.01,,,-99.99,326,WeatherLink 5.4,2013-03-08 14:22:00,
2013-03-08 10:23:00,76.1,40.6,29.95,North,-999,0.0,0.0,28,0.01,,,-99.99,343,WeatherLink 5.4,2013-03-08 14:23:00,
2013-03-08 10:24:00,76.1,40.6,29.95,West,270,0.0,1.0,28,0.01,,,-99.99,337,WeatherLink 5.4,2013-03-08 14:24:00,
2013-03-08 10:25:00,76.1,40.6,29.95,North,-999,0.0,0.0,28,0.01,,,-99.99,352,WeatherLink 5.4,2013-03-08 14:25:00,
2013-03-08 10:26:00,76.1,40.6,29.95,North,-999,0.0,0.0,28,0.01,,,-99.99,373,WeatherLink 5.4,2013-03-08 14:26:00,
2013-03-08 10:27:00,76.3,76.3,29.95,North,-999,0.0,0.0,100,0.01,,,-99.99,394,WeatherLink 5.4,2013-03-08 14:27:00,
2013-03-08 10:28:00,76.3,76.3,29.95,North,-999,0.0,0.0,100,0.01,,,-99.99,428,WeatherLink 5.4,2013-03-08 14:28:00,
2013-03-08 10:29:00,76.3,-18.4,29.95,North,-999,0.0,0.0,2,0.01,,,-99.99,461,WeatherLink 5.4,2013-03-08 14:29:00,
2013-03-08 10:30:00,76.3,-18.4,29.95,North,-999,0.0,0.0,2,0.01,,,-99.99,479,WeatherLink 5.4,2013-03-08 14:30:00,
2013-03-08 10:31:00,76.4,76.4,29.95,North,-999,0.0,0.0,100,0.01,,,-99.99,479,WeatherLink 5.4,2013-03-08 14:31:00,
2013-03-08 10:32:00,76.5,76.5,29.95,North,-999,0.0,0.0,100,0.01,,,-99.99,389,WeatherLink 5.4,2013-03-08 14:32:00,
2013-03-08 10:33:00,76.5,76.5,29.95,North,-999,0.0,0.0,100,0.01,,,-99.99,385,WeatherLink 5.4,2013-03-08 14:33:00,
2013-03-08 10:34:00,76.5,76.5,29.95,North,-999,0.0,0.0,100,0.01,,,-99.99,392,WeatherLink 5.4,2013-03-08 14:34:00,
2013-03-08 10:35:00,76.5,31.1,29.95,North,-999,0.0,0.0,19,0.01,,,-99.99,415,WeatherLink 5.4,2013-03-08 14:35:00,
2013-03-08 10:36:00,76.5,29.8,29.95,North,-999,0.0,0.0,18,0.01,,,-99.99,457,WeatherLink 5.4,2013-03-08 14:36:00,
2013-03-08 10:37:00,76.7,30.0,29.95,North,-999,0.0,0.0,18,0.01,,,-99.99,457,WeatherLink 5.4,2013-03-08 14:37:00,
2013-03-08 10:38:00,76.7,30.0,29.95,North,-999,0.0,0.0,18,0.01,,,-99.99,465,WeatherLink 5.4,2013-03-08 14:38:00,
2013-03-08 10:39:00,76.8,76.8,29.95,North,-999,0.0,0.0,100,0.01,,,-99.99,480,WeatherLink 5.4,2013-03-08 14:39:00,
2013-03-08 10:40:00,76.8,-99.9,29.95,North,-999,0.0,0.0,-999,0.01,,,-99.99,480,WeatherLink 5.4,2013-03-08 14:40:00,
2013-03-08 10:41:00,77.0,-99.9,29.95,North,-999,0.0,0.0,-999,0.01,,,-99.99,1093,WeatherLink 5.4,2013-03-08 14:41:00,
2013-03-08 10:42:00,77.0,-99.9,29.95,North,-999,0.0,0.0,-999,0.01,,,-99.99,1093,WeatherLink 5.4,2013-03-08 14:42:00,
2013-03-08 10:43:00,77.2,20.6,29.95,North,-999,0.0,0.0,12,0.01,,,-99.99,1093,WeatherLink 5.4,2013-03-08 14:43:00,
2013-03-08 10:44:00,77.2,20.6,29.95,North,-999,0.0,0.0,12,0.01,,,-99.99,505,WeatherLink 5.4,2013-03-08 14:44:00,
2013-03-08 10:45:00,77.3,-99.9,29.95,West,270,0.0,1.0,0,0.01,,,-99.99,505,WeatherLink 5.4,2013-03-08 14:45:00,
2013-03-08 10:46:00,77.5,-99.9,29.95,North,-999,0.0,0.0,0,0.01,,,-99.99,505,WeatherLink 5.4,2013-03-08 14:46:00,
2013-03-08 10:47:00,77.7,-99.9,29.95,North,-999,0.0,0.0,0,0.01,,,-99.99,955,WeatherLink 5.4,2013-03-08 14:47:00,
2013-03-08 10:48:00,77.7,-99.9,29.95,North,-999,0.0,0.0,0,0.01,,,-99.99,955,WeatherLink 5.4,2013-03-08 14:48:00,
2013-03-08 10:49:00,77.9,-99.9,29.95,East,90,2.0,7.0,0,0.01,,,-99.99,955,WeatherLink 5.4,2013-03-08 14:49:00,
2013-03-08 10:50:00,78.1,78.1,29.95,North,-999,0.0,0.0,100,0.01,,,-99.99,568,WeatherLink 5.4,2013-03-08 14:50:00,
2013-03-08 10:51:00,78.3,78.3,29.95,North,-999,0.0,0.0,100,0.01,,,-99.99,568,WeatherLink 5.4,2013-03-08 14:51:00,
2013-03-08 10:52:00,78.5,-99.9,29.95,North,-999,0.0,0.0,0,0.01,,,-99.99,568,WeatherLink 5.4,2013-03-08 14:52:00,
2013-03-08 10:53:00,78.6,-99.9,29.95,North,-999,0.0,0.0,0,0.01,,,-99.99,568,WeatherLink 5.4,2013-03-08 14:53:00,
2013-03-08 10:54:00,78.7,-99.9,29.95,North,-999,0.0,0.0,0,0.01,,,-99.99,1003,WeatherLink 5.4,2013-03-08 14:54:00,
2013-03-08 10:55:00,78.8,-99.9,29.95,North,-999,0.0,0.0,0,0.01,,,-99.99,1003,WeatherLink 5.4,2013-03-08 14:55:00,
2013-03-08 10:56:00,79.0,-99.9,29.95,North,0,0.0,1.0,0,0.01,,,-99.99,1003,WeatherLink 5.4,2013-03-08 14:56:00,
2013-03-08 10:57:00,79.2,79.2,29.95,North,-999,0.0,0.0,100,0.01,,,-99.99,1003,WeatherLink 5.4,2013-03-08 14:57:00,
2013-03-08 10:58:00,79.3,-99.9,29.95,North,-999,0.0,0.0,0,0.01,,,-99.99,581,WeatherLink 5.4,2013-03-08 14:58:00,
2013-03-08 10:59:00,79.4,-99.9,29.95,North,0,2.0,5.0,0,0.01,,,-99.99,581,WeatherLink 5.4,2013-03-08 14:59:00,
2013-03-08 11:00:00,79.4,-99.9,29.94,North,0,1.0,5.0,-999,0.01,,,-99.99,581,WeatherLink 5.4,2013-03-08 15:00:00,
2013-03-08 11:01:00,79.4,-99.9,29.94,North,0,4.0,7.0,-999,0.01,,,-99.99,391,WeatherLink 5.4,2013-03-08 15:01:00,
2013-03-08 11:02:00,79.6,-99.9,29.94,North,0,2.0,3.0,0,0.01,,,-99.99,389,WeatherLink 5.4,2013-03-08 15:02:00,
2013-03-08 11:03:00,79.6,-99.9,29.94,NNE,22,1.0,5.0,0,0.01,,,-99.99,396,WeatherLink 5.4,2013-03-08 15:03:00,
2013-03-08 11:04:00,79.6,-99.9,29.94,North,0,0.0,1.0,0,0.01,,,-99.99,410,WeatherLink 5.4,2013-03-08 15:04:00,
2013-03-08 11:05:00,79.6,-99.9,29.94,North,-999,0.0,0.0,-999,0.01,,,-99.99,465,WeatherLink 5.4,2013-03-08 15:05:00,
2013-03-08 11:06:00,79.6,-99.9,29.94,North,0,1.0,3.0,0,0.01,,,-99.99,465,WeatherLink 5.4,2013-03-08 15:06:00,
2013-03-08 11:07:00,79.6,-99.9,29.94,North,0,1.0,2.0,-999,0.01,,,-99.99,465,WeatherLink 5.4,2013-03-08 15:07:00,
2013-03-08 11:08:00,79.6,32.3,29.94,North,-999,0.0,0.0,18,0.01,,,-99.99,396,WeatherLink 5.4,2013-03-08 15:08:00,
2013-03-08 11:09:00,79.6,32.3,29.94,North,-999,0.0,0.0,18,0.01,,,-99.99,411,WeatherLink 5.4,2013-03-08 15:09:00,
2013-03-08 11:10:00,79.6,-99.9,29.94,North,0,0.0,1.0,0,0.01,,,-99.99,387,WeatherLink 5.4,2013-03-08 15:10:00,
2013-03-08 11:11:00,79.7,-99.9,29.94,North,-999,0.0,0.0,0,0.01,,,-99.99,361,WeatherLink 5.4,2013-03-08 15:11:00,
2013-03-08 11:12:00,79.8,-99.9,29.94,North,0,0.0,1.0,-999,0.01,,,-99.99,348,WeatherLink 5.4,2013-03-08 15:12:00,
2013-03-08 11:13:00,79.8,-99.9,29.94,North,-999,0.0,0.0,-999,0.01,,,-99.99,352,WeatherLink 5.4,2013-03-08 15:13:00,
2013-03-08 11:14:00,79.8,-99.9,29.94,North,-999,0.0,0.0,-999,0.01,,,-99.99,366,WeatherLink 5.4,2013-03-08 15:14:00,
2013-03-08 11:15:00,79.8,-99.9,29.94,North,-999,0.0,0.0,-999,0.01,,,-99.99,359,WeatherLink 5.4,2013-03-08 15:15:00,
2013-03-08 11:16:00,79.8,69.6,29.94,North,-999,0.0,0.0,71,0.01,,,-99.99,370,WeatherLink 5.4,2013-03-08 15:16:00,
2013-03-08 11:17:00,79.8,-99.9,29.94,North,-999,0.0,0.0,-999,0.01,,,-99.99,371,WeatherLink 5.4,2013-03-08 15:17:00,
2013-03-08 11:18:00,79.8,-99.9,29.94,North,-999,0.0,0.0,-999,0.01,,,-99.99,373,WeatherLink 5.4,2013-03-08 15:18:00,
2013-03-08 11:19:00,79.8,-99.9,29.94,North,-999,0.0,0.0,-999,0.01,,,-99.99,359,WeatherLink 5.4,2013-03-08 15:19:00,
2013-03-08 11:20:00,79.8,68.7,29.94,North,-999,0.0,0.0,69,0.00,,,-99.99,348,WeatherLink 5.4,2013-03-08 15:20:00,
2013-03-08 11:21:00,79.8,68.7,29.94,North,-999,0.0,0.0,69,0.00,,,-99.99,355,WeatherLink 5.4,2013-03-08 15:21:00,
2013-03-08 11:22:00,79.8,68.7,29.94,North,-999,0.0,0.0,69,0.00,,,-99.99,359,WeatherLink 5.4,2013-03-08 15:22:00,
2013-03-08 11:23:00,79.8,68.7,29.94,NW,315,1.0,4.0,69,0.00,,,-99.99,364,WeatherLink 5.4,2013-03-08 15:23:00,
2013-03-08 11:24:00,79.8,68.7,29.94,NNW,337,3.0,6.0,69,0.00,,,-99.99,365,WeatherLink 5.4,2013-03-08 15:24:00,
2013-03-08 11:25:00,79.8,68.7,29.94,NNW,337,2.0,4.0,69,0.00,,,-99.99,392,WeatherLink 5.4,2013-03-08 15:25:00,
2013-03-08 11:26:00,79.8,-99.9,29.94,NNW,337,2.0,3.0,-999,0.00,,,-99.99,417,WeatherLink 5.4,2013-03-08 15:26:00,
2013-03-08 11:27:00,79.8,-99.9,29.94,NNW,337,0.0,1.0,-999,0.00,,,-99.99,429,WeatherLink 5.4,2013-03-08 15:27:00,
2013-03-08 11:28:00,79.8,69.1,29.94,North,-999,0.0,0.0,70,0.00,,,-99.99,428,WeatherLink 5.4,2013-03-08 15:28:00,
2013-03-08 11:29:00,79.8,69.1,29.94,North,-999,0.0,0.0,70,0.00,,,-99.99,433,WeatherLink 5.4,2013-03-08 15:29:00,
2013-03-08 11:30:00,79.8,-99.9,29.93,North,-999,0.0,0.0,-999,0.00,,,-99.99,433,WeatherLink 5.4,2013-03-08 15:30:00,
2013-03-08 11:31:00,79.8,-99.9,29.93,North,-999,0.0,0.0,-999,0.00,,,-99.99,433,WeatherLink 5.4,2013-03-08 15:31:00,
2013-03-08 11:32:00,79.9,69.2,29.93,NW,315,1.0,3.0,70,0.00,,,-99.99,623,WeatherLink 5.4,2013-03-08 15:32:00,
2013-03-08 11:33:00,79.9,68.8,29.93,North,0,2.0,5.0,69,0.00,,,-99.99,623,WeatherLink 5.4,2013-03-08 15:33:00,
2013-03-08 11:34:00,79.9,68.8,29.93,North,0,4.0,6.0,69,0.00,,,-99.99,1223,WeatherLink 5.4,2013-03-08 15:34:00,
2013-03-08 11:35:00,79.9,68.8,29.93,North,0,2.0,5.0,69,0.00,,,-99.99,1223,WeatherLink 5.4,2013-03-08 15:35:00,
2013-03-08 11:36:00,79.9,68.4,29.93,NNE,22,2.0,4.0,68,0.00,,,-99.99,531,WeatherLink 5.4,2013-03-08 15:36:00,
2013-03-08 11:37:00,79.9,68.4,29.93,NNE,22,0.0,1.0,68,0.00,,,-99.99,561,WeatherLink 5.4,2013-03-08 15:37:00,
2013-03-08 11:38:00,79.9,68.4,29.93,North,0,2.0,6.0,68,0.00,,,-99.99,561,WeatherLink 5.4,2013-03-08 15:38:00,
2013-03-08 11:39:00,79.9,68.0,29.93,North,0,1.0,3.0,67,0.00,,,-99.99,446,WeatherLink 5.4,2013-03-08 15:39:00,
2013-03-08 11:40:00,79.9,68.0,29.93,WSW,247,3.0,6.0,67,0.00,,,-99.99,459,WeatherLink 5.4,2013-03-08 15:40:00,
2013-03-08 11:41:00,79.9,68.0,29.93,WSW,247,3.0,6.0,67,0.00,,,-99.99,459,WeatherLink 5.4,2013-03-08 15:41:00,
2013-03-08 11:42:00,79.9,68.4,29.93,West,270,3.0,6.0,68,0.00,,,-99.99,459,WeatherLink 5.4,2013-03-08 15:42:00,
2013-03-08 11:43:00,79.9,68.0,29.93,NNW,337,3.0,6.0,67,0.00,,,-99.99,317,WeatherLink 5.4,2013-03-08 15:43:00,
2013-03-08 11:44:00,79.9,68.4,29.93,NNW,337,0.0,1.0,68,0.00,,,-99.99,307,WeatherLink 5.4,2013-03-08 15:44:00,
2013-03-08 11:45:00,79.9,68.0,29.92,North,-999,0.0,0.0,67,0.00,,,-99.99,269,WeatherLink 5.4,2013-03-08 15:45:00,
2013-03-08 11:46:00,79.9,68.0,29.92,North,-999,0.0,0.0,67,0.00,,,-99.99,246,WeatherLink 5.4,2013-03-08 15:46:00,
2013-03-08 11:47:00,79.9,68.0,29.92,NE,45,2.0,6.0,67,0.00,,,-99.99,232,WeatherLink 5.4,2013-03-08 15:47:00,
2013-03-08 11:48:00,79.8,67.9,29.92,NNE,22,2.0,5.0,67,0.00,,,-99.99,223,WeatherLink 5.4,2013-03-08 15:48:00,
2013-03-08 11:49:00,79.8,67.9,29.92,NNW,337,3.0,5.0,67,0.00,,,-99.99,217,WeatherLink 5.4,2013-03-08 15:49:00,
2013-03-08 11:50:00,79.8,68.3,29.92,NNW,337,0.0,1.0,68,0.00,,,-99.99,222,WeatherLink 5.4,2013-03-08 15:50:00,
2013-03-08 11:51:00,79.8,68.3,29.92,NNW,337,0.0,1.0,68,0.00,,,-99.99,230,WeatherLink 5.4,2013-03-08 15:51:00,
2013-03-08 11:52:00,79.8,68.3,29.92,North,-999,0.0,0.0,68,0.00,,,-99.99,248,WeatherLink 5.4,2013-03-08 15:52:00,
2013-03-08 11:53:00,79.8,68.3,29.92,North,-999,0.0,0.0,68,0.00,,,-99.99,271,WeatherLink 5.4,2013-03-08 15:53:00,
2013-03-08 11:54:00,79.7,68.2,29.92,NNW,337,2.0,6.0,68,0.00,,,-99.99,304,WeatherLink 5.4,2013-03-08 15:54:00,
2013-03-08 11:55:00,79.6,68.1,29.92,NNW,337,1.0,5.0,68,0.00,,,-99.99,320,WeatherLink 5.4,2013-03-08 15:55:00,
2013-03-08 11:56:00,79.6,68.1,29.92,NNW,337,1.0,4.0,68,0.00,,,-99.99,324,WeatherLink 5.4,2013-03-08 15:56:00,
2013-03-08 11:57:00,79.6,68.1,29.92,North,-999,0.0,0.0,68,0.00,,,-99.99,348,WeatherLink 5.4,2013-03-08 15:57:00,
2013-03-08 11:58:00,79.6,68.1,29.92,North,-999,0.0,0.0,68,0.00,,,-99.99,327,WeatherLink 5.4,2013-03-08 15:58:00,
2013-03-08 11:59:00,79.6,68.1,29.92,North,-999,0.0,0.0,68,0.00,,,-99.99,319,WeatherLink 5.4,2013-03-08 15:59:00,
2013-03-08 12:00:00,79.6,68.1,29.92,North,0,0.0,3.0,68,0.00,,,-99.99,317,WeatherLink 5.4,2013-03-08 16:00:00,
2013-03-08 12:01:00,79.6,68.1,29.92,North,0,1.0,3.0,68,0.00,,,-99.99,301,WeatherLink 5.4,2013-03-08 16:01:00,
2013-03-08 12:02:00,79.4,67.9,29.92,North,0,1.0,3.0,68,0.00,,,-99.99,290,WeatherLink 5.4,2013-03-08 16:02:00,
2013-03-08 12:03:00,79.4,67.9,29.92,North,-999,0.0,0.0,68,0.00,,,-99.99,297,WeatherLink 5.4,2013-03-08 16:03:00,
2013-03-08 12:04:00,79.4,67.9,29.92,North,-999,0.0,0.0,68,0.00,,,-99.99,314,WeatherLink 5.4,2013-03-08 16:04:00,
2013-03-08 12:05:00,79.4,67.9,29.92,North,-999,0.0,0.0,68,0.00,,,-99.99,333,WeatherLink 5.4,2013-03-08 16:05:00,
2013-03-08 12:06:00,79.4,67.9,29.92,North,0,0.0,3.0,68,0.00,,,-99.99,371,WeatherLink 5.4,2013-03-08 16:06:00,
2013-03-08 12:07:00,79.4,67.9,29.92,NNW,337,3.0,5.0,68,0.00,,,-99.99,371,WeatherLink 5.4,2013-03-08 16:07:00,
2013-03-08 12:08:00,79.4,67.9,29.92,WNW,292,3.0,6.0,68,0.00,,,-99.99,371,WeatherLink 5.4,2013-03-08 16:08:00,
2013-03-08 12:09:00,79.4,67.9,29.92,WNW,292,0.0,1.0,68,0.00,,,-99.99,367,WeatherLink 5.4,2013-03-08 16:09:00,
2013-03-08 12:10:00,79.4,67.9,29.92,WNW,292,0.0,3.0,68,0.00,,,-99.99,373,WeatherLink 5.4,2013-03-08 16:10:00,
2013-03-08 12:11:00,79.4,67.9,29.92,WNW,292,0.0,1.0,68,0.00,,,-99.99,373,WeatherLink 5.4,2013-03-08 16:11:00,
2013-03-08 12:12:00,79.4,67.9,29.92,North,0,1.0,3.0,68,0.00,,,-99.99,373,WeatherLink 5.4,2013-03-08 16:12:00,
2013-03-08 12:13:00,79.4,67.9,29.92,NNW,337,2.0,3.0,68,0.00,,,-99.99,415,WeatherLink 5.4,2013-03-08 16:13:00,
2013-03-08 12:14:00,79.4,68.3,29.92,NNW,337,2.0,7.0,69,0.00,,,-99.99,433,WeatherLink 5.4,2013-03-08 16:14:00,
2013-03-08 12:15:00,79.4,67.9,29.92,NW,315,3.0,7.0,68,0.00,,,-99.99,433,WeatherLink 5.4,2013-03-08 16:15:00,
2013-03-08 12:16:00,79.4,67.9,29.92,NW,315,3.0,6.0,68,0.00,,,-99.99,433,WeatherLink 5.4,2013-03-08 16:16:00,
2013-03-08 12:17:00,79.4,67.9,29.92,NW,315,3.0,5.0,68,0.00,,,-99.99,433,WeatherLink 5.4,2013-03-08 16:17:00,
2013-03-08 12:18:00,79.6,68.1,29.92,WNW,292,2.0,5.0,68,0.00,,,-99.99,1147,WeatherLink 5.4,2013-03-08 16:18:00,
2013-03-08 12:19:00,79.6,68.1,29.92,WNW,292,1.0,3.0,68,0.00,,,-99.99,1186,WeatherLink 5.4,2013-03-08 16:19:00,
2013-03-08 12:20:00,79.6,68.1,29.92,NW,315,1.0,3.0,68,0.00,,,-99.99,396,WeatherLink 5.4,2013-03-08 16:20:00,
2013-03-08 12:21:00,79.7,67.8,29.92,East,90,0.0,1.0,67,0.00,,,-99.99,408,WeatherLink 5.4,2013-03-08 16:21:00,
2013-03-08 12:22:00,79.8,67.4,29.92,East,90,4.0,6.0,66,0.00,,,-99.99,408,WeatherLink 5.4,2013-03-08 16:22:00,
2013-03-08 12:23:00,79.6,67.2,29.92,East,90,3.0,5.0,66,0.00,,,-99.99,408,WeatherLink 5.4,2013-03-08 16:23:00,
2013-03-08 12:24:00,79.8,67.4,29.92,ENE,67,1.0,3.0,66,0.00,,,-99.99,1121,WeatherLink 5.4,2013-03-08 16:24:00,
2013-03-08 12:25:00,79.8,67.4,29.92,North,-999,0.0,0.0,66,0.00,,,-99.99,1121,WeatherLink 5.4,2013-03-08 16:25:00,
2013-03-08 12:26:00,79.8,67.4,29.92,North,-999,0.0,0.0,66,0.00,,,-99.99,1121,WeatherLink 5.4,2013-03-08 16:26:00,
2013-03-08 12:27:00,79.8,67.4,29.92,NE,45,2.0,6.0,66,0.00,,,-99.99,1121,WeatherLink 5.4,2013-03-08 16:27:00,
2013-03-08 12:28:00,79.9,68.0,29.92,NNW,337,1.0,5.0,67,0.00,,,-99.99,1121,WeatherLink 5.4,2013-03-08 16:28:00,
2013-03-08 12:29:00,79.9,67.5,29.92,North,0,4.0,7.0,66,0.00,,,-99.99,1121,WeatherLink 5.4,2013-03-08 16:29:00,
2013-03-08 12:30:00,80.1,68.2,29.91,NW,315,4.0,7.0,67,0.00,,,-99.99,1121,WeatherLink 5.4,2013-03-08 16:30:00,
2013-03-08 12:31:00,80.1,67.7,29.91,NW,315,2.0,4.0,66,0.00,,,-99.99,1193,WeatherLink 5.4,2013-03-08 16:31:00,
2013-03-08 12:32:00,80.3,68.3,29.91,NW,315,0.0,2.0,67,0.00,,,-99.99,1182,WeatherLink 5.4,2013-03-08 16:32:00,
2013-03-08 12:33:00,80.4,68.4,29.91,NW,315,1.0,3.0,67,0.00,,,-99.99,1182,WeatherLink 5.4,2013-03-08 16:33:00,
2013-03-08 12:34:00,80.5,68.1,29.91,North,-999,0.0,0.0,66,0.00,,,-99.99,489,WeatherLink 5.4,2013-03-08 16:34:00,
2013-03-08 12:35:00,80.6,68.2,29.91,North,-999,0.0,0.0,66,0.00,,,-99.99,470,WeatherLink 5.4,2013-03-08 16:35:00,
2013-03-08 12:36:00,80.7,68.3,29.91,North,0,4.0,7.0,66,0.00,,,-99.99,443,WeatherLink 5.4,2013-03-08 16:36:00,
2013-03-08 12:37:00,80.7,68.3,29.91,NW,315,3.0,6.0,66,0.00,,,-99.99,447,WeatherLink 5.4,2013-03-08 16:37:00,
2013-03-08 12:38:00,80.7,67.8,29.91,NW,315,1.0,3.0,65,0.00,,,-99.99,449,WeatherLink 5.4,2013-03-08 16:38:00,
2013-03-08 12:39:00,80.7,67.8,29.91,North,-999,0.0,0.0,65,0.00,,,-99.99,445,WeatherLink 5.4,2013-03-08 16:39:00,
2013-03-08 12:40:00,80.7,67.8,29.91,NW,315,0.0,1.0,65,0.00,,,-99.99,361,WeatherLink 5.4,2013-03-08 16:40:00,
2013-03-08 12:41:00,80.7,67.8,29.91,ESE,112,1.0,6.0,65,0.00,,,-99.99,345,WeatherLink 5.4,2013-03-08 16:41:00,
2013-03-08 12:42:00,80.7,67.8,29.91,North,-999,0.0,0.0,65,0.00,,,-99.99,355,WeatherLink 5.4,2013-03-08 16:42:00,
2013-03-08 12:43:00,80.8,67.9,29.91,NNW,337,1.0,3.0,65,0.00,,,-99.99,375,WeatherLink 5.4,2013-03-08 16:43:00,
2013-03-08 12:44:00,80.7,67.8,29.91,North,-999,0.0,0.0,65,0.00,,,-99.99,378,WeatherLink 5.4,2013-03-08 16:44:00,
2013-03-08 12:45:00,80.7,67.4,29.91,NNW,337,1.0,2.0,64,0.00,,,-99.99,362,WeatherLink 5.4,2013-03-08 16:45:00,
2013-03-08 12:46:00,80.7,67.4,29.91,NNW,337,0.0,2.0,64,0.00,,,-99.99,347,WeatherLink 5.4,2013-03-08 16:46:00,
2013-03-08 12:47:00,80.7,67.4,29.91,North,-999,0.0,0.0,64,0.00,,,-99.99,340,WeatherLink 5.4,2013-03-08 16:47:00,
2013-03-08 12:48:00,80.7,67.4,29.91,NNW,337,0.0,1.0,64,0.00,,,-99.99,347,WeatherLink 5.4,2013-03-08 16:48:00,
2013-03-08 12:49:00,80.7,67.4,29.91,North,-999,0.0,0.0,64,0.00,,,-99.99,377,WeatherLink 5.4,2013-03-08 16:49:00,
2013-03-08 12:50:00,80.7,67.4,29.91,North,-999,0.0,0.0,64,0.00,,,-99.99,419,WeatherLink 5.4,2013-03-08 16:50:00,
2013-03-08 12:51:00,80.7,67.4,29.91,NNW,337,0.0,1.0,64,0.00,,,-99.99,454,WeatherLink 5.4,2013-03-08 16:51:00,
2013-03-08 12:52:00,80.7,67.4,29.91,North,-999,0.0,0.0,64,0.00,,,-99.99,454,WeatherLink 5.4,2013-03-08 16:52:00,
2013-03-08 12:53:00,80.7,67.8,29.91,North,0,0.0,1.0,65,0.00,,,-99.99,454,WeatherLink 5.4,2013-03-08 16:53:00,
2013-03-08 12:54:00,80.7,67.8,29.91,North,-999,0.0,0.0,65,0.00,,,-99.99,758,WeatherLink 5.4,2013-03-08 16:54:00,
2013-03-08 12:55:00,80.7,67.8,29.91,North,-999,0.0,0.0,65,0.00,,,-99.99,758,WeatherLink 5.4,2013-03-08 16:55:00,
2013-03-08 12:56:00,80.7,67.4,29.91,North,-999,0.0,0.0,64,0.00,,,-99.99,758,WeatherLink 5.4,2013-03-08 16:56:00,
2013-03-08 12:57:00,80.7,67.4,29.91,North,-999,0.0,0.0,64,0.00,,,-99.99,955,WeatherLink 5.4,2013-03-08 16:57:00,
2013-03-08 12:58:00,80.9,67.6,29.91,North,-999,0.0,0.0,64,0.00,,,-99.99,955,WeatherLink 5.4,2013-03-08 16:58:00,
2013-03-08 12:59:00,80.9,67.6,29.91,North,0,2.0,6.0,64,0.00,,,-99.99,994,WeatherLink 5.4,2013-03-08 16:59:00,
2013-03-08 13:00:00,80.9,67.6,29.89,NNW,337,2.0,4.0,64,0.00,,,-99.99,1012,WeatherLink 5.4,2013-03-08 17:00:00,
2013-03-08 13:01:00,80.9,67.6,29.89,North,0,4.0,6.0,64,0.00,,,-99.99,996,WeatherLink 5.4,2013-03-08 17:01:00,
2013-03-08 13:02:00,81.1,67.8,29.89,North,0,2.0,6.0,64,0.00,,,-99.99,957,WeatherLink 5.4,2013-03-08 17:02:00,
2013-03-08 13:03:00,81.1,68.2,29.89,North,0,1.0,3.0,65,0.00,,,-99.99,957,WeatherLink 5.4,2013-03-08 17:03:00,
2013-03-08 13:04:00,81.1,67.8,29.89,North,0,4.0,6.0,64,0.00,,,-99.99,1009,WeatherLink 5.4,2013-03-08 17:04:00,
2013-03-08 13:05:00,81.2,67.9,29.89,NNE,22,3.0,5.0,64,0.00,,,-99.99,1021,WeatherLink 5.4,2013-03-08 17:05:00,
2013-03-08 13:06:00,81.2,67.9,29.89,NNW,337,4.0,7.0,64,0.00,,,-99.99,1035,WeatherLink 5.4,2013-03-08 17:06:00,
2013-03-08 13:07:00,81.2,67.9,29.89,NNE,22,4.0,7.0,64,0.00,,,-99.99,1008,WeatherLink 5.4,2013-03-08 17:07:00,
2013-03-08 13:08:00,81.2,67.4,29.89,NE,45,2.0,4.0,63,0.00,,,-99.99,1047,WeatherLink 5.4,2013-03-08 17:08:00,
2013-03-08 13:09:00,81.3,67.5,29.89,ENE,67,1.0,2.0,63,0.00,,,-99.99,1080,WeatherLink 5.4,2013-03-08 17:09:00,
2013-03-08 13:10:00,81.4,67.1,29.89,ENE,67,3.0,6.0,62,0.00,,,-99.99,1087,WeatherLink 5.4,2013-03-08 17:10:00,
2013-03-08 13:11:00,81.4,67.6,29.89,NNW,337,4.0,6.0,63,0.00,,,-99.99,1214,WeatherLink 5.4,2013-03-08 17:11:00,
2013-03-08 13:12:00,81.5,67.7,29.89,NNW,337,0.0,3.0,63,0.00,,,-99.99,1214,WeatherLink 5.4,2013-03-08 17:12:00,
2013-03-08 13:13:00,81.6,67.8,29.89,North,0,1.0,5.0,63,0.00,,,-99.99,1214,WeatherLink 5.4,2013-03-08 17:13:00,
2013-03-08 13:14:00,81.6,67.8,29.89,North,0,5.0,6.0,63,0.00,,,-99.99,1214,WeatherLink 5.4,2013-03-08 17:14:00,
2013-03-08 13:15:00,81.6,67.8,29.89,North,0,4.0,7.0,63,0.00,,,-99.99,428,WeatherLink 5.4,2013-03-08 17:15:00,
2013-03-08 13:16:00,81.6,67.8,29.89,North,0,3.0,7.0,63,0.00,,,-99.99,426,WeatherLink 5.4,2013-03-08 17:16:00,
2013-03-08 13:17:00,81.6,67.8,29.89,North,-999,0.0,0.0,63,0.00,,,-99.99,428,WeatherLink 5.4,2013-03-08 17:17:00,
2013-03-08 13:18:00,81.6,67.8,29.89,North,-999,0.0,0.0,63,0.00,,,-99.99,419,WeatherLink 5.4,2013-03-08 17:18:00,
2013-03-08 13:19:00,81.6,68.2,29.89,North,-999,0.0,0.0,64,0.00,,,-99.99,411,WeatherLink 5.4,2013-03-08 17:19:00,
2013-03-08 13:20:00,81.6,67.8,29.89,North,-999,0.0,0.0,63,0.00,,,-99.99,417,WeatherLink 5.4,2013-03-08 17:20:00,
2013-03-08 13:21:00,81.6,67.8,29.89,North,-999,0.0,0.0,63,0.00,,,-99.99,433,WeatherLink 5.4,2013-03-08 17:21:00,
2013-03-08 13:22:00,81.6,67.8,29.89,North,-999,0.0,0.0,63,0.00,,,-99.99,452,WeatherLink 5.4,2013-03-08 17:22:00,
2013-03-08 13:23:00,81.6,67.8,29.89,North,-999,0.0,0.0,63,0.00,,,-99.99,466,WeatherLink 5.4,2013-03-08 17:23:00,
2013-03-08 13:24:00,81.6,67.8,29.89,North,0,3.0,6.0,63,0.00,,,-99.99,472,WeatherLink 5.4,2013-03-08 17:24:00,
2013-03-08 13:25:00,81.5,67.2,29.89,North,0,2.0,5.0,62,0.00,,,-99.99,447,WeatherLink 5.4,2013-03-08 17:25:00,
2013-03-08 13:26:00,81.4,67.1,29.89,North,0,4.0,6.0,62,0.00,,,-99.99,440,WeatherLink 5.4,2013-03-08 17:26:00,
2013-03-08 13:27:00,81.4,67.6,29.89,North,0,5.0,7.0,63,0.00,,,-99.99,449,WeatherLink 5.4,2013-03-08 17:27:00,
2013-03-08 13:28:00,81.2,66.9,29.89,North,0,2.0,7.0,62,0.00,,,-99.99,424,WeatherLink 5.4,2013-03-08 17:28:00,
2013-03-08 13:29:00,81.2,67.4,29.89,North,-999,0.0,0.0,63,0.00,,,-99.99,401,WeatherLink 5.4,2013-03-08 17:29:00,
2013-03-08 13:30:00,81.2,67.4,29.89,NNW,337,2.0,6.0,63,0.00,,,-99.99,373,WeatherLink 5.4,2013-03-08 17:30:00,
2013-03-08 13:31:00,81.2,67.4,29.89,North,0,1.0,5.0,63,0.00,,,-99.99,368,WeatherLink 5.4,2013-03-08 17:31:00,
2013-03-08 13:32:00,81.1,66.8,29.89,North,0,1.0,3.0,62,0.00,,,-99.99,399,WeatherLink 5.4,2013-03-08 17:32:00,
2013-03-08 13:33:00,81.1,66.8,29.89,North,0,1.0,2.0,62,0.00,,,-99.99,431,WeatherLink 5.4,2013-03-08 17:33:00,
2013-03-08 13:34:00,81.1,66.8,29.89,North,-999,0.0,0.0,62,0.00,,,-99.99,490,WeatherLink 5.4,2013-03-08 17:34:00,
2013-03-08 13:35:00,81.1,66.8,29.89,North,0,0.0,1.0,62,0.00,,,-99.99,465,WeatherLink 5.4,2013-03-08 17:35:00,
2013-03-08 13:36:00,81.1,67.3,29.89,North,-999,0.0,0.0,63,0.00,,,-99.99,452,WeatherLink 5.4,2013-03-08 17:36:00,
2013-03-08 13:37:00,80.9,67.1,29.89,North,-999,0.0,0.0,63,0.00,,,-99.99,452,WeatherLink 5.4,2013-03-08 17:37:00,
2013-03-08 13:38:00,80.9,67.1,29.89,North,-999,0.0,0.0,63,0.00,,,-99.99,366,WeatherLink 5.4,2013-03-08 17:38:00,
2013-03-08 13:39:00,80.9,67.1,29.89,North,-999,0.0,0.0,63,0.00,,,-99.99,329,WeatherLink 5.4,2013-03-08 17:39:00,
2013-03-08 13:40:00,80.9,67.1,29.89,North,-999,0.0,0.0,63,0.00,,,-99.99,301,WeatherLink 5.4,2013-03-08 17:40:00,
2013-03-08 13:41:00,80.9,67.1,29.89,North,-999,0.0,0.0,63,0.00,,,-99.99,294,WeatherLink 5.4,2013-03-08 17:41:00,
2013-03-08 13:42:00,80.9,67.1,29.89,North,-999,0.0,0.0,63,0.00,,,-99.99,292,WeatherLink 5.4,2013-03-08 17:42:00,
2013-03-08 13:43:00,80.9,67.1,29.89,North,0,0.0,1.0,63,0.00,,,-99.99,297,WeatherLink 5.4,2013-03-08 17:43:00,
2013-03-08 13:44:00,80.9,67.1,29.89,North,-999,0.0,0.0,63,0.00,,,-99.99,305,WeatherLink 5.4,2013-03-08 17:44:00,
2013-03-08 13:45:00,80.9,67.1,29.89,NW,315,0.0,1.0,63,0.00,,,-99.99,310,WeatherLink 5.4,2013-03-08 17:45:00,
2013-03-08 13:46:00,80.9,66.7,29.89,North,-999,0.0,0.0,62,0.00,,,-99.99,329,WeatherLink 5.4,2013-03-08 17:46:00,
2013-03-08 13:47:00,80.8,66.6,29.89,North,-999,0.0,0.0,62,0.00,,,-99.99,350,WeatherLink 5.4,2013-03-08 17:47:00,
2013-03-08 13:48:00,80.9,67.1,29.89,North,-999,0.0,0.0,63,0.00,,,-99.99,377,WeatherLink 5.4,2013-03-08 17:48:00,
2013-03-08 13:49:00,80.9,67.1,29.89,North,-999,0.0,0.0,63,0.00,,,-99.99,377,WeatherLink 5.4,2013-03-08 17:49:00,
2013-03-08 13:50:00,80.9,67.6,29.89,North,-999,0.0,0.0,64,0.00,,,-99.99,377,WeatherLink 5.4,2013-03-08 17:50:00,
2013-03-08 13:51:00,80.9,67.6,29.89,NW,315,0.0,1.0,64,0.00,,,-99.99,454,WeatherLink 5.4,2013-03-08 17:51:00,
2013-03-08 13:52:00,80.9,67.6,29.89,NNW,337,2.0,5.0,64,0.00,,,-99.99,454,WeatherLink 5.4,2013-03-08 17:52:00,
2013-03-08 13:53:00,80.9,67.6,29.89,NNW,337,2.0,4.0,64,0.00,,,-99.99,454,WeatherLink 5.4,2013-03-08 17:53:00,
2013-03-08 13:54:00,80.9,67.6,29.89,North,0,3.0,6.0,64,0.00,,,-99.99,739,WeatherLink 5.4,2013-03-08 17:54:00,
2013-03-08 13:55:00,80.9,67.6,29.89,NW,315,4.0,8.0,64,0.00,,,-99.99,739,WeatherLink 5.4,2013-03-08 17:55:00,
2013-03-08 13:56:00,80.9,67.6,29.89,NE,45,4.0,8.0,64,0.00,,,-99.99,739,WeatherLink 5.4,2013-03-08 17:56:00,
2013-03-08 13:57:00,80.9,67.6,29.89,NNE,22,2.0,3.0,64,0.00,,,-99.99,348,WeatherLink 5.4,2013-03-08 17:57:00,
2013-03-08 13:58:00,80.7,67.4,29.89,NNW,337,2.0,3.0,64,0.00,,,-99.99,348,WeatherLink 5.4,2013-03-08 17:58:00,
2013-03-08 13:59:00,80.7,67.4,29.89,North,0,0.0,1.0,64,0.00,,,-99.99,358,WeatherLink 5.4,2013-03-08 17:59:00,
2013-03-08 14:00:00,80.7,67.4,29.88,NNW,337,4.0,7.0,64,0.00,,,-99.99,415,WeatherLink 5.4,2013-03-08 18:00:00,
2013-03-08 14:10:00,80.7,67.4,29.88,North,0,3.0,6.0,64,0.00,,,-99.99,415,WeatherLink 5.4,2013-03-08 18:10:00,
2013-03-08 14:15:00,80.5,67.2,29.88,North,-999,0.0,0.0,64,0.00,,,-99.99,313,WeatherLink 5.4,2013-03-08 18:15:00,
2013-03-08 14:19:00,80.4,67.1,29.88,NNW,337,0.0,1.0,64,0.00,,,-99.99,352,WeatherLink 5.4,2013-03-08 18:19:00,
2013-03-08 14:20:00,80.4,67.1,29.88,NNW,337,0.0,1.0,64,0.00,,,-99.99,352,WeatherLink 5.4,2013-03-08 18:20:00,
2013-03-08 14:21:00,80.3,67.0,29.88,North,0,2.0,5.0,64,0.00,,,-99.99,331,WeatherLink 5.4,2013-03-08 18:21:00,
2013-03-08 14:22:00,80.3,67.0,29.88,NNW,337,3.0,6.0,64,0.00,,,-99.99,338,WeatherLink 5.4,2013-03-08 18:22:00,
2013-03-08 14:23:00,80.3,67.0,29.88,NNW,337,4.0,7.0,64,0.00,,,-99.99,350,WeatherLink 5.4,2013-03-08 18:23:00,
2013-03-08 14:24:00,80.1,67.3,29.88,NE,45,1.0,3.0,65,0.00,,,-99.99,354,WeatherLink 5.4,2013-03-08 18:24:00,
2013-03-08 14:25:00,80.1,67.3,29.88,NE,45,1.0,2.0,65,0.00,,,-99.99,361,WeatherLink 5.4,2013-03-08 18:25:00,
2013-03-08 14:26:00,80.1,67.3,29.88,North,0,2.0,4.0,65,0.00,,,-99.99,377,WeatherLink 5.4,2013-03-08 18:26:00,
2013-03-08 14:27:00,80.1,66.8,29.88,North,0,0.0,3.0,64,0.00,,,-99.99,384,WeatherLink 5.4,2013-03-08 18:27:00,
2013-03-08 14:28:00,80.1,67.3,29.88,NW,315,1.0,3.0,65,0.00,,,-99.99,371,WeatherLink 5.4,2013-03-08 18:28:00,
2013-03-08 14:29:00,80.1,67.3,29.88,NNE,22,1.0,3.0,65,0.00,,,-99.99,321,WeatherLink 5.4,2013-03-08 18:29:00,
2013-03-08 14:30:00,79.9,67.1,29.87,NNE,22,3.0,6.0,65,0.00,,,-99.99,282,WeatherLink 5.4,2013-03-08 18:30:00,
2013-03-08 14:31:00,79.9,67.1,29.87,NNW,337,2.0,6.0,65,0.00,,,-99.99,274,WeatherLink 5.4,2013-03-08 18:31:00,
2013-03-08 14:32:00,79.9,67.1,29.87,NNW,337,3.0,5.0,65,0.00,,,-99.99,278,WeatherLink 5.4,2013-03-08 18:32:00,
2013-03-08 14:33:00,79.9,66.6,29.87,North,-999,0.0,0.0,64,0.00,,,-99.99,294,WeatherLink 5.4,2013-03-08 18:33:00,
2013-03-08 14:34:00,79.9,66.6,29.87,North,-999,0.0,0.0,64,0.00,,,-99.99,326,WeatherLink 5.4,2013-03-08 18:34:00,
2013-03-08 14:35:00,79.9,67.1,29.87,North,0,0.0,1.0,65,0.00,,,-99.99,326,WeatherLink 5.4,2013-03-08 18:35:00,
2013-03-08 14:36:00,79.9,67.1,29.87,North,-999,0.0,0.0,65,0.00,,,-99.99,850,WeatherLink 5.4,2013-03-08 18:36:00,
2013-03-08 14:37:00,79.9,67.1,29.87,North,0,1.0,5.0,65,0.00,,,-99.99,850,WeatherLink 5.4,2013-03-08 18:37:00,
2013-03-08 14:38:00,79.9,67.1,29.87,North,0,0.0,1.0,65,0.00,,,-99.99,480,WeatherLink 5.4,2013-03-08 18:38:00,
2013-03-08 14:39:00,79.9,66.6,29.87,North,0,0.0,1.0,64,0.00,,,-99.99,431,WeatherLink 5.4,2013-03-08 18:39:00,
2013-03-08 14:40:00,79.9,66.6,29.87,North,-999,0.0,0.0,64,0.00,,,-99.99,457,WeatherLink 5.4,2013-03-08 18:40:00,
2013-03-08 14:41:00,80.1,67.3,29.87,North,0,1.0,6.0,65,0.00,,,-99.99,459,WeatherLink 5.4,2013-03-08 18:41:00,
2013-03-08 14:42:00,80.1,66.8,29.87,North,0,1.0,3.0,64,0.00,,,-99.99,459,WeatherLink 5.4,2013-03-08 18:42:00,
2013-03-08 14:43:00,80.1,66.8,29.87,NNE,22,3.0,5.0,64,0.00,,,-99.99,385,WeatherLink 5.4,2013-03-08 18:43:00,
2013-03-08 14:44:00,80.1,66.8,29.87,ENE,67,3.0,7.0,64,0.00,,,-99.99,390,WeatherLink 5.4,2013-03-08 18:44:00,
2013-03-08 14:45:00,80.1,66.8,29.86,ENE,67,1.0,5.0,64,0.00,,,-99.99,399,WeatherLink 5.4,2013-03-08 18:45:00,
2013-03-08 14:46:00,80.1,66.8,29.86,East,90,3.0,8.0,64,0.00,,,-99.99,413,WeatherLink 5.4,2013-03-08 18:46:00,
2013-03-08 14:47:00,80.1,66.8,29.86,East,90,4.0,6.0,64,0.00,,,-99.99,431,WeatherLink 5.4,2013-03-08 18:47:00,
2013-03-08 14:48:00,80.1,66.4,29.86,East,90,5.0,7.0,63,0.00,,,-99.99,480,WeatherLink 5.4,2013-03-08 18:48:00,
2013-03-08 14:49:00,79.9,66.6,29.86,ENE,67,1.0,2.0,64,0.00,,,-99.99,480,WeatherLink 5.4,2013-03-08 18:49:00,
2013-03-08 14:50:00,79.9,66.6,29.86,North,0,1.0,5.0,64,0.00,,,-99.99,480,WeatherLink 5.4,2013-03-08 18:50:00,
2013-03-08 14:51:00,80.0,66.7,29.86,North,-999,0.0,0.0,64,0.00,,,-99.99,480,WeatherLink 5.4,2013-03-08 18:51:00,
2013-03-08 14:52:00,80.1,66.8,29.86,NNE,22,1.0,3.0,64,0.00,,,-99.99,347,WeatherLink 5.4,2013-03-08 18:52:00,
2013-03-08 14:53:00,80.1,66.8,29.86,NE,45,1.0,6.0,64,0.00,,,-99.99,320,WeatherLink 5.4,2013-03-08 18:53:00,
2013-03-08 14:54:00,80.1,66.8,29.86,NNE,22,0.0,2.0,64,0.00,,,-99.99,283,WeatherLink 5.4,2013-03-08 18:54:00,
2013-03-08 14:55:00,79.9,66.6,29.86,North,0,2.0,5.0,64,0.00,,,-99.99,246,WeatherLink 5.4,2013-03-08 18:55:00,
2013-03-08 14:56:00,79.9,66.6,29.86,North,-999,0.0,0.0,64,0.00,,,-99.99,241,WeatherLink 5.4,2013-03-08 18:56:00,
2013-03-08 14:57:00,79.9,66.6,29.86,North,0,0.0,1.0,64,0.00,,,-99.99,248,WeatherLink 5.4,2013-03-08 18:57:00,
2013-03-08 14:58:00,79.9,66.6,29.86,East,90,1.0,6.0,64,0.00,,,-99.99,255,WeatherLink 5.4,2013-03-08 18:58:00,
2013-03-08 14:59:00,79.9,66.6,29.86,North,-999,0.0,0.0,64,0.00,,,-99.99,250,WeatherLink 5.4,2013-03-08 18:59:00,
2013-03-08 15:00:00,79.9,66.6,29.86,North,-999,0.0,0.0,64,0.00,,,-99.99,245,WeatherLink 5.4,2013-03-08 19:00:00,
2013-03-08 15:01:00,79.9,66.6,29.86,North,-999,0.0,0.0,64,0.00,,,-99.99,252,WeatherLink 5.4,2013-03-08 19:01:00,
2013-03-08 15:02:00,79.9,66.6,29.86,North,0,1.0,3.0,64,0.00,,,-99.99,259,WeatherLink 5.4,2013-03-08 19:02:00,
2013-03-08 15:03:00,79.9,66.6,29.86,NE,45,1.0,3.0,64,0.00,,,-99.99,267,WeatherLink 5.4,2013-03-08 19:03:00,
2013-03-08 15:04:00,79.9,66.6,29.86,NW,315,1.0,6.0,64,0.00,,,-99.99,272,WeatherLink 5.4,2013-03-08 19:04:00,
2013-03-08 15:05:00,79.9,67.1,29.86,North,0,4.0,7.0,65,0.00,,,-99.99,280,WeatherLink 5.4,2013-03-08 19:05:00,
2013-03-08 15:06:00,79.9,67.1,29.86,ENE,67,0.0,2.0,65,0.00,,,-99.99,304,WeatherLink 5.4,2013-03-08 19:06:00,
2013-03-08 15:07:00,79.8,67.0,29.86,East,90,1.0,6.0,65,0.00,,,-99.99,304,WeatherLink 5.4,2013-03-08 19:07:00,
2013-03-08 15:08:00,79.8,66.5,29.86,NNE,22,0.0,2.0,64,0.00,,,-99.99,304,WeatherLink 5.4,2013-03-08 19:08:00,
2013-03-08 15:09:00,79.8,67.0,29.86,NNE,22,1.0,2.0,65,0.00,,,-99.99,806,WeatherLink 5.4,2013-03-08 19:09:00,
2013-03-08 15:10:00,79.8,66.5,29.86,NNE,22,0.0,2.0,64,0.00,,,-99.99,806,WeatherLink 5.4,2013-03-08 19:10:00,
2013-03-08 15:11:00,79.8,66.5,29.86,NE,45,0.0,1.0,64,0.00,,,-99.99,655,WeatherLink 5.4,2013-03-08 19:11:00,
2013-03-08 15:12:00,79.9,67.1,29.86,North,-999,0.0,0.0,65,0.00,,,-99.99,655,WeatherLink 5.4,2013-03-08 19:12:00,
2013-03-08 15:13:00,79.9,67.1,29.86,North,0,2.0,6.0,65,0.00,,,-99.99,655,WeatherLink 5.4,2013-03-08 19:13:00,
2013-03-08 15:14:00,79.9,66.6,29.86,ENE,67,2.0,5.0,64,0.00,,,-99.99,259,WeatherLink 5.4,2013-03-08 19:14:00,
2013-03-08 15:15:00,80.1,66.8,29.86,ENE,67,0.0,1.0,64,0.00,,,-99.99,252,WeatherLink 5.4,2013-03-08 19:15:00,
2013-03-08 15:16:00,80.1,66.8,29.86,ENE,67,0.0,1.0,64,0.00,,,-99.99,250,WeatherLink 5.4,2013-03-08 19:16:00,
2013-03-08 15:17:00,80.1,66.8,29.86,North,0,1.0,5.0,64,0.00,,,-99.99,252,WeatherLink 5.4,2013-03-08 19:17:00,
2013-03-08 15:18:00,80.1,66.8,29.86,ENE,67,1.0,5.0,64,0.00,,,-99.99,252,WeatherLink 5.4,2013-03-08 19:18:00,
2013-03-08 15:19:00,80.1,67.3,29.86,ENE,67,1.0,3.0,65,0.00,,,-99.99,253,WeatherLink 5.4,2013-03-08 19:19:00,
2013-03-08 15:20:00,80.1,67.3,29.86,North,-999,0.0,0.0,65,0.00,,,-99.99,260,WeatherLink 5.4,2013-03-08 19:20:00,
2013-03-08 15:21:00,80.1,67.3,29.86,ENE,67,0.0,1.0,65,0.00,,,-99.99,269,WeatherLink 5.4,2013-03-08 19:21:00,
2013-03-08 15:22:00,80.1,66.8,29.86,North,-999,0.0,0.0,64,0.00,,,-99.99,274,WeatherLink 5.4,2013-03-08 19:22:00,
2013-03-08 15:23:00,80.1,66.8,29.86,North,-999,0.0,0.0,64,0.00,,,-99.99,267,WeatherLink 5.4,2013-03-08 19:23:00,
2013-03-08 15:24:00,80.1,66.8,29.86,ENE,67,1.0,4.0,64,0.00,,,-99.99,255,WeatherLink 5.4,2013-03-08 19:24:00,
2013-03-08 15:25:00,80.1,66.8,29.86,ENE,67,0.0,1.0,64,0.00,,,-99.99,243,WeatherLink 5.4,2013-03-08 19:25:00,
2013-03-08 15:26:00,80.1,66.8,29.86,North,-999,0.0,0.0,64,0.00,,,-99.99,236,WeatherLink 5.4,2013-03-08 19:26:00,
2013-03-08 15:27:00,80.1,66.8,29.86,North,-999,0.0,0.0,64,0.00,,,-99.99,227,WeatherLink 5.4,2013-03-08 19:27:00,
2013-03-08 15:28:00,80.1,67.3,29.86,North,-999,0.0,0.0,65,0.00,,,-99.99,223,WeatherLink 5.4,2013-03-08 19:28:00,
2013-03-08 15:29:00,80.1,67.3,29.86,North,-999,0.0,0.0,65,0.00,,,-99.99,233,WeatherLink 5.4,2013-03-08 19:29:00,
2013-03-08 15:30:00,80.1,66.8,29.86,North,0,0.0,1.0,64,0.00,,,-99.99,250,WeatherLink 5.4,2013-03-08 19:30:00,
2013-03-08 15:31:00,80.1,66.8,29.86,North,-999,0.0,0.0,64,0.00,,,-99.99,250,WeatherLink 5.4,2013-03-08 19:31:00,
2013-03-08 15:32:00,80.1,66.8,29.86,North,-999,0.0,0.0,64,0.00,,,-99.99,252,WeatherLink 5.4,2013-03-08 19:32:00,
2013-03-08 15:33:00,80.1,66.8,29.86,ENE,67,1.0,6.0,64,0.00,,,-99.99,252,WeatherLink 5.4,2013-03-08 19:33:00,
2013-03-08 15:34:00,79.9,66.6,29.86,East,90,2.0,6.0,64,0.00,,,-99.99,221,WeatherLink 5.4,2013-03-08 19:34:00,
2013-03-08 15:35:00,79.9,66.6,29.86,East,90,2.0,7.0,64,0.00,,,-99.99,194,WeatherLink 5.4,2013-03-08 19:35:00,
2013-03-08 15:36:00,79.9,66.6,29.86,ENE,67,1.0,3.0,64,0.00,,,-99.99,188,WeatherLink 5.4,2013-03-08 19:36:00,
2013-03-08 15:37:00,79.8,66.5,29.86,North,-999,0.0,0.0,64,0.00,,,-99.99,185,WeatherLink 5.4,2013-03-08 19:37:00,
2013-03-08 15:38:00,79.8,66.5,29.86,ENE,67,1.0,3.0,64,0.00,,,-99.99,181,WeatherLink 5.4,2013-03-08 19:38:00,
2013-03-08 15:39:00,79.8,66.5,29.86,North,-999,0.0,0.0,64,0.00,,,-99.99,191,WeatherLink 5.4,2013-03-08 19:39:00,
2013-03-08 15:40:00,79.8,66.5,29.86,ENE,67,0.0,1.0,64,0.00,,,-99.99,190,WeatherLink 5.4,2013-03-08 19:40:00,
2013-03-08 15:41:00,79.7,66.4,29.86,ENE,67,1.0,3.0,64,0.00,,,-99.99,179,WeatherLink 5.4,2013-03-08 19:41:00,
2013-03-08 15:42:00,79.6,66.3,29.86,North,-999,0.0,0.0,64,0.00,,,-99.99,176,WeatherLink 5.4,2013-03-08 19:42:00,
2013-03-08 15:43:00,79.6,66.8,29.86,North,-999,0.0,0.0,65,0.00,,,-99.99,171,WeatherLink 5.4,2013-03-08 19:43:00,
2013-03-08 15:44:00,79.6,66.8,29.86,ENE,67,0.0,1.0,65,0.00,,,-99.99,158,WeatherLink 5.4,2013-03-08 19:44:00,
2013-03-08 15:45:00,79.6,66.8,29.86,North,-999,0.0,0.0,65,0.00,,,-99.99,150,WeatherLink 5.4,2013-03-08 19:45:00,
2013-03-08 15:46:00,79.6,66.8,29.86,North,-999,0.0,0.0,65,0.00,,,-99.99,137,WeatherLink 5.4,2013-03-08 19:46:00,
2013-03-08 15:47:00,79.6,66.8,29.86,North,-999,0.0,0.0,65,0.00,,,-99.99,127,WeatherLink 5.4,2013-03-08 19:47:00,
2013-03-08 15:48:00,79.6,66.8,29.86,NW,315,1.0,5.0,65,0.00,,,-99.99,125,WeatherLink 5.4,2013-03-08 19:48:00,
2013-03-08 15:49:00,79.6,66.8,29.86,NW,315,0.0,2.0,65,0.00,,,-99.99,129,WeatherLink 5.4,2013-03-08 19:49:00,
2013-03-08 15:50:00,79.6,66.8,29.86,North,-999,0.0,0.0,65,0.00,,,-99.99,132,WeatherLink 5.4,2013-03-08 19:50:00,
2013-03-08 15:51:00,79.6,66.8,29.86,North,-999,0.0,0.0,65,0.00,,,-99.99,134,WeatherLink 5.4,2013-03-08 19:51:00,
2013-03-08 15:52:00,79.4,66.6,29.86,North,-999,0.0,0.0,65,0.00,,,-99.99,134,WeatherLink 5.4,2013-03-08 19:52:00,
2013-03-08 15:53:00,79.4,66.6,29.86,NW,315,1.0,5.0,65,0.00,,,-99.99,130,WeatherLink 5.4,2013-03-08 19:53:00,
2013-03-08 15:54:00,79.4,66.6,29.86,North,-999,0.0,0.0,65,0.00,,,-99.99,123,WeatherLink 5.4,2013-03-08 19:54:00,
2013-03-08 15:55:00,79.4,66.6,29.86,North,-999,0.0,0.0,65,0.00,,,-99.99,116,WeatherLink 5.4,2013-03-08 19:55:00,
2013-03-08 15:56:00,79.4,66.6,29.86,North,-999,0.0,0.0,65,0.00,,,-99.99,111,WeatherLink 5.4,2013-03-08 19:56:00,
2013-03-08 15:57:00,79.4,66.6,29.86,North,-999,0.0,0.0,65,0.00,,,-99.99,111,WeatherLink 5.4,2013-03-08 19:57:00,
2013-03-08 15:58:00,79.4,66.6,29.86,North,-999,0.0,0.0,65,0.00,,,-99.99,116,WeatherLink 5.4,2013-03-08 19:58:00,
2013-03-08 15:59:00,79.4,66.6,29.86,North,-999,0.0,0.0,65,0.00,,,-99.99,124,WeatherLink 5.4,2013-03-08 19:59:00,
2013-03-08 16:00:00,79.2,66.4,29.86,North,-999,0.0,0.0,65,0.00,,,-99.99,135,WeatherLink 5.4,2013-03-08 20:00:00,
2013-03-08 16:01:00,79.2,66.4,29.86,North,-999,0.0,0.0,65,0.00,,,-99.99,144,WeatherLink 5.4,2013-03-08 20:01:00,
2013-03-08 16:02:00,79.2,66.4,29.86,North,-999,0.0,0.0,65,0.00,,,-99.99,148,WeatherLink 5.4,2013-03-08 20:02:00,
2013-03-08 16:03:00,79.2,66.4,29.86,North,-999,0.0,0.0,65,0.00,,,-99.99,151,WeatherLink 5.4,2013-03-08 20:03:00,
2013-03-08 16:04:00,79.2,66.4,29.86,NE,45,1.0,3.0,65,0.00,,,-99.99,155,WeatherLink 5.4,2013-03-08 20:04:00,
2013-03-08 16:05:00,79.0,66.2,29.86,NE,45,0.0,1.0,65,0.00,,,-99.99,153,WeatherLink 5.4,2013-03-08 20:05:00,
2013-03-08 16:06:00,79.0,65.8,29.86,North,-999,0.0,0.0,64,0.00,,,-99.99,144,WeatherLink 5.4,2013-03-08 20:06:00,
2013-03-08 16:07:00,79.0,65.8,29.86,North,-999,0.0,0.0,64,0.00,,,-99.99,135,WeatherLink 5.4,2013-03-08 20:07:00,
2013-03-08 16:08:00,79.0,66.2,29.86,North,-999,0.0,0.0,65,0.00,,,-99.99,127,WeatherLink 5.4,2013-03-08 20:08:00,
2013-03-08 16:09:00,79.0,66.2,29.86,NE,45,0.0,1.0,65,0.00,,,-99.99,110,WeatherLink 5.4,2013-03-08 20:09:00,
2013-03-08 16:10:00,78.8,66.0,29.86,North,-999,0.0,0.0,65,0.00,,,-99.99,91,WeatherLink 5.4,2013-03-08 20:10:00,
2013-03-08 16:11:00,78.8,66.5,29.86,North,-999,0.0,0.0,66,0.00,,,-99.99,83,WeatherLink 5.4,2013-03-08 20:11:00,
2013-03-08 16:12:00,78.8,66.5,29.86,North,-999,0.0,0.0,66,0.00,,,-99.99,77,WeatherLink 5.4,2013-03-08 20:12:00,
2013-03-08 16:13:00,78.8,66.5,29.86,NNE,22,1.0,3.0,66,0.00,,,-99.99,76,WeatherLink 5.4,2013-03-08 20:13:00,
2013-03-08 16:14:00,78.8,66.5,29.86,North,0,1.0,3.0,66,0.00,,,-99.99,71,WeatherLink 5.4,2013-03-08 20:14:00,
2013-03-08 16:15:00,78.6,66.3,29.87,North,-999,0.0,0.0,66,0.00,,,-99.99,65,WeatherLink 5.4,2013-03-08 20:15:00,
2013-03-08 16:16:00,78.6,66.3,29.87,NNW,337,0.0,1.0,66,0.00,,,-99.99,62,WeatherLink 5.4,2013-03-08 20:16:00,
2013-03-08 16:17:00,78.6,66.3,29.87,North,-999,0.0,0.0,66,0.00,,,-99.99,60,WeatherLink 5.4,2013-03-08 20:17:00,
2013-03-08 16:18:00,78.6,66.3,29.87,North,-999,0.0,0.0,66,0.00,,,-99.99,56,WeatherLink 5.4,2013-03-08 20:18:00,
2013-03-08 16:19:00,78.6,66.3,29.87,North,-999,0.0,0.0,66,0.00,,,-99.99,56,WeatherLink 5.4,2013-03-08 20:19:00,
2013-03-08 16:20:00,78.5,66.2,29.87,North,-999,0.0,0.0,66,0.00,,,-99.99,55,WeatherLink 5.4,2013-03-08 20:20:00,
2013-03-08 16:21:00,78.5,66.2,29.87,North,-999,0.0,0.0,66,0.00,,,-99.99,56,WeatherLink 5.4,2013-03-08 20:21:00,
2013-03-08 16:22:00,78.5,66.2,29.87,North,-999,0.0,0.0,66,0.00,,,-99.99,58,WeatherLink 5.4,2013-03-08 20:22:00,
2013-03-08 16:23:00,78.5,66.2,29.87,North,-999,0.0,0.0,66,0.00,,,-99.99,58,WeatherLink 5.4,2013-03-08 20:23:00,
2013-03-08 16:24:00,78.5,66.2,29.87,North,-999,0.0,0.0,66,0.00,,,-99.99,60,WeatherLink 5.4,2013-03-08 20:24:00,
2013-03-08 16:25:00,78.3,66.0,29.87,North,-999,0.0,0.0,66,0.00,,,-99.99,63,WeatherLink 5.4,2013-03-08 20:25:00,
2013-03-08 16:26:00,78.3,66.0,29.87,North,-999,0.0,0.0,66,0.00,,,-99.99,63,WeatherLink 5.4,2013-03-08 20:26:00,
2013-03-08 16:27:00,78.3,66.4,29.87,North,-999,0.0,0.0,67,0.00,,,-99.99,63,WeatherLink 5.4,2013-03-08 20:27:00,
2013-03-08 16:28:00,78.3,66.4,29.87,North,-999,0.0,0.0,67,0.00,,,-99.99,62,WeatherLink 5.4,2013-03-08 20:28:00,
2013-03-08 16:29:00,78.3,66.4,29.87,North,-999,0.0,0.0,67,0.00,,,-99.99,59,WeatherLink 5.4,2013-03-08 20:29:00,
2013-03-08 16:30:00,78.3,66.4,29.87,North,-999,0.0,0.0,67,0.00,,,-99.99,56,WeatherLink 5.4,2013-03-08 20:30:00,
2013-03-08 16:31:00,78.3,66.4,29.87,North,-999,0.0,0.0,67,0.00,,,-99.99,56,WeatherLink 5.4,2013-03-08 20:31:00,
2013-03-08 16:32:00,78.3,66.0,29.87,North,-999,0.0,0.0,66,0.00,,,-99.99,55,WeatherLink 5.4,2013-03-08 20:32:00,
2013-03-08 16:33:00,78.3,66.0,29.87,North,0,0.0,1.0,66,0.00,,,-99.99,55,WeatherLink 5.4,2013-03-08 20:33:00,
2013-03-08 16:34:00,78.1,65.8,29.87,North,-999,0.0,0.0,66,0.00,,,-99.99,52,WeatherLink 5.4,2013-03-08 20:34:00,
2013-03-08 16:35:00,78.1,65.8,29.87,North,0,0.0,1.0,66,0.00,,,-99.99,49,WeatherLink 5.4,2013-03-08 20:35:00,
2013-03-08 16:36:00,78.1,65.8,29.87,North,-999,0.0,0.0,66,0.00,,,-99.99,49,WeatherLink 5.4,2013-03-08 20:36:00,
2013-03-08 16:37:00,78.1,65.8,29.87,North,-999,0.0,0.0,66,0.00,,,-99.99,48,WeatherLink 5.4,2013-03-08 20:37:00,
2013-03-08 16:38:00,78.1,65.8,29.87,North,-999,0.0,0.0,66,0.00,,,-99.99,48,WeatherLink 5.4,2013-03-08 20:38:00,
2013-03-08 16:39:00,78.1,65.8,29.87,North,-999,0.0,0.0,66,0.00,,,-99.99,45,WeatherLink 5.4,2013-03-08 20:39:00,
2013-03-08 16:40:00,78.1,65.8,29.87,North,-999,0.0,0.0,66,0.00,,,-99.99,40,WeatherLink 5.4,2013-03-08 20:40:00,
2013-03-08 16:41:00,78.1,65.8,29.87,North,-999,0.0,0.0,66,0.00,,,-99.99,37,WeatherLink 5.4,2013-03-08 20:41:00,
2013-03-08 16:42:00,78.1,65.8,29.87,North,-999,0.0,0.0,66,0.00,,,-99.99,35,WeatherLink 5.4,2013-03-08 20:42:00,
2013-03-08 16:43:00,78.1,65.8,29.87,North,-999,0.0,0.0,66,0.00,,,-99.99,33,WeatherLink 5.4,2013-03-08 20:43:00,
2013-03-08 16:44:00,78.1,66.2,29.87,North,-999,0.0,0.0,67,0.00,,,-99.99,31,WeatherLink 5.4,2013-03-08 20:44:00,
2013-03-08 16:45:00,78.1,65.8,29.88,North,-999,0.0,0.0,66,0.00,,,-99.99,30,WeatherLink 5.4,2013-03-08 20:45:00,
2013-03-08 16:46:00,78.1,65.8,29.88,North,-999,0.0,0.0,66,0.00,,,-99.99,30,WeatherLink 5.4,2013-03-08 20:46:00,
2013-03-08 16:47:00,78.1,66.2,29.88,North,-999,0.0,0.0,67,0.00,,,-99.99,30,WeatherLink 5.4,2013-03-08 20:47:00,
2013-03-08 16:48:00,78.1,66.2,29.88,North,-999,0.0,0.0,67,0.00,,,-99.99,30,WeatherLink 5.4,2013-03-08 20:48:00,
2013-03-08 16:49:00,78.1,66.2,29.88,North,-999,0.0,0.0,67,0.00,,,-99.99,32,WeatherLink 5.4,2013-03-08 20:49:00,
2013-03-08 16:50:00,78.1,66.2,29.88,North,-999,0.0,0.0,67,0.00,,,-99.99,32,WeatherLink 5.4,2013-03-08 20:50:00,
2013-03-08 16:51:00,78.1,66.2,29.88,North,-999,0.0,0.0,67,0.00,,,-99.99,32,WeatherLink 5.4,2013-03-08 20:51:00,
2013-03-08 16:52:00,78.1,66.2,29.88,North,-999,0.0,0.0,67,0.00,,,-99.99,32,WeatherLink 5.4,2013-03-08 20:52:00,
2013-03-08 16:53:00,78.1,66.2,29.88,North,-999,0.0,0.0,67,0.00,,,-99.99,32,WeatherLink 5.4,2013-03-08 20:53:00,
2013-03-08 16:54:00,78.1,66.2,29.88,North,-999,0.0,0.0,67,0.00,,,-99.99,30,WeatherLink 5.4,2013-03-08 20:54:00,
2013-03-08 16:55:00,78.1,66.2,29.88,North,-999,0.0,0.0,67,0.00,,,-99.99,28,WeatherLink 5.4,2013-03-08 20:55:00,
2013-03-08 16:56:00,78.1,66.2,29.88,North,-999,0.0,0.0,67,0.00,,,-99.99,28,WeatherLink 5.4,2013-03-08 20:56:00,
2013-03-08 16:57:00,78.1,66.2,29.88,North,-999,0.0,0.0,67,0.00,,,-99.99,26,WeatherLink 5.4,2013-03-08 20:57:00,
2013-03-08 16:58:00,78.1,66.2,29.88,North,-999,0.0,0.0,67,0.00,,,-99.99,26,WeatherLink 5.4,2013-03-08 20:58:00,
2013-03-08 16:59:00,78.0,65.7,29.88,North,-999,0.0,0.0,66,0.00,,,-99.99,25,WeatherLink 5.4,2013-03-08 20:59:00,
2013-03-08 17:00:00,77.9,65.6,29.88,North,-999,0.0,0.0,66,0.00,,,-99.99,26,WeatherLink 5.4,2013-03-08 21:00:00,
2013-03-08 17:01:00,77.9,66.1,29.88,North,-999,0.0,0.0,67,0.00,,,-99.99,26,WeatherLink 5.4,2013-03-08 21:01:00,
2013-03-08 17:02:00,77.9,66.1,29.88,North,-999,0.0,0.0,67,0.00,,,-99.99,26,WeatherLink 5.4,2013-03-08 21:02:00,
2013-03-08 17:03:00,77.9,65.6,29.88,North,0,0.0,1.0,66,0.00,,,-99.99,26,WeatherLink 5.4,2013-03-08 21:03:00,
2013-03-08 17:04:00,77.9,66.1,29.88,North,-999,0.0,0.0,67,0.00,,,-99.99,27,WeatherLink 5.4,2013-03-08 21:04:00,
2013-03-08 17:05:00,77.9,65.6,29.88,North,-999,0.0,0.0,66,0.00,,,-99.99,28,WeatherLink 5.4,2013-03-08 21:05:00,
2013-03-08 17:06:00,77.9,65.6,29.88,North,-999,0.0,0.0,66,0.00,,,-99.99,28,WeatherLink 5.4,2013-03-08 21:06:00,
2013-03-08 17:07:00,77.9,65.6,29.88,North,-999,0.0,0.0,66,0.00,,,-99.99,30,WeatherLink 5.4,2013-03-08 21:07:00,
2013-03-08 17:08:00,77.9,65.6,29.88,North,-999,0.0,0.0,66,0.00,,,-99.99,30,WeatherLink 5.4,2013-03-08 21:08:00,
2013-03-08 17:09:00,77.9,66.1,29.88,North,-999,0.0,0.0,67,0.00,,,-99.99,31,WeatherLink 5.4,2013-03-08 21:09:00,
2013-03-08 17:10:00,77.9,66.1,29.88,North,-999,0.0,0.0,67,0.00,,,-99.99,32,WeatherLink 5.4,2013-03-08 21:10:00,
2013-03-08 17:11:00,77.9,66.1,29.88,North,-999,0.0,0.0,67,0.00,,,-99.99,32,WeatherLink 5.4,2013-03-08 21:11:00,
2013-03-08 17:12:00,77.9,66.1,29.88,North,-999,0.0,0.0,67,0.00,,,-99.99,32,WeatherLink 5.4,2013-03-08 21:12:00,
2013-03-08 17:13:00,77.9,66.1,29.88,North,-999,0.0,0.0,67,0.00,,,-99.99,32,WeatherLink 5.4,2013-03-08 21:13:00,
2013-03-08 17:14:00,77.9,66.1,29.88,North,-999,0.0,0.0,67,0.00,,,-99.99,30,WeatherLink 5.4,2013-03-08 21:14:00,
2013-03-08 17:15:00,77.9,66.1,29.88,North,-999,0.0,0.0,67,0.00,,,-99.99,28,WeatherLink 5.4,2013-03-08 21:15:00,
2013-03-08 17:16:00,77.9,66.1,29.88,North,-999,0.0,0.0,67,0.00,,,-99.99,26,WeatherLink 5.4,2013-03-08 21:16:00,
2013-03-08 17:17:00,77.9,66.1,29.88,North,-999,0.0,0.0,67,0.00,,,-99.99,26,WeatherLink 5.4,2013-03-08 21:17:00,
2013-03-08 17:18:00,77.9,66.1,29.88,North,-999,0.0,0.0,67,0.00,,,-99.99,25,WeatherLink 5.4,2013-03-08 21:18:00,
2013-03-08 17:19:00,77.9,66.1,29.88,North,-999,0.0,0.0,67,0.00,,,-99.99,25,WeatherLink 5.4,2013-03-08 21:19:00,
2013-03-08 17:20:00,77.9,66.1,29.88,North,-999,0.0,0.0,67,0.00,,,-99.99,25,WeatherLink 5.4,2013-03-08 21:20:00,
2013-03-08 17:21:00,77.9,66.1,29.88,North,-999,0.0,0.0,67,0.00,,,-99.99,25,WeatherLink 5.4,2013-03-08 21:21:00,
2013-03-08 17:22:00,77.9,66.1,29.88,North,-999,0.0,0.0,67,0.00,,,-99.99,25,WeatherLink 5.4,2013-03-08 21:22:00,
2013-03-08 17:23:00,77.9,66.1,29.88,North,-999,0.0,0.0,67,0.00,,,-99.99,25,WeatherLink 5.4,2013-03-08 21:23:00,
2013-03-08 17:24:00,77.9,65.6,29.88,North,-999,0.0,0.0,66,0.00,,,-99.99,24,WeatherLink 5.4,2013-03-08 21:24:00,
2013-03-08 17:25:00,77.9,65.6,29.88,North,-999,0.0,0.0,66,0.00,,,-99.99,23,WeatherLink 5.4,2013-03-08 21:25:00,
2013-03-08 17:26:00,77.9,66.1,29.88,North,-999,0.0,0.0,67,0.00,,,-99.99,21,WeatherLink 5.4,2013-03-08 21:26:00,
2013-03-08 17:27:00,77.9,66.1,29.88,North,-999,0.0,0.0,67,0.00,,,-99.99,21,WeatherLink 5.4,2013-03-08 21:27:00,
2013-03-08 17:28:00,77.9,66.1,29.88,North,-999,0.0,0.0,67,0.00,,,-99.99,21,WeatherLink 5.4,2013-03-08 21:28:00,
2013-03-08 17:29:00,77.9,66.1,29.88,North,-999,0.0,0.0,67,0.00,,,-99.99,20,WeatherLink 5.4,2013-03-08 21:29:00,
2013-03-08 17:30:00,77.9,66.1,29.88,North,-999,0.0,0.0,67,0.00,,,-99.99,19,WeatherLink 5.4,2013-03-08 21:30:00,
2013-03-08 17:31:00,77.9,66.1,29.88,North,-999,0.0,0.0,67,0.00,,,-99.99,19,WeatherLink 5.4,2013-03-08 21:31:00,
2013-03-08 17:32:00,77.9,66.1,29.88,North,-999,0.0,0.0,67,0.00,,,-99.99,19,WeatherLink 5.4,2013-03-08 21:32:00,
2013-03-08 17:33:00,77.7,65.9,29.88,North,-999,0.0,0.0,67,0.00,,,-99.99,19,WeatherLink 5.4,2013-03-08 21:33:00,
2013-03-08 17:34:00,77.7,65.9,29.88,North,-999,0.0,0.0,67,0.00,,,-99.99,19,WeatherLink 5.4,2013-03-08 21:34:00,
2013-03-08 17:35:00,77.7,65.9,29.88,North,-999,0.0,0.0,67,0.00,,,-99.99,19,WeatherLink 5.4,2013-03-08 21:35:00,
2013-03-08 17:36:00,77.7,66.3,29.88,North,-999,0.0,0.0,68,0.00,,,-99.99,18,WeatherLink 5.4,2013-03-08 21:36:00,
2013-03-08 17:37:00,77.7,66.3,29.88,North,-999,0.0,0.0,68,0.00,,,-99.99,18,WeatherLink 5.4,2013-03-08 21:37:00,
2013-03-08 17:38:00,77.7,65.9,29.88,North,-999,0.0,0.0,67,0.00,,,-99.99,18,WeatherLink 5.4,2013-03-08 21:38:00,
2013-03-08 17:39:00,77.7,65.9,29.88,North,-999,0.0,0.0,67,0.00,,,-99.99,19,WeatherLink 5.4,2013-03-08 21:39:00,
2013-03-08 17:40:00,77.7,65.4,29.88,North,-999,0.0,0.0,66,0.00,,,-99.99,19,WeatherLink 5.4,2013-03-08 21:40:00,
2013-03-08 17:41:00,77.7,65.4,29.88,North,-999,0.0,0.0,66,0.00,,,-99.99,21,WeatherLink 5.4,2013-03-08 21:41:00,
2013-03-08 17:42:00,77.7,65.4,29.88,North,-999,0.0,0.0,66,0.00,,,-99.99,21,WeatherLink 5.4,2013-03-08 21:42:00,
2013-03-08 17:43:00,77.4,60.0,29.88,North,-999,0.0,0.0,55,0.00,,,-99.99,21,WeatherLink 5.4,2013-03-08 21:43:00,
2013-03-08 17:44:00,77.4,61.9,29.88,North,-999,0.0,0.0,59,0.00,,,-99.99,21,WeatherLink 5.4,2013-03-08 21:44:00,
2013-03-08 17:45:00,77.4,63.4,29.89,North,-999,0.0,0.0,62,0.00,,,-99.99,21,WeatherLink 5.4,2013-03-08 21:45:00,
2013-03-08 17:46:00,77.6,64.0,29.89,North,-999,0.0,0.0,63,0.00,,,-99.99,21,WeatherLink 5.4,2013-03-08 21:46:00,
2013-03-08 17:47:00,77.5,63.5,29.89,West,270,2.0,6.0,62,0.00,,,-99.99,19,WeatherLink 5.4,2013-03-08 21:47:00,
2013-03-08 17:48:00,77.4,61.5,29.89,West,270,2.0,4.0,58,0.00,,,-99.99,18,WeatherLink 5.4,2013-03-08 21:48:00,
2013-03-08 17:49:00,77.2,59.8,29.89,NW,315,5.0,9.0,55,0.00,,,-99.99,17,WeatherLink 5.4,2013-03-08 21:49:00,
2013-03-08 17:50:00,77.1,59.7,29.89,WNW,292,7.0,9.0,55,0.00,,,-99.99,16,WeatherLink 5.4,2013-03-08 21:50:00,
2013-03-08 17:51:00,77.0,59.6,29.89,West,270,6.0,8.0,55,0.00,,,-99.99,16,WeatherLink 5.4,2013-03-08 21:51:00,
2013-03-08 17:52:00,76.8,59.9,29.89,WNW,292,4.0,6.0,56,0.00,,,-99.99,16,WeatherLink 5.4,2013-03-08 21:52:00,
2013-03-08 17:53:00,76.7,59.8,29.89,WNW,292,1.0,3.0,56,0.00,,,-99.99,16,WeatherLink 5.4,2013-03-08 21:53:00,
2013-03-08 17:54:00,76.7,59.8,29.89,North,-999,0.0,0.0,56,0.00,,,-99.99,18,WeatherLink 5.4,2013-03-08 21:54:00,
2013-03-08 17:55:00,76.6,60.7,29.89,North,-999,0.0,0.0,58,0.00,,,-99.99,19,WeatherLink 5.4,2013-03-08 21:55:00,
2013-03-08 17:56:00,76.5,60.6,29.89,North,-999,0.0,0.0,58,0.00,,,-99.99,21,WeatherLink 5.4,2013-03-08 21:56:00,
2013-03-08 17:57:00,76.4,59.5,29.89,North,-999,0.0,0.0,56,0.00,,,-99.99,23,WeatherLink 5.4,2013-03-08 21:57:00,
2013-03-08 17:58:00,76.3,59.9,29.89,North,-999,0.0,0.0,57,0.00,,,-99.99,25,WeatherLink 5.4,2013-03-08 21:58:00,
2013-03-08 17:59:00,76.2,58.9,29.89,SW,225,0.0,1.0,55,0.00,,,-99.99,28,WeatherLink 5.4,2013-03-08 21:59:00,
2013-03-08 18:00:00,76.1,58.8,29.89,North,-999,0.0,0.0,55,0.00,,,-99.99,30,WeatherLink 5.4,2013-03-08 22:00:00,
2013-03-08 18:01:00,76.1,60.2,29.89,North,-999,0.0,0.0,58,0.00,,,-99.99,30,WeatherLink 5.4,2013-03-08 22:01:00,
2013-03-08 18:02:00,76.1,60.7,29.89,West,270,1.0,6.0,59,0.00,,,-99.99,30,WeatherLink 5.4,2013-03-08 22:02:00,
2013-03-08 18:03:00,76.0,60.6,29.89,West,270,4.0,6.0,59,0.00,,,-99.99,30,WeatherLink 5.4,2013-03-08 22:03:00,
2013-03-08 18:04:00,75.9,60.5,29.89,West,270,1.0,4.0,59,0.00,,,-99.99,25,WeatherLink 5.4,2013-03-08 22:04:00,
2013-03-08 18:05:00,75.8,61.4,29.89,North,-999,0.0,0.0,61,0.00,,,-99.99,21,WeatherLink 5.4,2013-03-08 22:05:00,
2013-03-08 18:06:00,75.7,60.8,29.89,North,-999,0.0,0.0,60,0.00,,,-99.99,18,WeatherLink 5.4,2013-03-08 22:06:00,
2013-03-08 18:07:00,75.6,60.3,29.89,North,-999,0.0,0.0,59,0.00,,,-99.99,16,WeatherLink 5.4,2013-03-08 22:07:00,
2013-03-08 18:08:00,75.5,60.6,29.89,North,-999,0.0,0.0,60,0.00,,,-99.99,14,WeatherLink 5.4,2013-03-08 22:08:00,
2013-03-08 18:09:00,75.4,60.5,29.89,North,-999,0.0,0.0,60,0.00,,,-99.99,12,WeatherLink 5.4,2013-03-08 22:09:00,
2013-03-08 18:10:00,75.4,61.9,29.89,North,-999,0.0,0.0,63,0.00,,,-99.99,11,WeatherLink 5.4,2013-03-08 22:10:00,
2013-03-08 18:11:00,75.4,61.9,29.89,North,-999,0.0,0.0,63,0.00,,,-99.99,11,WeatherLink 5.4,2013-03-08 22:11:00,
2013-03-08 18:12:00,75.3,61.8,29.89,West,270,0.0,1.0,63,0.00,,,-99.99,11,WeatherLink 5.4,2013-03-08 22:12:00,
2013-03-08 18:13:00,75.1,61.6,29.89,North,-999,0.0,0.0,63,0.00,,,-99.99,11,WeatherLink 5.4,2013-03-08 22:13:00,
2013-03-08 18:14:00,75.1,62.1,29.89,North,-999,0.0,0.0,64,0.00,,,-99.99,12,WeatherLink 5.4,2013-03-08 22:14:00,
2013-03-08 18:15:00,75.1,62.5,29.89,North,-999,0.0,0.0,65,0.00,,,-99.99,12,WeatherLink 5.4,2013-03-08 22:15:00,
2013-03-08 18:16:00,74.9,62.3,29.89,West,270,0.0,1.0,65,0.00,,,-99.99,12,WeatherLink 5.4,2013-03-08 22:16:00,
2013-03-08 18:17:00,74.9,62.8,29.89,North,-999,0.0,0.0,66,0.00,,,-99.99,12,WeatherLink 5.4,2013-03-08 22:17:00,
2013-03-08 18:18:00,74.9,62.8,29.89,North,-999,0.0,0.0,66,0.00,,,-99.99,11,WeatherLink 5.4,2013-03-08 22:18:00,
2013-03-08 18:19:00,74.7,62.6,29.89,North,-999,0.0,0.0,66,0.00,,,-99.99,11,WeatherLink 5.4,2013-03-08 22:19:00,
2013-03-08 18:20:00,74.7,62.6,29.89,North,-999,0.0,0.0,66,0.00,,,-99.99,11,WeatherLink 5.4,2013-03-08 22:20:00,
2013-03-08 18:21:00,74.7,63.0,29.89,North,-999,0.0,0.0,67,0.00,,,-99.99,12,WeatherLink 5.4,2013-03-08 22:21:00,
2013-03-08 18:22:00,74.6,62.9,29.89,SE,135,1.0,5.0,67,0.00,,,-99.99,12,WeatherLink 5.4,2013-03-08 22:22:00,
2013-03-08 18:23:00,74.6,62.5,29.89,SE,135,0.0,2.0,66,0.00,,,-99.99,12,WeatherLink 5.4,2013-03-08 22:23:00,
2013-03-08 18:24:00,74.6,62.1,29.89,ESE,112,3.0,6.0,65,0.00,,,-99.99,14,WeatherLink 5.4,2013-03-08 22:24:00,
2013-03-08 18:25:00,74.4,61.4,29.89,ESE,112,2.0,4.0,64,0.00,,,-99.99,12,WeatherLink 5.4,2013-03-08 22:25:00,
2013-03-08 18:26:00,74.4,61.4,29.89,ESE,112,1.0,4.0,64,0.00,,,-99.99,12,WeatherLink 5.4,2013-03-08 22:26:00,
2013-03-08 18:27:00,74.4,61.4,29.89,ESE,112,2.0,3.0,64,0.00,,,-99.99,12,WeatherLink 5.4,2013-03-08 22:27:00,
2013-03-08 18:28:00,74.4,61.4,29.89,ESE,112,0.0,1.0,64,0.00,,,-99.99,9,WeatherLink 5.4,2013-03-08 22:28:00,
2013-03-08 18:29:00,74.4,61.9,29.89,North,-999,0.0,0.0,65,0.00,,,-99.99,6,WeatherLink 5.4,2013-03-08 22:29:00,
2013-03-08 18:30:00,74.4,62.3,29.89,North,-999,0.0,0.0,66,0.00,,,-99.99,5,WeatherLink 5.4,2013-03-08 22:30:00,
2013-03-08 18:31:00,74.4,62.3,29.89,North,-999,0.0,0.0,66,0.00,,,-99.99,5,WeatherLink 5.4,2013-03-08 22:31:00,
2013-03-08 18:32:00,74.4,62.3,29.89,North,-999,0.0,0.0,66,0.00,,,-99.99,0,WeatherLink 5.4,2013-03-08 22:32:00,
2013-03-08 18:33:00,74.4,61.9,29.89,North,-999,0.0,0.0,65,0.00,,,-99.99,0,WeatherLink 5.4,2013-03-08 22:33:00,
2013-03-08 18:34:00,74.4,61.4,29.89,ESE,112,0.0,1.0,64,0.00,,,-99.99,0,WeatherLink 5.4,2013-03-08 22:34:00,
2013-03-08 18:35:00,74.4,61.4,29.89,North,-999,0.0,0.0,64,0.00,,,-99.99,0,WeatherLink 5.4,2013-03-08 22:35:00,
2013-03-08 18:36:00,74.4,61.4,29.89,North,-999,0.0,0.0,64,0.00,,,-99.99,0,WeatherLink 5.4,2013-03-08 22:36:00,
2013-03-08 18:37:00,74.4,61.4,29.89,North,-999,0.0,0.0,64,0.00,,,-99.99,0,WeatherLink 5.4,2013-03-08 22:37:00,
2013-03-08 18:38:00,74.4,61.9,29.89,North,-999,0.0,0.0,65,0.00,,,-99.99,0,WeatherLink 5.4,2013-03-08 22:38:00,
2013-03-08 18:39:00,74.4,61.4,29.89,North,-999,0.0,0.0,64,0.00,,,-99.99,0,WeatherLink 5.4,2013-03-08 22:39:00,
2013-03-08 18:40:00,74.4,61.4,29.89,North,-999,0.0,0.0,64,0.00,,,-99.99,0,WeatherLink 5.4,2013-03-08 22:40:00,
2013-03-08 18:41:00,74.4,61.4,29.89,North,-999,0.0,0.0,64,0.00,,,-99.99,0,WeatherLink 5.4,2013-03-08 22:41:00,
2013-03-08 18:42:00,74.4,61.9,29.89,North,-999,0.0,0.0,65,0.00,,,-99.99,0,WeatherLink 5.4,2013-03-08 22:42:00,
2013-03-08 18:43:00,74.4,61.9,29.89,North,-999,0.0,0.0,65,0.00,,,-99.99,0,WeatherLink 5.4,2013-03-08 22:43:00,
2013-03-08 18:44:00,74.4,61.9,29.89,North,-999,0.0,0.0,65,0.00,,,-99.99,0,WeatherLink 5.4,2013-03-08 22:44:00,
2013-03-08 18:45:00,74.4,61.9,29.89,North,-999,0.0,0.0,65,0.00,,,-99.99,0,WeatherLink 5.4,2013-03-08 22:45:00,
2013-03-08 18:46:00,74.4,61.4,29.89,North,-999,0.0,0.0,64,0.00,,,-99.99,0,WeatherLink 5.4,2013-03-08 22:46:00,
2013-03-08 18:47:00,74.4,61.4,29.89,North,-999,0.0,0.0,64,0.00,,,-99.99,0,WeatherLink 5.4,2013-03-08 22:47:00,
2013-03-08 18:48:00,74.4,61.4,29.89,North,-999,0.0,0.0,64,0.00,,,-99.99,0,WeatherLink 5.4,2013-03-08 22:48:00,
2013-03-08 18:49:00,74.4,61.4,29.89,North,-999,0.0,0.0,64,0.00,,,-99.99,0,WeatherLink 5.4,2013-03-08 22:49:00,
2013-03-08 18:50:00,74.4,61.4,29.89,North,-999,0.0,0.0,64,0.00,,,-99.99,0,WeatherLink 5.4,2013-03-08 22:50:00,
2013-03-08 18:51:00,74.4,61.4,29.89,North,-999,0.0,0.0,64,0.00,,,-99.99,0,WeatherLink 5.4,2013-03-08 22:51:00,
2013-03-08 18:52:00,74.4,61.4,29.89,North,-999,0.0,0.0,64,0.00,,,-99.99,0,WeatherLink 5.4,2013-03-08 22:52:00,
2013-03-08 18:53:00,74.4,61.9,29.89,North,-999,0.0,0.0,65,0.00,,,-99.99,0,WeatherLink 5.4,2013-03-08 22:53:00,
2013-03-08 18:54:00,74.4,61.9,29.89,North,-999,0.0,0.0,65,0.00,,,-99.99,0,WeatherLink 5.4,2013-03-08 22:54:00,
2013-03-08 18:55:00,74.4,61.9,29.89,North,-999,0.0,0.0,65,0.00,,,-99.99,0,WeatherLink 5.4,2013-03-08 22:55:00,
2013-03-08 18:56:00,74.4,61.4,29.89,North,-999,0.0,0.0,64,0.00,,,-99.99,0,WeatherLink 5.4,2013-03-08 22:56:00,
2013-03-08 18:57:00,74.4,61.4,29.89,North,-999,0.0,0.0,64,0.00,,,-99.99,0,WeatherLink 5.4,2013-03-08 22:57:00,
2013-03-08 18:58:00,74.4,61.9,29.89,North,-999,0.0,0.0,65,0.00,,,-99.99,0,WeatherLink 5.4,2013-03-08 22:58:00,
2013-03-08 18:59:00,74.4,61.4,29.89,North,-999,0.0,0.0,64,0.00,,,-99.99,0,WeatherLink 5.4,2013-03-08 22:59:00,
2013-03-08 19:00:00,74.4,61.9,29.90,North,-999,0.0,0.0,65,0.00,,,-99.99,0,WeatherLink 5.4,2013-03-08 23:00:00,
2013-03-08 19:01:00,74.4,61.9,29.90,North,-999,0.0,0.0,65,0.00,,,-99.99,0,WeatherLink 5.4,2013-03-08 23:01:00,
2013-03-08 19:02:00,74.4,61.4,29.90,North,-999,0.0,0.0,64,0.00,,,-99.99,0,WeatherLink 5.4,2013-03-08 23:02:00,
2013-03-08 19:03:00,74.4,61.4,29.90,North,-999,0.0,0.0,64,0.00,,,-99.99,0,WeatherLink 5.4,2013-03-08 23:03:00,
2013-03-08 19:04:00,74.4,61.4,29.90,North,-999,0.0,0.0,64,0.00,,,-99.99,0,WeatherLink 5.4,2013-03-08 23:04:00,
2013-03-08 19:05:00,74.4,61.4,29.90,North,-999,0.0,0.0,64,0.00,,,-99.99,0,WeatherLink 5.4,2013-03-08 23:05:00,
2013-03-08 19:06:00,74.4,61.4,29.90,North,-999,0.0,0.0,64,0.00,,,-99.99,0,WeatherLink 5.4,2013-03-08 23:06:00,
2013-03-08 19:07:00,74.4,61.4,29.90,North,-999,0.0,0.0,64,0.00,,,-99.99,0,WeatherLink 5.4,2013-03-08 23:07:00,
2013-03-08 19:08:00,74.4,61.4,29.90,North,-999,0.0,0.0,64,0.00,,,-99.99,0,WeatherLink 5.4,2013-03-08 23:08:00,
2013-03-08 19:09:00,74.4,61.4,29.90,North,-999,0.0,0.0,64,0.00,,,-99.99,0,WeatherLink 5.4,2013-03-08 23:09:00,
2013-03-08 19:10:00,74.4,61.4,29.90,North,-999,0.0,0.0,64,0.00,,,-99.99,0,WeatherLink 5.4,2013-03-08 23:10:00,
2013-03-08 19:11:00,74.4,61.4,29.90,North,-999,0.0,0.0,64,0.00,,,-99.99,0,WeatherLink 5.4,2013-03-08 23:11:00,
2013-03-08 19:12:00,74.4,61.4,29.90,North,-999,0.0,0.0,64,0.00,,,-99.99,0,WeatherLink 5.4,2013-03-08 23:12:00,
2013-03-08 19:13:00,74.4,61.4,29.90,North,-999,0.0,0.0,64,0.00,,,-99.99,0,WeatherLink 5.4,2013-03-08 23:13:00,
2013-03-08 19:14:00,74.4,61.4,29.90,North,-999,0.0,0.0,64,0.00,,,-99.99,0,WeatherLink 5.4,2013-03-08 23:14:00,
2013-03-08 19:15:00,74.4,61.4,29.90,North,-999,0.0,0.0,64,0.00,,,-99.99,0,WeatherLink 5.4,2013-03-08 23:15:00,
2013-03-08 19:16:00,74.4,61.4,29.90,North,-999,0.0,0.0,64,0.00,,,-99.99,0,WeatherLink 5.4,2013-03-08 23:16:00,
2013-03-08 19:17:00,74.4,61.4,29.90,North,-999,0.0,0.0,64,0.00,,,-99.99,0,WeatherLink 5.4,2013-03-08 23:17:00,
2013-03-08 19:18:00,74.4,61.4,29.90,North,-999,0.0,0.0,64,0.00,,,-99.99,0,WeatherLink 5.4,2013-03-08 23:18:00,
2013-03-08 19:19:00,74.4,61.4,29.90,North,-999,0.0,0.0,64,0.00,,,-99.99,0,WeatherLink 5.4,2013-03-08 23:19:00,
2013-03-08 19:20:00,74.4,61.4,29.90,North,-999,0.0,0.0,64,0.00,,,-99.99,0,WeatherLink 5.4,2013-03-08 23:20:00,
2013-03-08 19:21:00,74.6,62.1,29.90,North,-999,0.0,0.0,65,0.00,,,-99.99,0,WeatherLink 5.4,2013-03-08 23:21:00,
2013-03-08 19:22:00,74.6,62.1,29.90,North,-999,0.0,0.0,65,0.00,,,-99.99,0,WeatherLink 5.4,2013-03-08 23:22:00,
2013-03-08 19:23:00,74.6,62.1,29.90,North,-999,0.0,0.0,65,0.00,,,-99.99,0,WeatherLink 5.4,2013-03-08 23:23:00,
2013-03-08 19:24:00,74.6,62.1,29.90,North,-999,0.0,0.0,65,0.00,,,-99.99,0,WeatherLink 5.4,2013-03-08 23:24:00,
2013-03-08 19:25:00,74.6,62.1,29.90,North,-999,0.0,0.0,65,0.00,,,-99.99,0,WeatherLink 5.4,2013-03-08 23:25:00,
2013-03-08 19:26:00,74.6,62.1,29.90,North,-999,0.0,0.0,65,0.00,,,-99.99,0,WeatherLink 5.4,2013-03-08 23:26:00,
2013-03-08 19:27:00,74.6,62.5,29.90,North,-999,0.0,0.0,66,0.00,,,-99.99,0,WeatherLink 5.4,2013-03-08 23:27:00,
2013-03-08 19:28:00,74.6,62.5,29.90,North,-999,0.0,0.0,66,0.00,,,-99.99,0,WeatherLink 5.4,2013-03-08 23:28:00,
2013-03-08 19:29:00,74.6,62.5,29.90,North,-999,0.0,0.0,66,0.00,,,-99.99,0,WeatherLink 5.4,2013-03-08 23:29:00,
2013-03-08 19:30:00,74.6,62.5,29.90,North,-999,0.0,0.0,66,0.00,,,-99.99,0,WeatherLink 5.4,2013-03-08 23:30:00,
2013-03-08 19:31:00,74.6,62.5,29.90,North,-999,0.0,0.0,66,0.00,,,-99.99,0,WeatherLink 5.4,2013-03-08 23:31:00,
2013-03-08 19:32:00,74.6,62.5,29.90,North,-999,0.0,0.0,66,0.00,,,-99.99,0,WeatherLink 5.4,2013-03-08 23:32:00,
2013-03-08 19:33:00,74.6,62.5,29.90,North,-999,0.0,0.0,66,0.00,,,-99.99,0,WeatherLink 5.4,2013-03-08 23:33:00,
2013-03-08 19:34:00,74.6,62.5,29.90,North,-999,0.0,0.0,66,0.00,,,-99.99,0,WeatherLink 5.4,2013-03-08 23:34:00,
2013-03-08 19:35:00,74.6,62.1,29.90,North,-999,0.0,0.0,65,0.00,,,-99.99,0,WeatherLink 5.4,2013-03-08 23:35:00,
2013-03-08 19:36:00,74.6,62.1,29.90,North,-999,0.0,0.0,65,0.00,,,-99.99,0,WeatherLink 5.4,2013-03-08 23:36:00,
2013-03-08 19:37:00,74.6,62.1,29.90,North,-999,0.0,0.0,65,0.00,,,-99.99,0,WeatherLink 5.4,2013-03-08 23:37:00,
2013-03-08 19:38:00,74.6,62.1,29.90,North,-999,0.0,0.0,65,0.00,,,-99.99,0,WeatherLink 5.4,2013-03-08 23:38:00,
2013-03-08 19:39:00,74.6,62.1,29.90,North,-999,0.0,0.0,65,0.00,,,-99.99,0,WeatherLink 5.4,2013-03-08 23:39:00,
2013-03-08 19:40:00,74.6,62.1,29.90,North,-999,0.0,0.0,65,0.00,,,-99.99,0,WeatherLink 5.4,2013-03-08 23:40:00,
2013-03-08 19:41:00,74.6,62.5,29.90,North,-999,0.0,0.0,66,0.00,,,-99.99,0,WeatherLink 5.4,2013-03-08 23:41:00,
2013-03-08 19:42:00,74.6,62.5,29.90,North,-999,0.0,0.0,66,0.00,,,-99.99,0,WeatherLink 5.4,2013-03-08 23:42:00,
2013-03-08 19:43:00,74.7,63.4,29.90,North,-999,0.0,0.0,68,0.00,,,-99.99,0,WeatherLink 5.4,2013-03-08 23:43:00,
2013-03-08 19:44:00,74.7,63.4,29.90,North,-999,0.0,0.0,68,0.00,,,-99.99,0,WeatherLink 5.4,2013-03-08 23:44:00,
2013-03-08 19:45:00,74.7,63.9,29.90,North,-999,0.0,0.0,69,0.00,,,-99.99,0,WeatherLink 5.4,2013-03-08 23:45:00,
2013-03-08 19:46:00,74.7,63.9,29.90,North,-999,0.0,0.0,69,0.00,,,-99.99,0,WeatherLink 5.4,2013-03-08 23:46:00,
2013-03-08 19:47:00,74.9,64.0,29.90,North,-999,0.0,0.0,69,0.00,,,-99.99,0,WeatherLink 5.4,2013-03-08 23:47:00,
2013-03-08 19:48:00,74.9,64.5,29.90,North,-999,0.0,0.0,70,0.00,,,-99.99,0,WeatherLink 5.4,2013-03-08 23:48:00,
2013-03-08 19:49:00,74.9,64.5,29.90,North,-999,0.0,0.0,70,0.00,,,-99.99,0,WeatherLink 5.4,2013-03-08 23:49:00,
2013-03-08 19:50:00,74.7,64.3,29.90,North,-999,0.0,0.0,70,0.00,,,-99.99,0,WeatherLink 5.4,2013-03-08 23:50:00,
2013-03-08 19:51:00,74.7,64.3,29.90,North,-999,0.0,0.0,70,0.00,,,-99.99,0,WeatherLink 5.4,2013-03-08 23:51:00,
2013-03-08 19:52:00,74.7,64.3,29.90,North,-999,0.0,0.0,70,0.00,,,-99.99,0,WeatherLink 5.4,2013-03-08 23:52:00,
2013-03-08 19:53:00,74.7,64.3,29.90,North,-999,0.0,0.0,70,0.00,,,-99.99,0,WeatherLink 5.4,2013-03-08 23:53:00,
2013-03-08 19:54:00,74.7,64.3,29.90,North,-999,0.0,0.0,70,0.00,,,-99.99,0,WeatherLink 5.4,2013-03-08 23:54:00,
2013-03-08 19:55:00,74.7,64.3,29.90,North,-999,0.0,0.0,70,0.00,,,-99.99,0,WeatherLink 5.4,2013-03-08 23:55:00,
2013-03-08 19:56:00,74.6,64.2,29.90,North,-999,0.0,0.0,70,0.00,,,-99.99,0,WeatherLink 5.4,2013-03-08 23:56:00,
2013-03-08 19:57:00,74.6,64.2,29.90,North,-999,0.0,0.0,70,0.00,,,-99.99,0,WeatherLink 5.4,2013-03-08 23:57:00,
2013-03-08 19:58:00,74.6,64.2,29.90,North,-999,0.0,0.0,70,0.00,,,-99.99,0,WeatherLink 5.4,2013-03-08 23:58:00,
2013-03-08 19:59:00,74.6,64.2,29.90,North,-999,0.0,0.0,70,0.00,,,-99.99,0,WeatherLink 5.4,2013-03-08 23:59:00,
2013-03-08 20:00:00,74.6,64.6,29.90,North,-999,0.0,0.0,71,0.00,,,-99.99,0,WeatherLink 5.4,2013-03-09 00:00:00,
2013-03-08 20:01:00,74.4,64.0,29.90,North,-999,0.0,0.0,70,0.00,,,-99.99,0,WeatherLink 5.4,2013-03-09 00:01:00,
2013-03-08 20:02:00,74.4,64.0,29.90,North,-999,0.0,0.0,70,0.00,,,-99.99,0,WeatherLink 5.4,2013-03-09 00:02:00,
2013-03-08 20:03:00,74.4,64.4,29.90,North,-999,0.0,0.0,71,0.00,,,-99.99,0,WeatherLink 5.4,2013-03-09 00:03:00,
2013-03-08 20:04:00,74.3,64.3,29.90,North,-999,0.0,0.0,71,0.00,,,-99.99,0,WeatherLink 5.4,2013-03-09 00:04:00,
2013-03-08 20:05:00,74.2,64.2,29.90,North,-999,0.0,0.0,71,0.00,,,-99.99,0,WeatherLink 5.4,2013-03-09 00:05:00,
2013-03-08 20:06:00,74.2,64.2,29.90,North,-999,0.0,0.0,71,0.00,,,-99.99,0,WeatherLink 5.4,2013-03-09 00:06:00,
2013-03-08 20:07:00,74.2,64.2,29.90,North,-999,0.0,0.0,71,0.00,,,-99.99,0,WeatherLink 5.4,2013-03-09 00:07:00,
2013-03-08 20:08:00,74.2,64.2,29.90,North,-999,0.0,0.0,71,0.00,,,-99.99,0,WeatherLink 5.4,2013-03-09 00:08:00,
2013-03-08 20:09:00,74.0,64.0,29.90,North,-999,0.0,0.0,71,0.00,,,-99.99,0,WeatherLink 5.4,2013-03-09 00:09:00,
2013-03-08 20:10:00,74.0,64.0,29.90,North,-999,0.0,0.0,71,0.00,,,-99.99,0,WeatherLink 5.4,2013-03-09 00:10:00,
2013-03-08 20:11:00,74.0,64.0,29.90,North,-999,0.0,0.0,71,0.00,,,-99.99,0,WeatherLink 5.4,2013-03-09 00:11:00,
2013-03-08 20:12:00,74.0,64.0,29.90,North,-999,0.0,0.0,71,0.00,,,-99.99,0,WeatherLink 5.4,2013-03-09 00:12:00,
2013-03-08 20:13:00,74.0,64.0,29.90,North,-999,0.0,0.0,71,0.00,,,-99.99,0,WeatherLink 5.4,2013-03-09 00:13:00,
2013-03-08 20:14:00,73.9,63.9,29.90,North,-999,0.0,0.0,71,0.00,,,-99.99,0,WeatherLink 5.4,2013-03-09 00:14:00,
2013-03-08 20:15:00,73.9,63.9,29.90,North,-999,0.0,0.0,71,0.00,,,-99.99,0,WeatherLink 5.4,2013-03-09 00:15:00,
2013-03-08 20:16:00,73.9,63.9,29.90,North,-999,0.0,0.0,71,0.00,,,-99.99,0,WeatherLink 5.4,2013-03-09 00:16:00,
2013-03-08 20:17:00,73.9,63.9,29.90,North,-999,0.0,0.0,71,0.00,,,-99.99,0,WeatherLink 5.4,2013-03-09 00:17:00,
2013-03-08 20:18:00,73.8,63.8,29.90,North,-999,0.0,0.0,71,0.00,,,-99.99,0,WeatherLink 5.4,2013-03-09 00:18:00,
2013-03-08 20:19:00,73.7,63.7,29.90,North,-999,0.0,0.0,71,0.00,,,-99.99,0,WeatherLink 5.4,2013-03-09 00:19:00,
2013-03-08 20:20:00,73.7,63.7,29.90,North,-999,0.0,0.0,71,0.00,,,-99.99,0,WeatherLink 5.4,2013-03-09 00:20:00,
2013-03-08 20:21:00,73.7,63.7,29.90,North,-999,0.0,0.0,71,0.00,,,-99.99,0,WeatherLink 5.4,2013-03-09 00:21:00,
2013-03-08 20:22:00,73.6,63.6,29.90,North,-999,0.0,0.0,71,0.00,,,-99.99,0,WeatherLink 5.4,2013-03-09 00:22:00,
2013-03-08 20:23:00,73.5,63.5,29.90,North,-999,0.0,0.0,71,0.00,,,-99.99,0,WeatherLink 5.4,2013-03-09 00:23:00,
2013-03-08 20:24:00,73.5,63.5,29.90,North,-999,0.0,0.0,71,0.00,,,-99.99,0,WeatherLink 5.4,2013-03-09 00:24:00,
2013-03-08 20:25:00,73.5,63.5,29.90,North,-999,0.0,0.0,71,0.00,,,-99.99,0,WeatherLink 5.4,2013-03-09 00:25:00,
2013-03-08 20:26:00,73.5,63.5,29.90,North,-999,0.0,0.0,71,0.00,,,-99.99,0,WeatherLink 5.4,2013-03-09 00:26:00,
2013-03-08 20:27:00,73.5,63.5,29.90,North,-999,0.0,0.0,71,0.00,,,-99.99,0,WeatherLink 5.4,2013-03-09 00:27:00,
2013-03-08 20:28:00,73.3,63.7,29.90,North,-999,0.0,0.0,72,0.00,,,-99.99,0,WeatherLink 5.4,2013-03-09 00:28:00,
2013-03-08 20:29:00,73.3,63.7,29.90,North,-999,0.0,0.0,72,0.00,,,-99.99,0,WeatherLink 5.4,2013-03-09 00:29:00,
2013-03-08 20:30:00,73.3,63.7,29.90,North,-999,0.0,0.0,72,0.00,,,-99.99,0,WeatherLink 5.4,2013-03-09 00:30:00,
2013-03-08 20:31:00,73.3,63.7,29.90,North,-999,0.0,0.0,72,0.00,,,-99.99,0,WeatherLink 5.4,2013-03-09 00:31:00,
2013-03-08 20:32:00,73.2,63.6,29.90,North,-999,0.0,0.0,72,0.00,,,-99.99,0,WeatherLink 5.4,2013-03-09 00:32:00,
2013-03-08 20:33:00,73.2,63.6,29.90,North,-999,0.0,0.0,72,0.00,,,-99.99,0,WeatherLink 5.4,2013-03-09 00:33:00,
2013-03-08 20:34:00,73.2,63.6,29.90,North,-999,0.0,0.0,72,0.00,,,-99.99,0,WeatherLink 5.4,2013-03-09 00:34:00,
2013-03-08 20:35:00,73.2,63.6,29.90,North,-999,0.0,0.0,72,0.00,,,-99.99,0,WeatherLink 5.4,2013-03-09 00:35:00,
2013-03-08 20:36:00,73.0,63.4,29.90,North,-999,0.0,0.0,72,0.00,,,-99.99,0,WeatherLink 5.4,2013-03-09 00:36:00,
2013-03-08 20:37:00,73.0,63.4,29.90,North,-999,0.0,0.0,72,0.00,,,-99.99,0,WeatherLink 5.4,2013-03-09 00:37:00,
2013-03-08 20:38:00,73.0,63.4,29.90,North,-999,0.0,0.0,72,0.00,,,-99.99,0,WeatherLink 5.4,2013-03-09 00:38:00,
2013-03-08 20:39:00,73.0,63.4,29.90,North,-999,0.0,0.0,72,0.00,,,-99.99,0,WeatherLink 5.4,2013-03-09 00:39:00,
2013-03-08 20:40:00,72.8,63.2,29.90,North,-999,0.0,0.0,72,0.00,,,-99.99,0,WeatherLink 5.4,2013-03-09 00:40:00,
2013-03-08 20:41:00,72.8,63.6,29.90,North,-999,0.0,0.0,73,0.00,,,-99.99,0,WeatherLink 5.4,2013-03-09 00:41:00,
2013-03-08 20:42:00,72.8,63.6,29.90,North,-999,0.0,0.0,73,0.00,,,-99.99,0,WeatherLink 5.4,2013-03-09 00:42:00,
2013-03-08 20:43:00,72.8,63.6,29.90,North,-999,0.0,0.0,73,0.00,,,-99.99,0,WeatherLink 5.4,2013-03-09 00:43:00,
2013-03-08 20:44:00,72.8,63.6,29.90,North,-999,0.0,0.0,73,0.00,,,-99.99,0,WeatherLink 5.4,2013-03-09 00:44:00,
2013-03-08 20:45:00,72.7,63.5,29.91,North,-999,0.0,0.0,73,0.00,,,-99.99,0,WeatherLink 5.4,2013-03-09 00:45:00,
2013-03-08 20:46:00,72.7,63.5,29.91,North,-999,0.0,0.0,73,0.00,,,-99.99,0,WeatherLink 5.4,2013-03-09 00:46:00,
2013-03-08 20:47:00,72.7,63.5,29.91,North,-999,0.0,0.0,73,0.00,,,-99.99,0,WeatherLink 5.4,2013-03-09 00:47:00,
2013-03-08 20:48:00,72.7,63.5,29.91,North,-999,0.0,0.0,73,0.00,,,-99.99,0,WeatherLink 5.4,2013-03-09 00:48:00,
2013-03-08 20:49:00,72.7,63.5,29.91,North,-999,0.0,0.0,73,0.00,,,-99.99,0,WeatherLink 5.4,2013-03-09 00:49:00,
2013-03-08 20:50:00,72.5,63.4,29.91,North,-999,0.0,0.0,73,0.00,,,-99.99,0,WeatherLink 5.4,2013-03-09 00:50:00,
2013-03-08 20:51:00,72.5,63.7,29.91,North,-999,0.0,0.0,74,0.00,,,-99.99,0,WeatherLink 5.4,2013-03-09 00:51:00,
2013-03-08 20:52:00,72.5,63.7,29.91,North,-999,0.0,0.0,74,0.00,,,-99.99,0,WeatherLink 5.4,2013-03-09 00:52:00,
2013-03-08 20:53:00,72.5,63.7,29.91,North,-999,0.0,0.0,74,0.00,,,-99.99,0,WeatherLink 5.4,2013-03-09 00:53:00,
2013-03-08 20:54:00,72.5,63.7,29.91,North,-999,0.0,0.0,74,0.00,,,-99.99,0,WeatherLink 5.4,2013-03-09 00:54:00,
2013-03-08 20:55:00,72.5,63.7,29.91,North,-999,0.0,0.0,74,0.00,,,-99.99,0,WeatherLink 5.4,2013-03-09 00:55:00,
2013-03-08 20:56:00,72.4,63.6,29.91,North,-999,0.0,0.0,74,0.00,,,-99.99,0,WeatherLink 5.4,2013-03-09 00:56:00,
2013-03-08 20:57:00,72.3,63.5,29.91,North,-999,0.0,0.0,74,0.00,,,-99.99,0,WeatherLink 5.4,2013-03-09 00:57:00,
2013-03-08 20:58:00,72.3,63.9,29.91,North,-999,0.0,0.0,75,0.00,,,-99.99,0,WeatherLink 5.4,2013-03-09 00:58:00,
2013-03-08 20:59:00,72.3,63.9,29.91,North,-999,0.0,0.0,75,0.00,,,-99.99,0,WeatherLink 5.4,2013-03-09 00:59:00,
2013-03-08 21:00:00,72.3,63.9,29.91,North,-999,0.0,0.0,75,0.00,,,-99.99,0,WeatherLink 5.4,2013-03-09 01:00:00,
2013-03-08 21:01:00,72.3,63.9,29.91,North,-999,0.0,0.0,75,0.00,,,-99.99,0,WeatherLink 5.4,2013-03-09 01:01:00,
2013-03-08 21:02:00,72.2,63.8,29.91,North,-999,0.0,0.0,75,0.00,,,-99.99,0,WeatherLink 5.4,2013-03-09 01:02:00,
2013-03-08 21:03:00,72.1,63.7,29.91,North,-999,0.0,0.0,75,0.00,,,-99.99,0,WeatherLink 5.4,2013-03-09 01:03:00,
2013-03-08 21:04:00,72.1,63.7,29.91,North,-999,0.0,0.0,75,0.00,,,-99.99,0,WeatherLink 5.4,2013-03-09 01:04:00,
2013-03-08 21:05:00,72.1,63.7,29.91,North,-999,0.0,0.0,75,0.00,,,-99.99,0,WeatherLink 5.4,2013-03-09 01:05:00,
2013-03-08 21:06:00,72.1,63.7,29.91,North,-999,0.0,0.0,75,0.00,,,-99.99,0,WeatherLink 5.4,2013-03-09 01:06:00,
2013-03-08 21:07:00,72.1,63.7,29.91,North,-999,0.0,0.0,75,0.00,,,-99.99,0,WeatherLink 5.4,2013-03-09 01:07:00,
2013-03-08 21:08:00,72.1,63.7,29.91,North,-999,0.0,0.0,75,0.00,,,-99.99,0,WeatherLink 5.4,2013-03-09 01:08:00,
2013-03-08 21:09:00,72.0,63.6,29.91,North,-999,0.0,0.0,75,0.00,,,-99.99,0,WeatherLink 5.4,2013-03-09 01:09:00,
2013-03-08 21:10:00,72.0,63.6,29.91,North,-999,0.0,0.0,75,0.00,,,-99.99,0,WeatherLink 5.4,2013-03-09 01:10:00,
2013-03-08 21:11:00,72.0,63.6,29.91,North,-999,0.0,0.0,75,0.00,,,-99.99,0,WeatherLink 5.4,2013-03-09 01:11:00,
2013-03-08 21:12:00,71.8,63.4,29.91,North,-999,0.0,0.0,75,0.00,,,-99.99,0,WeatherLink 5.4,2013-03-09 01:12:00,
2013-03-08 21:13:00,71.8,63.4,29.91,North,-999,0.0,0.0,75,0.00,,,-99.99,0,WeatherLink 5.4,2013-03-09 01:13:00,
2013-03-08 21:14:00,71.8,63.4,29.91,North,-999,0.0,0.0,75,0.00,,,-99.99,0,WeatherLink 5.4,2013-03-09 01:14:00,
2013-03-08 21:15:00,71.8,63.4,29.91,North,-999,0.0,0.0,75,0.00,,,-99.99,0,WeatherLink 5.4,2013-03-09 01:15:00,
2013-03-08 21:16:00,71.8,63.4,29.91,North,-999,0.0,0.0,75,0.00,,,-99.99,0,WeatherLink 5.4,2013-03-09 01:16:00,
2013-03-08 21:17:00,71.8,63.8,29.91,North,-999,0.0,0.0,76,0.00,,,-99.99,0,WeatherLink 5.4,2013-03-09 01:17:00,
2013-03-08 21:18:00,71.6,63.6,29.91,North,-999,0.0,0.0,76,0.00,,,-99.99,0,WeatherLink 5.4,2013-03-09 01:18:00,
2013-03-08 21:19:00,71.6,63.6,29.91,North,-999,0.0,0.0,76,0.00,,,-99.99,0,WeatherLink 5.4,2013-03-09 01:19:00,
2013-03-08 21:20:00,71.6,63.6,29.91,North,-999,0.0,0.0,76,0.00,,,-99.99,0,WeatherLink 5.4,2013-03-09 01:20:00,
2013-03-08 21:21:00,71.6,63.6,29.91,North,-999,0.0,0.0,76,0.00,,,-99.99,0,WeatherLink 5.4,2013-03-09 01:21:00,
2013-03-08 21:22:00,71.6,63.6,29.91,North,-999,0.0,0.0,76,0.00,,,-99.99,0,WeatherLink 5.4,2013-03-09 01:22:00,
2013-03-08 21:23:00,71.6,63.6,29.91,North,-999,0.0,0.0,76,0.00,,,-99.99,0,WeatherLink 5.4,2013-03-09 01:23:00,
2013-03-08 21:24:00,71.6,63.6,29.91,North,-999,0.0,0.0,76,0.00,,,-99.99,0,WeatherLink 5.4,2013-03-09 01:24:00,
2013-03-08 21:25:00,71.6,63.6,29.91,North,-999,0.0,0.0,76,0.00,,,-99.99,0,WeatherLink 5.4,2013-03-09 01:25:00,
2013-03-08 21:26:00,71.5,63.9,29.91,North,-999,0.0,0.0,77,0.00,,,-99.99,0,WeatherLink 5.4,2013-03-09 01:26:00,
2013-03-08 21:27:00,71.5,63.9,29.91,North,-999,0.0,0.0,77,0.00,,,-99.99,0,WeatherLink 5.4,2013-03-09 01:27:00,
2013-03-08 21:28:00,71.5,63.9,29.91,North,-999,0.0,0.0,77,0.00,,,-99.99,0,WeatherLink 5.4,2013-03-09 01:28:00,
2013-03-08 21:29:00,71.5,63.9,29.91,North,-999,0.0,0.0,77,0.00,,,-99.99,0,WeatherLink 5.4,2013-03-09 01:29:00,
2013-03-08 21:30:00,71.5,63.9,29.91,North,-999,0.0,0.0,77,0.00,,,-99.99,0,WeatherLink 5.4,2013-03-09 01:30:00,
2013-03-08 21:31:00,71.5,63.9,29.91,North,-999,0.0,0.0,77,0.00,,,-99.99,0,WeatherLink 5.4,2013-03-09 01:31:00,
2013-03-08 21:32:00,71.5,63.9,29.91,North,-999,0.0,0.0,77,0.00,,,-99.99,0,WeatherLink 5.4,2013-03-09 01:32:00,
2013-03-08 21:33:00,71.5,63.9,29.91,North,-999,0.0,0.0,77,0.00,,,-99.99,0,WeatherLink 5.4,2013-03-09 01:33:00,
2013-03-08 21:34:00,71.4,63.8,29.91,North,-999,0.0,0.0,77,0.00,,,-99.99,0,WeatherLink 5.4,2013-03-09 01:34:00,
2013-03-08 21:35:00,71.3,63.7,29.91,North,-999,0.0,0.0,77,0.00,,,-99.99,0,WeatherLink 5.4,2013-03-09 01:35:00,
2013-03-08 21:36:00,71.3,63.7,29.91,North,-999,0.0,0.0,77,0.00,,,-99.99,0,WeatherLink 5.4,2013-03-09 01:36:00,
2013-03-08 21:37:00,71.3,63.7,29.91,North,-999,0.0,0.0,77,0.00,,,-99.99,0,WeatherLink 5.4,2013-03-09 01:37:00,
2013-03-08 21:38:00,71.3,64.1,29.91,North,-999,0.0,0.0,78,0.00,,,-99.99,0,WeatherLink 5.4,2013-03-09 01:38:00,
2013-03-08 21:39:00,71.3,64.1,29.91,North,-999,0.0,0.0,78,0.00,,,-99.99,0,WeatherLink 5.4,2013-03-09 01:39:00,
2013-03-08 21:40:00,71.3,64.1,29.91,North,-999,0.0,0.0,78,0.00,,,-99.99,0,WeatherLink 5.4,2013-03-09 01:40:00,
2013-03-08 21:41:00,71.3,64.1,29.91,North,-999,0.0,0.0,78,0.00,,,-99.99,0,WeatherLink 5.4,2013-03-09 01:41:00,
2013-03-08 21:42:00,71.3,64.1,29.91,North,-999,0.0,0.0,78,0.00,,,-99.99,0,WeatherLink 5.4,2013-03-09 01:42:00,
2013-03-08 21:43:00,71.3,64.1,29.91,North,-999,0.0,0.0,78,0.00,,,-99.99,0,WeatherLink 5.4,2013-03-09 01:43:00,
2013-03-08 21:44:00,71.3,64.1,29.91,North,-999,0.0,0.0,78,0.00,,,-99.99,0,WeatherLink 5.4,2013-03-09 01:44:00,
2013-03-08 21:45:00,71.2,64.0,29.91,North,-999,0.0,0.0,78,0.00,,,-99.99,0,WeatherLink 5.4,2013-03-09 01:45:00,
2013-03-08 21:46:00,71.1,64.3,29.91,North,-999,0.0,0.0,79,0.00,,,-99.99,0,WeatherLink 5.4,2013-03-09 01:46:00,
2013-03-08 21:47:00,71.1,64.3,29.91,North,-999,0.0,0.0,79,0.00,,,-99.99,0,WeatherLink 5.4,2013-03-09 01:47:00,
2013-03-08 21:48:00,71.1,64.3,29.91,North,-999,0.0,0.0,79,0.00,,,-99.99,0,WeatherLink 5.4,2013-03-09 01:48:00,
2013-03-08 21:49:00,71.1,64.3,29.91,North,-999,0.0,0.0,79,0.00,,,-99.99,0,WeatherLink 5.4,2013-03-09 01:49:00,
2013-03-08 21:50:00,71.1,64.6,29.91,North,-999,0.0,0.0,80,0.00,,,-99.99,0,WeatherLink 5.4,2013-03-09 01:50:00,
2013-03-08 21:51:00,71.1,64.6,29.91,North,-999,0.0,0.0,80,0.00,,,-99.99,0,WeatherLink 5.4,2013-03-09 01:51:00,
2013-03-08 21:52:00,71.1,64.6,29.91,North,-999,0.0,0.0,80,0.00,,,-99.99,0,WeatherLink 5.4,2013-03-09 01:52:00,
2013-03-08 21:53:00,71.1,64.6,29.91,North,-999,0.0,0.0,80,0.00,,,-99.99,0,WeatherLink 5.4,2013-03-09 01:53:00,
2013-03-08 21:54:00,71.1,64.6,29.91,North,-999,0.0,0.0,80,0.00,,,-99.99,0,WeatherLink 5.4,2013-03-09 01:54:00,
2013-03-08 21:55:00,71.1,64.6,29.91,North,-999,0.0,0.0,80,0.00,,,-99.99,0,WeatherLink 5.4,2013-03-09 01:55:00,
2013-03-08 21:56:00,71.1,64.6,29.91,North,-999,0.0,0.0,80,0.00,,,-99.99,0,WeatherLink 5.4,2013-03-09 01:56:00,
2013-03-08 21:57:00,71.1,64.6,29.91,North,-999,0.0,0.0,80,0.00,,,-99.99,0,WeatherLink 5.4,2013-03-09 01:57:00,
2013-03-08 21:58:00,71.1,64.6,29.91,North,-999,0.0,0.0,80,0.00,,,-99.99,0,WeatherLink 5.4,2013-03-09 01:58:00,
2013-03-08 21:59:00,70.9,64.4,29.91,North,-999,0.0,0.0,80,0.00,,,-99.99,0,WeatherLink 5.4,2013-03-09 01:59:00,
2013-03-08 22:00:00,70.9,64.4,29.91,North,-999,0.0,0.0,80,0.00,,,-99.99,0,WeatherLink 5.4,2013-03-09 02:00:00,
2013-03-08 22:01:00,70.9,64.4,29.91,North,-999,0.0,0.0,80,0.00,,,-99.99,0,WeatherLink 5.4,2013-03-09 02:01:00,
2013-03-08 22:02:00,70.9,64.4,29.91,North,-999,0.0,0.0,80,0.00,,,-99.99,0,WeatherLink 5.4,2013-03-09 02:02:00,
2013-03-08 22:03:00,70.9,64.4,29.91,North,-999,0.0,0.0,80,0.00,,,-99.99,0,WeatherLink 5.4,2013-03-09 02:03:00,
2013-03-08 22:04:00,70.9,64.4,29.91,North,-999,0.0,0.0,80,0.00,,,-99.99,0,WeatherLink 5.4,2013-03-09 02:04:00,
2013-03-08 22:05:00,70.9,64.4,29.91,North,-999,0.0,0.0,80,0.00,,,-99.99,0,WeatherLink 5.4,2013-03-09 02:05:00,
2013-03-08 22:06:00,70.9,64.4,29.91,North,-999,0.0,0.0,80,0.00,,,-99.99,0,WeatherLink 5.4,2013-03-09 02:06:00,
2013-03-08 22:07:00,70.8,64.3,29.91,North,-999,0.0,0.0,80,0.00,,,-99.99,0,WeatherLink 5.4,2013-03-09 02:07:00,
2013-03-08 22:08:00,70.8,64.3,29.91,North,-999,0.0,0.0,80,0.00,,,-99.99,0,WeatherLink 5.4,2013-03-09 02:08:00,
2013-03-08 22:09:00,70.8,64.3,29.91,North,-999,0.0,0.0,80,0.00,,,-99.99,0,WeatherLink 5.4,2013-03-09 02:09:00,
2013-03-08 22:10:00,70.8,64.3,29.91,North,-999,0.0,0.0,80,0.00,,,-99.99,0,WeatherLink 5.4,2013-03-09 02:10:00,
2013-03-08 22:11:00,70.8,64.3,29.91,North,-999,0.0,0.0,80,0.00,,,-99.99,0,WeatherLink 5.4,2013-03-09 02:11:00,
2013-03-08 22:12:00,70.8,64.3,29.91,North,-999,0.0,0.0,80,0.00,,,-99.99,0,WeatherLink 5.4,2013-03-09 02:12:00,
2013-03-08 22:13:00,70.8,64.3,29.91,North,-999,0.0,0.0,80,0.00,,,-99.99,0,WeatherLink 5.4,2013-03-09 02:13:00,
2013-03-08 22:14:00,70.6,64.1,29.91,North,-999,0.0,0.0,80,0.00,,,-99.99,0,WeatherLink 5.4,2013-03-09 02:14:00,
2013-03-08 22:15:00,70.6,64.1,29.91,North,-999,0.0,0.0,80,0.00,,,-99.99,0,WeatherLink 5.4,2013-03-09 02:15:00,
2013-03-08 22:16:00,70.6,64.1,29.91,North,-999,0.0,0.0,80,0.00,,,-99.99,0,WeatherLink 5.4,2013-03-09 02:16:00,
2013-03-08 22:17:00,70.6,64.1,29.91,North,-999,0.0,0.0,80,0.00,,,-99.99,0,WeatherLink 5.4,2013-03-09 02:17:00,
2013-03-08 22:18:00,70.6,64.1,29.91,North,-999,0.0,0.0,80,0.00,,,-99.99,0,WeatherLink 5.4,2013-03-09 02:18:00,
2013-03-08 22:19:00,70.6,64.1,29.91,North,-999,0.0,0.0,80,0.00,,,-99.99,0,WeatherLink 5.4,2013-03-09 02:19:00,
2013-03-08 22:20:00,70.6,64.1,29.91,North,-999,0.0,0.0,80,0.00,,,-99.99,0,WeatherLink 5.4,2013-03-09 02:20:00,
2013-03-08 22:21:00,70.6,64.1,29.91,North,-999,0.0,0.0,80,0.00,,,-99.99,0,WeatherLink 5.4,2013-03-09 02:21:00,
2013-03-08 22:22:00,70.6,64.1,29.91,North,-999,0.0,0.0,80,0.00,,,-99.99,0,WeatherLink 5.4,2013-03-09 02:22:00,
2013-03-08 22:23:00,70.5,64.4,29.91,North,-999,0.0,0.0,81,0.00,,,-99.99,0,WeatherLink 5.4,2013-03-09 02:23:00,
2013-03-08 22:24:00,70.4,64.3,29.91,North,-999,0.0,0.0,81,0.00,,,-99.99,0,WeatherLink 5.4,2013-03-09 02:24:00,
2013-03-08 22:25:00,70.4,64.3,29.91,North,-999,0.0,0.0,81,0.00,,,-99.99,0,WeatherLink 5.4,2013-03-09 02:25:00,
2013-03-08 22:26:00,70.4,64.3,29.91,North,-999,0.0,0.0,81,0.00,,,-99.99,0,WeatherLink 5.4,2013-03-09 02:26:00,
2013-03-08 22:27:00,70.4,64.3,29.91,North,-999,0.0,0.0,81,0.00,,,-99.99,0,WeatherLink 5.4,2013-03-09 02:27:00,
2013-03-08 22:28:00,70.4,64.3,29.91,North,-999,0.0,0.0,81,0.00,,,-99.99,0,WeatherLink 5.4,2013-03-09 02:28:00,
2013-03-08 22:29:00,70.4,64.3,29.91,North,-999,0.0,0.0,81,0.00,,,-99.99,0,WeatherLink 5.4,2013-03-09 02:29:00,
2013-03-08 22:30:00,70.4,64.3,29.91,North,-999,0.0,0.0,81,0.00,,,-99.99,0,WeatherLink 5.4,2013-03-09 02:30:00,
2013-03-08 22:31:00,70.4,64.3,29.91,North,-999,0.0,0.0,81,0.00,,,-99.99,0,WeatherLink 5.4,2013-03-09 02:31:00,
2013-03-08 22:32:00,70.3,64.2,29.91,North,-999,0.0,0.0,81,0.00,,,-99.99,0,WeatherLink 5.4,2013-03-09 02:32:00,
2013-03-08 22:33:00,70.3,64.2,29.91,North,-999,0.0,0.0,81,0.00,,,-99.99,0,WeatherLink 5.4,2013-03-09 02:33:00,
2013-03-08 22:34:00,70.3,64.2,29.91,North,-999,0.0,0.0,81,0.00,,,-99.99,0,WeatherLink 5.4,2013-03-09 02:34:00,
2013-03-08 22:35:00,70.3,64.2,29.91,North,-999,0.0,0.0,81,0.00,,,-99.99,0,WeatherLink 5.4,2013-03-09 02:35:00,
2013-03-08 22:36:00,70.3,64.5,29.91,North,-999,0.0,0.0,82,0.00,,,-99.99,0,WeatherLink 5.4,2013-03-09 02:36:00,
2013-03-08 22:37:00,70.3,64.5,29.91,North,-999,0.0,0.0,82,0.00,,,-99.99,0,WeatherLink 5.4,2013-03-09 02:37:00,
2013-03-08 22:38:00,70.3,64.5,29.91,North,-999,0.0,0.0,82,0.00,,,-99.99,0,WeatherLink 5.4,2013-03-09 02:38:00,
2013-03-08 22:39:00,70.3,64.5,29.91,North,-999,0.0,0.0,82,0.00,,,-99.99,0,WeatherLink 5.4,2013-03-09 02:39:00,
2013-03-08 22:40:00,70.3,64.5,29.91,North,-999,0.0,0.0,82,0.00,,,-99.99,0,WeatherLink 5.4,2013-03-09 02:40:00,
2013-03-08 22:41:00,70.3,64.5,29.91,North,-999,0.0,0.0,82,0.00,,,-99.99,0,WeatherLink 5.4,2013-03-09 02:41:00,
2013-03-08 22:42:00,70.3,64.5,29.91,North,-999,0.0,0.0,82,0.00,,,-99.99,0,WeatherLink 5.4,2013-03-09 02:42:00,
2013-03-08 22:43:00,70.3,64.5,29.91,North,-999,0.0,0.0,82,0.00,,,-99.99,0,WeatherLink 5.4,2013-03-09 02:43:00,
2013-03-08 22:44:00,70.3,64.5,29.91,North,-999,0.0,0.0,82,0.00,,,-99.99,0,WeatherLink 5.4,2013-03-09 02:44:00,
2013-03-08 22:45:00,70.1,64.3,29.91,North,-999,0.0,0.0,82,0.00,,,-99.99,0,WeatherLink 5.4,2013-03-09 02:45:00,
2013-03-08 22:46:00,70.1,64.3,29.91,North,-999,0.0,0.0,82,0.00,,,-99.99,0,WeatherLink 5.4,2013-03-09 02:46:00,
2013-03-08 22:47:00,70.1,64.3,29.91,North,-999,0.0,0.0,82,0.00,,,-99.99,0,WeatherLink 5.4,2013-03-09 02:47:00,
2013-03-08 22:48:00,70.1,64.7,29.91,North,-999,0.0,0.0,83,0.00,,,-99.99,0,WeatherLink 5.4,2013-03-09 02:48:00,
2013-03-08 22:49:00,70.1,64.7,29.91,North,-999,0.0,0.0,83,0.00,,,-99.99,0,WeatherLink 5.4,2013-03-09 02:49:00,
2013-03-08 22:50:00,70.1,64.7,29.91,North,-999,0.0,0.0,83,0.00,,,-99.99,0,WeatherLink 5.4,2013-03-09 02:50:00,
2013-03-08 22:51:00,70.1,64.7,29.91,North,-999,0.0,0.0,83,0.00,,,-99.99,0,WeatherLink 5.4,2013-03-09 02:51:00,
2013-03-08 22:52:00,70.1,64.7,29.91,North,-999,0.0,0.0,83,0.00,,,-99.99,0,WeatherLink 5.4,2013-03-09 02:52:00,
2013-03-08 22:53:00,69.9,64.5,29.91,North,-999,0.0,0.0,83,0.00,,,-99.99,0,WeatherLink 5.4,2013-03-09 02:53:00,
2013-03-08 22:54:00,69.9,64.5,29.91,North,-999,0.0,0.0,83,0.00,,,-99.99,0,WeatherLink 5.4,2013-03-09 02:54:00,
2013-03-08 22:55:00,69.9,64.5,29.91,North,-999,0.0,0.0,83,0.00,,,-99.99,0,WeatherLink 5.4,2013-03-09 02:55:00,
2013-03-08 22:56:00,69.9,64.5,29.91,North,-999,0.0,0.0,83,0.00,,,-99.99,0,WeatherLink 5.4,2013-03-09 02:56:00,
2013-03-08 22:57:00,69.9,64.5,29.91,North,-999,0.0,0.0,83,0.00,,,-99.99,0,WeatherLink 5.4,2013-03-09 02:57:00,
2013-03-08 22:58:00,69.9,64.5,29.91,North,-999,0.0,0.0,83,0.00,,,-99.99,0,WeatherLink 5.4,2013-03-09 02:58:00,
2013-03-08 22:59:00,69.9,64.5,29.91,North,-999,0.0,0.0,83,0.00,,,-99.99,0,WeatherLink 5.4,2013-03-09 02:59:00,
2013-03-08 23:00:00,69.9,64.5,29.91,North,-999,0.0,0.0,83,0.00,,,-99.99,0,WeatherLink 5.4,2013-03-09 03:00:00,
2013-03-08 23:01:00,69.8,64.4,29.91,North,-999,0.0,0.0,83,0.00,,,-99.99,0,WeatherLink 5.4,2013-03-09 03:01:00,
2013-03-08 23:02:00,69.8,64.4,29.91,North,-999,0.0,0.0,83,0.00,,,-99.99,0,WeatherLink 5.4,2013-03-09 03:02:00,
2013-03-08 23:03:00,69.8,64.4,29.91,North,-999,0.0,0.0,83,0.00,,,-99.99,0,WeatherLink 5.4,2013-03-09 03:03:00,
2013-03-08 23:04:00,69.8,64.4,29.91,North,-999,0.0,0.0,83,0.00,,,-99.99,0,WeatherLink 5.4,2013-03-09 03:04:00,
2013-03-08 23:05:00,69.8,64.4,29.91,North,-999,0.0,0.0,83,0.00,,,-99.99,0,WeatherLink 5.4,2013-03-09 03:05:00,
2013-03-08 23:06:00,69.8,64.4,29.91,North,-999,0.0,0.0,83,0.00,,,-99.99,0,WeatherLink 5.4,2013-03-09 03:06:00,
2013-03-08 23:07:00,69.8,64.4,29.91,North,-999,0.0,0.0,83,0.00,,,-99.99,0,WeatherLink 5.4,2013-03-09 03:07:00,
2013-03-08 23:08:00,69.8,64.7,29.91,North,-999,0.0,0.0,84,0.00,,,-99.99,0,WeatherLink 5.4,2013-03-09 03:08:00,
2013-03-08 23:09:00,69.8,64.7,29.91,North,-999,0.0,0.0,84,0.00,,,-99.99,0,WeatherLink 5.4,2013-03-09 03:09:00,
2013-03-08 23:10:00,69.8,64.7,29.91,North,-999,0.0,0.0,84,0.00,,,-99.99,0,WeatherLink 5.4,2013-03-09 03:10:00,
2013-03-08 23:11:00,69.8,64.7,29.91,North,-999,0.0,0.0,84,0.00,,,-99.99,0,WeatherLink 5.4,2013-03-09 03:11:00,
2013-03-08 23:12:00,69.8,64.4,29.91,North,-999,0.0,0.0,83,0.00,,,-99.99,0,WeatherLink 5.4,2013-03-09 03:12:00,
2013-03-08 23:13:00,69.8,64.7,29.91,North,-999,0.0,0.0,84,0.00,,,-99.99,0,WeatherLink 5.4,2013-03-09 03:13:00,
2013-03-08 23:14:00,69.8,64.7,29.91,North,-999,0.0,0.0,84,0.00,,,-99.99,0,WeatherLink 5.4,2013-03-09 03:14:00,
2013-03-08 23:15:00,69.8,64.4,29.91,North,-999,0.0,0.0,83,0.00,,,-99.99,0,WeatherLink 5.4,2013-03-09 03:15:00,
2013-03-08 23:16:00,69.8,64.4,29.91,North,-999,0.0,0.0,83,0.00,,,-99.99,0,WeatherLink 5.4,2013-03-09 03:16:00,
2013-03-08 23:17:00,69.8,64.4,29.91,North,-999,0.0,0.0,83,0.00,,,-99.99,0,WeatherLink 5.4,2013-03-09 03:17:00,
2013-03-08 23:18:00,69.8,64.4,29.91,North,-999,0.0,0.0,83,0.00,,,-99.99,0,WeatherLink 5.4,2013-03-09 03:18:00,
2013-03-08 23:19:00,69.8,64.4,29.91,North,-999,0.0,0.0,83,0.00,,,-99.99,0,WeatherLink 5.4,2013-03-09 03:19:00,
2013-03-08 23:20:00,69.6,64.2,29.91,North,-999,0.0,0.0,83,0.00,,,-99.99,0,WeatherLink 5.4,2013-03-09 03:20:00,
2013-03-08 23:21:00,69.6,64.2,29.91,North,-999,0.0,0.0,83,0.00,,,-99.99,0,WeatherLink 5.4,2013-03-09 03:21:00,
2013-03-08 23:22:00,69.6,64.2,29.91,North,-999,0.0,0.0,83,0.00,,,-99.99,0,WeatherLink 5.4,2013-03-09 03:22:00,
2013-03-08 23:23:00,69.6,64.2,29.91,North,-999,0.0,0.0,83,0.00,,,-99.99,0,WeatherLink 5.4,2013-03-09 03:23:00,
2013-03-08 23:24:00,69.6,64.2,29.91,North,-999,0.0,0.0,83,0.00,,,-99.99,0,WeatherLink 5.4,2013-03-09 03:24:00,
2013-03-08 23:25:00,69.6,64.2,29.91,North,-999,0.0,0.0,83,0.00,,,-99.99,0,WeatherLink 5.4,2013-03-09 03:25:00,
2013-03-08 23:26:00,69.6,64.2,29.91,North,-999,0.0,0.0,83,0.00,,,-99.99,0,WeatherLink 5.4,2013-03-09 03:26:00,
2013-03-08 23:27:00,69.6,64.2,29.91,North,-999,0.0,0.0,83,0.00,,,-99.99,0,WeatherLink 5.4,2013-03-09 03:27:00,
2013-03-08 23:28:00,69.6,64.2,29.91,North,-999,0.0,0.0,83,0.00,,,-99.99,0,WeatherLink 5.4,2013-03-09 03:28:00,
2013-03-08 23:29:00,69.6,64.2,29.91,North,-999,0.0,0.0,83,0.00,,,-99.99,0,WeatherLink 5.4,2013-03-09 03:29:00,
2013-03-08 23:30:00,69.6,64.2,29.91,North,-999,0.0,0.0,83,0.00,,,-99.99,0,WeatherLink 5.4,2013-03-09 03:30:00,
2013-03-08 23:31:00,69.6,64.2,29.91,North,-999,0.0,0.0,83,0.00,,,-99.99,0,WeatherLink 5.4,2013-03-09 03:31:00,
2013-03-08 23:32:00,69.6,64.2,29.91,North,-999,0.0,0.0,83,0.00,,,-99.99,0,WeatherLink 5.4,2013-03-09 03:32:00,
2013-03-08 23:33:00,69.6,64.2,29.91,North,-999,0.0,0.0,83,0.00,,,-99.99,0,WeatherLink 5.4,2013-03-09 03:33:00,
2013-03-08 23:34:00,69.6,64.2,29.91,North,-999,0.0,0.0,83,0.00,,,-99.99,0,WeatherLink 5.4,2013-03-09 03:34:00,
2013-03-08 23:35:00,69.6,64.2,29.91,North,-999,0.0,0.0,83,0.00,,,-99.99,0,WeatherLink 5.4,2013-03-09 03:35:00,
2013-03-08 23:36:00,69.6,64.2,29.91,North,-999,0.0,0.0,83,0.00,,,-99.99,0,WeatherLink 5.4,2013-03-09 03:36:00,
2013-03-08 23:37:00,69.6,64.2,29.91,North,-999,0.0,0.0,83,0.00,,,-99.99,0,WeatherLink 5.4,2013-03-09 03:37:00,
2013-03-08 23:38:00,69.6,64.2,29.91,North,-999,0.0,0.0,83,0.00,,,-99.99,0,WeatherLink 5.4,2013-03-09 03:38:00,
2013-03-08 23:39:00,69.6,64.2,29.91,North,-999,0.0,0.0,83,0.00,,,-99.99,0,WeatherLink 5.4,2013-03-09 03:39:00,
2013-03-08 23:40:00,69.6,64.2,29.91,North,-999,0.0,0.0,83,0.00,,,-99.99,0,WeatherLink 5.4,2013-03-09 03:40:00,
2013-03-08 23:41:00,69.6,64.2,29.91,North,-999,0.0,0.0,83,0.00,,,-99.99,0,WeatherLink 5.4,2013-03-09 03:41:00,
2013-03-08 23:42:00,69.6,64.2,29.91,North,-999,0.0,0.0,83,0.00,,,-99.99,0,WeatherLink 5.4,2013-03-09 03:42:00,
2013-03-08 23:43:00,69.6,64.2,29.91,North,-999,0.0,0.0,83,0.00,,,-99.99,0,WeatherLink 5.4,2013-03-09 03:43:00,
2013-03-08 23:44:00,69.6,64.2,29.91,North,-999,0.0,0.0,83,0.00,,,-99.99,0,WeatherLink 5.4,2013-03-09 03:44:00,
2013-03-08 23:45:00,69.6,64.2,29.91,North,-999,0.0,0.0,83,0.00,,,-99.99,0,WeatherLink 5.4,2013-03-09 03:45:00,
2013-03-08 23:46:00,69.4,64.0,29.91,North,-999,0.0,0.0,83,0.00,,,-99.99,0,WeatherLink 5.4,2013-03-09 03:46:00,
2013-03-08 23:47:00,69.4,64.0,29.91,North,-999,0.0,0.0,83,0.00,,,-99.99,0,WeatherLink 5.4,2013-03-09 03:47:00,
2013-03-08 23:48:00,69.4,64.0,29.91,North,-999,0.0,0.0,83,0.00,,,-99.99,0,WeatherLink 5.4,2013-03-09 03:48:00,
2013-03-08 23:49:00,69.4,64.0,29.91,North,-999,0.0,0.0,83,0.00,,,-99.99,0,WeatherLink 5.4,2013-03-09 03:49:00,
2013-03-08 23:50:00,69.4,64.0,29.91,North,-999,0.0,0.0,83,0.00,,,-99.99,0,WeatherLink 5.4,2013-03-09 03:50:00,
2013-03-08 23:51:00,69.4,64.0,29.91,North,-999,0.0,0.0,83,0.00,,,-99.99,0,WeatherLink 5.4,2013-03-09 03:51:00,
2013-03-08 23:52:00,69.4,64.0,29.91,North,-999,0.0,0.0,83,0.00,,,-99.99,0,WeatherLink 5.4,2013-03-09 03:52:00,
2013-03-08 23:53:00,69.4,64.0,29.91,North,-999,0.0,0.0,83,0.00,,,-99.99,0,WeatherLink 5.4,2013-03-09 03:53:00,
2013-03-08 23:54:00,69.4,64.0,29.91,North,-999,0.0,0.0,83,0.00,,,-99.99,0,WeatherLink 5.4,2013-03-09 03:54:00,
2013-03-08 23:55:00,69.4,64.0,29.91,North,-999,0.0,0.0,83,0.00,,,-99.99,0,WeatherLink 5.4,2013-03-09 03:55:00,
2013-03-08 23:56:00,69.4,64.0,29.91,North,-999,0.0,0.0,83,0.00,,,-99.99,0,WeatherLink 5.4,2013-03-09 03:56:00,
2013-03-08 23:57:00,69.3,63.9,29.91,North,-999,0.0,0.0,83,0.00,,,-99.99,0,WeatherLink 5.4,2013-03-09 03:57:00,
2013-03-08 23:58:00,69.3,63.9,29.91,North,-999,0.0,0.0,83,0.00,,,-99.99,0,WeatherLink 5.4,2013-03-09 03:58:00,
2013-03-08 23:59:00,69.3,63.9,29.91,North,-999,0.0,0.0,83,0.00,,,-99.99,0,WeatherLink 5.4,2013-03-09 03:59:00,